<?xml version="1.0" encoding="UTF-8" standalone="no" ?>
<gpx xmlns="http://www.topografix.com/GPX/1/1" xmlns:xsi="http://www.w3.org/2001/XMLSchema-instance" xsi:schemaLocation="http://www.topografix.com/GPX/1/1 http://www.topografix.com/GPX/1/1/gpx.xsd" version="1.1" creator="VisuGPX - https://www.visugpx.com">
  <metadata>
    <name>Circuit autour de St Julien de Ratz</name>
    <desc><![CDATA[Petit souci sur la fin qui m'a fait prendre la route]]></desc>
  </metadata>
  <trk>
    <name><![CDATA[2018-07-14-01_2011-05-06-01_St Julien de Raz]]></name>
    <trkseg>
      <trkpt lat="45.34563" lon="5.63435">
        <ele>587</ele>
        <time>2018-07-14T06:44:49Z</time>
      </trkpt>
      <trkpt lat="45.3457" lon="5.63433">
        <ele>586</ele>
        <time>2018-07-14T06:44:53Z</time>
      </trkpt>
      <trkpt lat="45.34591" lon="5.63439">
        <ele>585.3</ele>
        <time>2018-07-14T06:45:02Z</time>
      </trkpt>
      <trkpt lat="45.34582" lon="5.63436">
        <ele>585.7</ele>
        <time>2018-07-14T06:45:37Z</time>
      </trkpt>
      <trkpt lat="45.34572" lon="5.63435">
        <ele>586.1</ele>
        <time>2018-07-14T06:45:46Z</time>
      </trkpt>
      <trkpt lat="45.34562" lon="5.63432">
        <ele>586.6</ele>
        <time>2018-07-14T06:45:52Z</time>
      </trkpt>
      <trkpt lat="45.34551" lon="5.6343">
        <ele>587</ele>
        <time>2018-07-14T06:45:58Z</time>
      </trkpt>
      <trkpt lat="45.34541" lon="5.63427">
        <ele>587.4</ele>
        <time>2018-07-14T06:46:03Z</time>
      </trkpt>
      <trkpt lat="45.34531" lon="5.63423">
        <ele>588.3</ele>
        <time>2018-07-14T06:46:09Z</time>
      </trkpt>
      <trkpt lat="45.34522" lon="5.63418">
        <ele>589.6</ele>
        <time>2018-07-14T06:46:17Z</time>
      </trkpt>
      <trkpt lat="45.34513" lon="5.63412">
        <ele>590.7</ele>
        <time>2018-07-14T06:46:24Z</time>
      </trkpt>
      <trkpt lat="45.34503" lon="5.63408">
        <ele>592.2</ele>
        <time>2018-07-14T06:46:30Z</time>
      </trkpt>
      <trkpt lat="45.34493" lon="5.63407">
        <ele>593.4</ele>
        <time>2018-07-14T06:46:38Z</time>
      </trkpt>
      <trkpt lat="45.34484" lon="5.63405">
        <ele>594.4</ele>
        <time>2018-07-14T06:46:43Z</time>
      </trkpt>
      <trkpt lat="45.34473" lon="5.63402">
        <ele>596.4</ele>
        <time>2018-07-14T06:46:51Z</time>
      </trkpt>
      <trkpt lat="45.34464" lon="5.63399">
        <ele>597</ele>
        <time>2018-07-14T06:46:56Z</time>
      </trkpt>
      <trkpt lat="45.34453" lon="5.63397">
        <ele>598.3</ele>
        <time>2018-07-14T06:47:02Z</time>
      </trkpt>
      <trkpt lat="45.34444" lon="5.63395">
        <ele>599.4</ele>
        <time>2018-07-14T06:47:10Z</time>
      </trkpt>
      <trkpt lat="45.34435" lon="5.63388">
        <ele>601.1</ele>
        <time>2018-07-14T06:47:22Z</time>
      </trkpt>
      <trkpt lat="45.34425" lon="5.63384">
        <ele>602.1</ele>
        <time>2018-07-14T06:47:31Z</time>
      </trkpt>
      <trkpt lat="45.34416" lon="5.63381">
        <ele>602.4</ele>
        <time>2018-07-14T06:47:37Z</time>
      </trkpt>
      <trkpt lat="45.34406" lon="5.6338">
        <ele>603.5</ele>
        <time>2018-07-14T06:47:45Z</time>
      </trkpt>
      <trkpt lat="45.34397" lon="5.63381">
        <ele>605.3</ele>
        <time>2018-07-14T06:47:54Z</time>
      </trkpt>
      <trkpt lat="45.34389" lon="5.63376">
        <ele>606.4</ele>
        <time>2018-07-14T06:48:06Z</time>
      </trkpt>
      <trkpt lat="45.3438" lon="5.63374">
        <ele>607.2</ele>
        <time>2018-07-14T06:48:18Z</time>
      </trkpt>
      <trkpt lat="45.3437" lon="5.63376">
        <ele>608.4</ele>
        <time>2018-07-14T06:48:24Z</time>
      </trkpt>
      <trkpt lat="45.3436" lon="5.63376">
        <ele>609.1</ele>
        <time>2018-07-14T06:48:30Z</time>
      </trkpt>
      <trkpt lat="45.34351" lon="5.63375">
        <ele>610.3</ele>
        <time>2018-07-14T06:48:35Z</time>
      </trkpt>
      <trkpt lat="45.34342" lon="5.63373">
        <ele>611</ele>
        <time>2018-07-14T06:48:39Z</time>
      </trkpt>
      <trkpt lat="45.34333" lon="5.63371">
        <ele>611.5</ele>
        <time>2018-07-14T06:48:43Z</time>
      </trkpt>
      <trkpt lat="45.34324" lon="5.63371">
        <ele>611.9</ele>
        <time>2018-07-14T06:48:48Z</time>
      </trkpt>
      <trkpt lat="45.34314" lon="5.63371">
        <ele>613.4</ele>
        <time>2018-07-14T06:48:57Z</time>
      </trkpt>
      <trkpt lat="45.34304" lon="5.63371">
        <ele>614.8</ele>
        <time>2018-07-14T06:49:06Z</time>
      </trkpt>
      <trkpt lat="45.34294" lon="5.63371">
        <ele>615.7</ele>
        <time>2018-07-14T06:49:11Z</time>
      </trkpt>
      <trkpt lat="45.34285" lon="5.63369">
        <ele>616.7</ele>
        <time>2018-07-14T06:49:16Z</time>
      </trkpt>
      <trkpt lat="45.34274" lon="5.63366">
        <ele>617.8</ele>
        <time>2018-07-14T06:49:21Z</time>
      </trkpt>
      <trkpt lat="45.34265" lon="5.63365">
        <ele>618.4</ele>
        <time>2018-07-14T06:49:29Z</time>
      </trkpt>
      <trkpt lat="45.34255" lon="5.63366">
        <ele>619.9</ele>
        <time>2018-07-14T06:49:37Z</time>
      </trkpt>
      <trkpt lat="45.34244" lon="5.63363">
        <ele>621.5</ele>
        <time>2018-07-14T06:49:45Z</time>
      </trkpt>
      <trkpt lat="45.34234" lon="5.63359">
        <ele>623.1</ele>
        <time>2018-07-14T06:49:57Z</time>
      </trkpt>
      <trkpt lat="45.34223" lon="5.63358">
        <ele>625.3</ele>
        <time>2018-07-14T06:50:07Z</time>
      </trkpt>
      <trkpt lat="45.34212" lon="5.6336">
        <ele>626</ele>
        <time>2018-07-14T06:50:13Z</time>
      </trkpt>
      <trkpt lat="45.34201" lon="5.63363">
        <ele>627.3</ele>
        <time>2018-07-14T06:50:20Z</time>
      </trkpt>
      <trkpt lat="45.34192" lon="5.63363">
        <ele>628.2</ele>
        <time>2018-07-14T06:50:27Z</time>
      </trkpt>
      <trkpt lat="45.34183" lon="5.6337">
        <ele>629.9</ele>
        <time>2018-07-14T06:50:38Z</time>
      </trkpt>
      <trkpt lat="45.34177" lon="5.63379">
        <ele>630.5</ele>
        <time>2018-07-14T06:50:42Z</time>
      </trkpt>
      <trkpt lat="45.34182" lon="5.63391">
        <ele>632.6</ele>
        <time>2018-07-14T06:50:56Z</time>
      </trkpt>
      <trkpt lat="45.34191" lon="5.63397">
        <ele>634.2</ele>
        <time>2018-07-14T06:51:06Z</time>
      </trkpt>
      <trkpt lat="45.34199" lon="5.63402">
        <ele>635.4</ele>
        <time>2018-07-14T06:51:14Z</time>
      </trkpt>
      <trkpt lat="45.34207" lon="5.6341">
        <ele>636.2</ele>
        <time>2018-07-14T06:51:22Z</time>
      </trkpt>
      <trkpt lat="45.34216" lon="5.63418">
        <ele>637</ele>
        <time>2018-07-14T06:51:31Z</time>
      </trkpt>
      <trkpt lat="45.34226" lon="5.6343">
        <ele>639</ele>
        <time>2018-07-14T06:51:43Z</time>
      </trkpt>
      <trkpt lat="45.34233" lon="5.6344">
        <ele>641.1</ele>
        <time>2018-07-14T06:51:52Z</time>
      </trkpt>
      <trkpt lat="45.34241" lon="5.63449">
        <ele>642.2</ele>
        <time>2018-07-14T06:51:59Z</time>
      </trkpt>
      <trkpt lat="45.34249" lon="5.63457">
        <ele>642.9</ele>
        <time>2018-07-14T06:52:05Z</time>
      </trkpt>
      <trkpt lat="45.34257" lon="5.63465">
        <ele>643.7</ele>
        <time>2018-07-14T06:52:10Z</time>
      </trkpt>
      <trkpt lat="45.34264" lon="5.63475">
        <ele>644.9</ele>
        <time>2018-07-14T06:52:17Z</time>
      </trkpt>
      <trkpt lat="45.34271" lon="5.63483">
        <ele>645.9</ele>
        <time>2018-07-14T06:52:23Z</time>
      </trkpt>
      <trkpt lat="45.34278" lon="5.63491">
        <ele>646.9</ele>
        <time>2018-07-14T06:52:30Z</time>
      </trkpt>
      <trkpt lat="45.34285" lon="5.635">
        <ele>648.1</ele>
        <time>2018-07-14T06:52:37Z</time>
      </trkpt>
      <trkpt lat="45.34291" lon="5.63511">
        <ele>650.1</ele>
        <time>2018-07-14T06:52:50Z</time>
      </trkpt>
      <trkpt lat="45.34296" lon="5.63523">
        <ele>650.4</ele>
        <time>2018-07-14T06:53:04Z</time>
      </trkpt>
      <trkpt lat="45.34301" lon="5.63534">
        <ele>651</ele>
        <time>2018-07-14T06:53:12Z</time>
      </trkpt>
      <trkpt lat="45.34308" lon="5.63544">
        <ele>651.3</ele>
        <time>2018-07-14T06:53:17Z</time>
      </trkpt>
      <trkpt lat="45.34306" lon="5.63557">
        <ele>653.7</ele>
        <time>2018-07-14T06:53:30Z</time>
      </trkpt>
      <trkpt lat="45.34298" lon="5.6355">
        <ele>657.4</ele>
        <time>2018-07-14T06:53:51Z</time>
      </trkpt>
      <trkpt lat="45.34289" lon="5.63548">
        <ele>658.1</ele>
        <time>2018-07-14T06:53:58Z</time>
      </trkpt>
      <trkpt lat="45.34281" lon="5.63542">
        <ele>660.3</ele>
        <time>2018-07-14T06:54:11Z</time>
      </trkpt>
      <trkpt lat="45.34272" lon="5.63537">
        <ele>662.7</ele>
        <time>2018-07-14T06:54:24Z</time>
      </trkpt>
      <trkpt lat="45.34262" lon="5.63535">
        <ele>664.2</ele>
        <time>2018-07-14T06:54:37Z</time>
      </trkpt>
      <trkpt lat="45.34254" lon="5.6353">
        <ele>665.8</ele>
        <time>2018-07-14T06:54:45Z</time>
      </trkpt>
      <trkpt lat="45.34245" lon="5.63525">
        <ele>666</ele>
        <time>2018-07-14T06:54:52Z</time>
      </trkpt>
      <trkpt lat="45.34237" lon="5.6352">
        <ele>668</ele>
        <time>2018-07-14T06:55:04Z</time>
      </trkpt>
      <trkpt lat="45.34226" lon="5.63514">
        <ele>670</ele>
        <time>2018-07-14T06:55:20Z</time>
      </trkpt>
      <trkpt lat="45.34218" lon="5.63506">
        <ele>672</ele>
        <time>2018-07-14T06:55:40Z</time>
      </trkpt>
      <trkpt lat="45.34211" lon="5.63513">
        <ele>672</ele>
        <time>2018-07-14T06:55:48Z</time>
      </trkpt>
      <trkpt lat="45.34202" lon="5.6352">
        <ele>671.9</ele>
        <time>2018-07-14T06:56:10Z</time>
      </trkpt>
      <trkpt lat="45.34193" lon="5.63519">
        <ele>671.9</ele>
        <time>2018-07-14T06:56:18Z</time>
      </trkpt>
      <trkpt lat="45.34184" lon="5.63513">
        <ele>672.3</ele>
        <time>2018-07-14T06:56:26Z</time>
      </trkpt>
      <trkpt lat="45.34175" lon="5.63507">
        <ele>673.1</ele>
        <time>2018-07-14T06:56:34Z</time>
      </trkpt>
      <trkpt lat="45.34166" lon="5.63503">
        <ele>674.2</ele>
        <time>2018-07-14T06:56:42Z</time>
      </trkpt>
      <trkpt lat="45.34158" lon="5.6351">
        <ele>675.7</ele>
        <time>2018-07-14T06:56:53Z</time>
      </trkpt>
      <trkpt lat="45.34151" lon="5.63519">
        <ele>678.1</ele>
        <time>2018-07-14T06:57:06Z</time>
      </trkpt>
      <trkpt lat="45.34142" lon="5.63521">
        <ele>681</ele>
        <time>2018-07-14T06:57:26Z</time>
      </trkpt>
      <trkpt lat="45.34132" lon="5.63521">
        <ele>683.1</ele>
        <time>2018-07-14T06:57:43Z</time>
      </trkpt>
      <trkpt lat="45.34122" lon="5.63522">
        <ele>684.7</ele>
        <time>2018-07-14T06:57:55Z</time>
      </trkpt>
      <trkpt lat="45.34113" lon="5.63521">
        <ele>686.2</ele>
        <time>2018-07-14T06:58:07Z</time>
      </trkpt>
      <trkpt lat="45.34104" lon="5.6352">
        <ele>687.3</ele>
        <time>2018-07-14T06:58:17Z</time>
      </trkpt>
      <trkpt lat="45.34095" lon="5.63518">
        <ele>688.7</ele>
        <time>2018-07-14T06:59:10Z</time>
      </trkpt>
      <trkpt lat="45.34085" lon="5.63518">
        <ele>689.4</ele>
        <time>2018-07-14T06:59:20Z</time>
      </trkpt>
      <trkpt lat="45.34077" lon="5.63512">
        <ele>690.6</ele>
        <time>2018-07-14T06:59:28Z</time>
      </trkpt>
      <trkpt lat="45.34067" lon="5.63509">
        <ele>691.9</ele>
        <time>2018-07-14T06:59:40Z</time>
      </trkpt>
      <trkpt lat="45.34058" lon="5.63505">
        <ele>692.7</ele>
        <time>2018-07-14T06:59:51Z</time>
      </trkpt>
      <trkpt lat="45.34048" lon="5.63503">
        <ele>693.4</ele>
        <time>2018-07-14T06:59:57Z</time>
      </trkpt>
      <trkpt lat="45.34039" lon="5.63502">
        <ele>694.7</ele>
        <time>2018-07-14T07:00:04Z</time>
      </trkpt>
      <trkpt lat="45.34029" lon="5.63498">
        <ele>695.8</ele>
        <time>2018-07-14T07:00:11Z</time>
      </trkpt>
      <trkpt lat="45.34019" lon="5.63496">
        <ele>696.2</ele>
        <time>2018-07-14T07:00:17Z</time>
      </trkpt>
      <trkpt lat="45.3401" lon="5.63497">
        <ele>697.7</ele>
        <time>2018-07-14T07:00:24Z</time>
      </trkpt>
      <trkpt lat="45.34001" lon="5.63499">
        <ele>699.3</ele>
        <time>2018-07-14T07:00:32Z</time>
      </trkpt>
      <trkpt lat="45.33992" lon="5.63503">
        <ele>701.1</ele>
        <time>2018-07-14T07:00:41Z</time>
      </trkpt>
      <trkpt lat="45.33982" lon="5.63505">
        <ele>702.5</ele>
        <time>2018-07-14T07:00:48Z</time>
      </trkpt>
      <trkpt lat="45.33973" lon="5.63507">
        <ele>703.4</ele>
        <time>2018-07-14T07:00:55Z</time>
      </trkpt>
      <trkpt lat="45.33962" lon="5.63508">
        <ele>704.4</ele>
        <time>2018-07-14T07:01:04Z</time>
      </trkpt>
      <trkpt lat="45.33952" lon="5.63507">
        <ele>705.1</ele>
        <time>2018-07-14T07:01:10Z</time>
      </trkpt>
      <trkpt lat="45.33956" lon="5.63519">
        <ele>708.9</ele>
        <time>2018-07-14T07:01:36Z</time>
      </trkpt>
      <trkpt lat="45.33965" lon="5.63523">
        <ele>709.9</ele>
        <time>2018-07-14T07:01:45Z</time>
      </trkpt>
      <trkpt lat="45.33974" lon="5.63528">
        <ele>711</ele>
        <time>2018-07-14T07:01:53Z</time>
      </trkpt>
      <trkpt lat="45.33982" lon="5.63535">
        <ele>712</ele>
        <time>2018-07-14T07:02:01Z</time>
      </trkpt>
      <trkpt lat="45.33992" lon="5.6354">
        <ele>713.4</ele>
        <time>2018-07-14T07:02:10Z</time>
      </trkpt>
      <trkpt lat="45.34" lon="5.63545">
        <ele>714.1</ele>
        <time>2018-07-14T07:02:16Z</time>
      </trkpt>
      <trkpt lat="45.34009" lon="5.63551">
        <ele>715.5</ele>
        <time>2018-07-14T07:02:24Z</time>
      </trkpt>
      <trkpt lat="45.34016" lon="5.63558">
        <ele>716.9</ele>
        <time>2018-07-14T07:02:33Z</time>
      </trkpt>
      <trkpt lat="45.34025" lon="5.63566">
        <ele>718.5</ele>
        <time>2018-07-14T07:02:43Z</time>
      </trkpt>
      <trkpt lat="45.34033" lon="5.63573">
        <ele>719.4</ele>
        <time>2018-07-14T07:02:53Z</time>
      </trkpt>
      <trkpt lat="45.34041" lon="5.6358">
        <ele>720.5</ele>
        <time>2018-07-14T07:03:02Z</time>
      </trkpt>
      <trkpt lat="45.3405" lon="5.63584">
        <ele>722</ele>
        <time>2018-07-14T07:03:11Z</time>
      </trkpt>
      <trkpt lat="45.34059" lon="5.63589">
        <ele>723.6</ele>
        <time>2018-07-14T07:03:22Z</time>
      </trkpt>
      <trkpt lat="45.34068" lon="5.63595">
        <ele>724.8</ele>
        <time>2018-07-14T07:03:35Z</time>
      </trkpt>
      <trkpt lat="45.34077" lon="5.63601">
        <ele>725.8</ele>
        <time>2018-07-14T07:03:44Z</time>
      </trkpt>
      <trkpt lat="45.34085" lon="5.63609">
        <ele>727.3</ele>
        <time>2018-07-14T07:03:54Z</time>
      </trkpt>
      <trkpt lat="45.34093" lon="5.63617">
        <ele>728.8</ele>
        <time>2018-07-14T07:04:03Z</time>
      </trkpt>
      <trkpt lat="45.34102" lon="5.63618">
        <ele>730.6</ele>
        <time>2018-07-14T07:04:13Z</time>
      </trkpt>
      <trkpt lat="45.34112" lon="5.63621">
        <ele>731.6</ele>
        <time>2018-07-14T07:04:20Z</time>
      </trkpt>
      <trkpt lat="45.34121" lon="5.63624">
        <ele>732.4</ele>
        <time>2018-07-14T07:04:27Z</time>
      </trkpt>
      <trkpt lat="45.34122" lon="5.63638">
        <ele>733.8</ele>
        <time>2018-07-14T07:04:38Z</time>
      </trkpt>
      <trkpt lat="45.34118" lon="5.6365">
        <ele>735</ele>
        <time>2018-07-14T07:04:49Z</time>
      </trkpt>
      <trkpt lat="45.34112" lon="5.6366">
        <ele>736.5</ele>
        <time>2018-07-14T07:04:58Z</time>
      </trkpt>
      <trkpt lat="45.34104" lon="5.63668">
        <ele>737.4</ele>
        <time>2018-07-14T07:05:07Z</time>
      </trkpt>
      <trkpt lat="45.34096" lon="5.63676">
        <ele>738.6</ele>
        <time>2018-07-14T07:05:16Z</time>
      </trkpt>
      <trkpt lat="45.34087" lon="5.6368">
        <ele>739.6</ele>
        <time>2018-07-14T07:05:23Z</time>
      </trkpt>
      <trkpt lat="45.34079" lon="5.63687">
        <ele>740.9</ele>
        <time>2018-07-14T07:05:31Z</time>
      </trkpt>
      <trkpt lat="45.34071" lon="5.63696">
        <ele>741.5</ele>
        <time>2018-07-14T07:05:38Z</time>
      </trkpt>
      <trkpt lat="45.34063" lon="5.63701">
        <ele>742.2</ele>
        <time>2018-07-14T07:05:44Z</time>
      </trkpt>
      <trkpt lat="45.34053" lon="5.63708">
        <ele>743.5</ele>
        <time>2018-07-14T07:05:51Z</time>
      </trkpt>
      <trkpt lat="45.34045" lon="5.63716">
        <ele>744.7</ele>
        <time>2018-07-14T07:05:57Z</time>
      </trkpt>
      <trkpt lat="45.34038" lon="5.63725">
        <ele>745.4</ele>
        <time>2018-07-14T07:06:03Z</time>
      </trkpt>
      <trkpt lat="45.3403" lon="5.6373">
        <ele>746.1</ele>
        <time>2018-07-14T07:06:12Z</time>
      </trkpt>
      <trkpt lat="45.34021" lon="5.63734">
        <ele>747.3</ele>
        <time>2018-07-14T07:06:20Z</time>
      </trkpt>
      <trkpt lat="45.34012" lon="5.63739">
        <ele>747.6</ele>
        <time>2018-07-14T07:06:27Z</time>
      </trkpt>
      <trkpt lat="45.34003" lon="5.6374">
        <ele>749.8</ele>
        <time>2018-07-14T07:06:40Z</time>
      </trkpt>
      <trkpt lat="45.33992" lon="5.63744">
        <ele>749.3</ele>
        <time>2018-07-14T07:07:08Z</time>
      </trkpt>
      <trkpt lat="45.33983" lon="5.6375">
        <ele>749.6</ele>
        <time>2018-07-14T07:07:15Z</time>
      </trkpt>
      <trkpt lat="45.33974" lon="5.63753">
        <ele>750.6</ele>
        <time>2018-07-14T07:07:22Z</time>
      </trkpt>
      <trkpt lat="45.33965" lon="5.63751">
        <ele>751.3</ele>
        <time>2018-07-14T07:07:29Z</time>
      </trkpt>
      <trkpt lat="45.33955" lon="5.6375">
        <ele>752.3</ele>
        <time>2018-07-14T07:07:36Z</time>
      </trkpt>
      <trkpt lat="45.33945" lon="5.63751">
        <ele>753.1</ele>
        <time>2018-07-14T07:07:44Z</time>
      </trkpt>
      <trkpt lat="45.33936" lon="5.63753">
        <ele>754.3</ele>
        <time>2018-07-14T07:07:51Z</time>
      </trkpt>
      <trkpt lat="45.33926" lon="5.63752">
        <ele>755</ele>
        <time>2018-07-14T07:07:58Z</time>
      </trkpt>
      <trkpt lat="45.33916" lon="5.63748">
        <ele>756.2</ele>
        <time>2018-07-14T07:08:05Z</time>
      </trkpt>
      <trkpt lat="45.33907" lon="5.63743">
        <ele>757.3</ele>
        <time>2018-07-14T07:08:12Z</time>
      </trkpt>
      <trkpt lat="45.33898" lon="5.63737">
        <ele>758.1</ele>
        <time>2018-07-14T07:08:19Z</time>
      </trkpt>
      <trkpt lat="45.3389" lon="5.6373">
        <ele>758.7</ele>
        <time>2018-07-14T07:08:25Z</time>
      </trkpt>
      <trkpt lat="45.33882" lon="5.63722">
        <ele>759.4</ele>
        <time>2018-07-14T07:08:32Z</time>
      </trkpt>
      <trkpt lat="45.33874" lon="5.63714">
        <ele>760.3</ele>
        <time>2018-07-14T07:08:39Z</time>
      </trkpt>
      <trkpt lat="45.33869" lon="5.63704">
        <ele>761.4</ele>
        <time>2018-07-14T07:08:46Z</time>
      </trkpt>
      <trkpt lat="45.33864" lon="5.63693">
        <ele>762</ele>
        <time>2018-07-14T07:08:53Z</time>
      </trkpt>
      <trkpt lat="45.33859" lon="5.63682">
        <ele>762.9</ele>
        <time>2018-07-14T07:09:00Z</time>
      </trkpt>
      <trkpt lat="45.33852" lon="5.63673">
        <ele>763.8</ele>
        <time>2018-07-14T07:09:08Z</time>
      </trkpt>
      <trkpt lat="45.33843" lon="5.63665">
        <ele>764.6</ele>
        <time>2018-07-14T07:09:16Z</time>
      </trkpt>
      <trkpt lat="45.33834" lon="5.63657">
        <ele>766.2</ele>
        <time>2018-07-14T07:09:24Z</time>
      </trkpt>
      <trkpt lat="45.33825" lon="5.63652">
        <ele>766.9</ele>
        <time>2018-07-14T07:09:28Z</time>
      </trkpt>
      <trkpt lat="45.33816" lon="5.63648">
        <ele>767.7</ele>
        <time>2018-07-14T07:09:36Z</time>
      </trkpt>
      <trkpt lat="45.33807" lon="5.63645">
        <ele>768.6</ele>
        <time>2018-07-14T07:09:43Z</time>
      </trkpt>
      <trkpt lat="45.33798" lon="5.63643">
        <ele>769.5</ele>
        <time>2018-07-14T07:09:51Z</time>
      </trkpt>
      <trkpt lat="45.33788" lon="5.63642">
        <ele>770.2</ele>
        <time>2018-07-14T07:09:58Z</time>
      </trkpt>
      <trkpt lat="45.33778" lon="5.63639">
        <ele>770.9</ele>
        <time>2018-07-14T07:10:04Z</time>
      </trkpt>
      <trkpt lat="45.33769" lon="5.63637">
        <ele>771.8</ele>
        <time>2018-07-14T07:10:14Z</time>
      </trkpt>
      <trkpt lat="45.33759" lon="5.63635">
        <ele>772.3</ele>
        <time>2018-07-14T07:10:23Z</time>
      </trkpt>
      <trkpt lat="45.3375" lon="5.63632">
        <ele>772.6</ele>
        <time>2018-07-14T07:10:29Z</time>
      </trkpt>
      <trkpt lat="45.33741" lon="5.6363">
        <ele>772.8</ele>
        <time>2018-07-14T07:10:37Z</time>
      </trkpt>
      <trkpt lat="45.33731" lon="5.63628">
        <ele>773</ele>
        <time>2018-07-14T07:10:42Z</time>
      </trkpt>
      <trkpt lat="45.33722" lon="5.63625">
        <ele>773</ele>
        <time>2018-07-14T07:10:47Z</time>
      </trkpt>
      <trkpt lat="45.33713" lon="5.63624">
        <ele>773.3</ele>
        <time>2018-07-14T07:10:53Z</time>
      </trkpt>
      <trkpt lat="45.33703" lon="5.63621">
        <ele>773.6</ele>
        <time>2018-07-14T07:10:59Z</time>
      </trkpt>
      <trkpt lat="45.33692" lon="5.63618">
        <ele>773.6</ele>
        <time>2018-07-14T07:11:04Z</time>
      </trkpt>
      <trkpt lat="45.33682" lon="5.63618">
        <ele>773.6</ele>
        <time>2018-07-14T07:11:09Z</time>
      </trkpt>
      <trkpt lat="45.33673" lon="5.63618">
        <ele>773.7</ele>
        <time>2018-07-14T07:11:12Z</time>
      </trkpt>
      <trkpt lat="45.33663" lon="5.63619">
        <ele>774.1</ele>
        <time>2018-07-14T07:11:15Z</time>
      </trkpt>
      <trkpt lat="45.33653" lon="5.6362">
        <ele>774.5</ele>
        <time>2018-07-14T07:11:19Z</time>
      </trkpt>
      <trkpt lat="45.33642" lon="5.63621">
        <ele>774.5</ele>
        <time>2018-07-14T07:11:23Z</time>
      </trkpt>
      <trkpt lat="45.33631" lon="5.63623">
        <ele>774.5</ele>
        <time>2018-07-14T07:11:26Z</time>
      </trkpt>
      <trkpt lat="45.33621" lon="5.63625">
        <ele>774.5</ele>
        <time>2018-07-14T07:11:30Z</time>
      </trkpt>
      <trkpt lat="45.33609" lon="5.63627">
        <ele>774.9</ele>
        <time>2018-07-14T07:11:34Z</time>
      </trkpt>
      <trkpt lat="45.33599" lon="5.63629">
        <ele>775.3</ele>
        <time>2018-07-14T07:11:38Z</time>
      </trkpt>
      <trkpt lat="45.33589" lon="5.63631">
        <ele>775.7</ele>
        <time>2018-07-14T07:11:43Z</time>
      </trkpt>
      <trkpt lat="45.33579" lon="5.63634">
        <ele>776.2</ele>
        <time>2018-07-14T07:11:47Z</time>
      </trkpt>
      <trkpt lat="45.3357" lon="5.63637">
        <ele>776.5</ele>
        <time>2018-07-14T07:11:52Z</time>
      </trkpt>
      <trkpt lat="45.33561" lon="5.63642">
        <ele>777.3</ele>
        <time>2018-07-14T07:11:58Z</time>
      </trkpt>
      <trkpt lat="45.33552" lon="5.63647">
        <ele>777.8</ele>
        <time>2018-07-14T07:12:02Z</time>
      </trkpt>
      <trkpt lat="45.33543" lon="5.63651">
        <ele>778.2</ele>
        <time>2018-07-14T07:12:06Z</time>
      </trkpt>
      <trkpt lat="45.33534" lon="5.63657">
        <ele>778.7</ele>
        <time>2018-07-14T07:12:11Z</time>
      </trkpt>
      <trkpt lat="45.33524" lon="5.63661">
        <ele>779.3</ele>
        <time>2018-07-14T07:12:16Z</time>
      </trkpt>
      <trkpt lat="45.33515" lon="5.63665">
        <ele>779.6</ele>
        <time>2018-07-14T07:12:21Z</time>
      </trkpt>
      <trkpt lat="45.33505" lon="5.63672">
        <ele>780.1</ele>
        <time>2018-07-14T07:12:26Z</time>
      </trkpt>
      <trkpt lat="45.33497" lon="5.63678">
        <ele>780.6</ele>
        <time>2018-07-14T07:12:30Z</time>
      </trkpt>
      <trkpt lat="45.33489" lon="5.63685">
        <ele>781</ele>
        <time>2018-07-14T07:12:34Z</time>
      </trkpt>
      <trkpt lat="45.33481" lon="5.63693">
        <ele>781.1</ele>
        <time>2018-07-14T07:12:38Z</time>
      </trkpt>
      <trkpt lat="45.33473" lon="5.63701">
        <ele>781.1</ele>
        <time>2018-07-14T07:12:42Z</time>
      </trkpt>
      <trkpt lat="45.33464" lon="5.6371">
        <ele>781.2</ele>
        <time>2018-07-14T07:12:46Z</time>
      </trkpt>
      <trkpt lat="45.33455" lon="5.6372">
        <ele>781.5</ele>
        <time>2018-07-14T07:12:50Z</time>
      </trkpt>
      <trkpt lat="45.33447" lon="5.6373">
        <ele>781.4</ele>
        <time>2018-07-14T07:12:53Z</time>
      </trkpt>
      <trkpt lat="45.33439" lon="5.63741">
        <ele>781.3</ele>
        <time>2018-07-14T07:12:56Z</time>
      </trkpt>
      <trkpt lat="45.33431" lon="5.63751">
        <ele>781.3</ele>
        <time>2018-07-14T07:12:59Z</time>
      </trkpt>
      <trkpt lat="45.33424" lon="5.63763">
        <ele>781.3</ele>
        <time>2018-07-14T07:13:02Z</time>
      </trkpt>
      <trkpt lat="45.33418" lon="5.63775">
        <ele>781.3</ele>
        <time>2018-07-14T07:13:05Z</time>
      </trkpt>
      <trkpt lat="45.33411" lon="5.63787">
        <ele>781.1</ele>
        <time>2018-07-14T07:13:08Z</time>
      </trkpt>
      <trkpt lat="45.33404" lon="5.63799">
        <ele>781.1</ele>
        <time>2018-07-14T07:13:11Z</time>
      </trkpt>
      <trkpt lat="45.33397" lon="5.63812">
        <ele>780.8</ele>
        <time>2018-07-14T07:13:14Z</time>
      </trkpt>
      <trkpt lat="45.33391" lon="5.63824">
        <ele>780.8</ele>
        <time>2018-07-14T07:13:17Z</time>
      </trkpt>
      <trkpt lat="45.33385" lon="5.63836">
        <ele>780.9</ele>
        <time>2018-07-14T07:13:20Z</time>
      </trkpt>
      <trkpt lat="45.33379" lon="5.63848">
        <ele>781</ele>
        <time>2018-07-14T07:13:23Z</time>
      </trkpt>
      <trkpt lat="45.33374" lon="5.6386">
        <ele>781.1</ele>
        <time>2018-07-14T07:13:26Z</time>
      </trkpt>
      <trkpt lat="45.33367" lon="5.63872">
        <ele>781.2</ele>
        <time>2018-07-14T07:13:29Z</time>
      </trkpt>
      <trkpt lat="45.33361" lon="5.63883">
        <ele>781.1</ele>
        <time>2018-07-14T07:13:32Z</time>
      </trkpt>
      <trkpt lat="45.33354" lon="5.63892">
        <ele>781</ele>
        <time>2018-07-14T07:13:35Z</time>
      </trkpt>
      <trkpt lat="45.33346" lon="5.63904">
        <ele>781.1</ele>
        <time>2018-07-14T07:13:39Z</time>
      </trkpt>
      <trkpt lat="45.33339" lon="5.63915">
        <ele>781.7</ele>
        <time>2018-07-14T07:13:43Z</time>
      </trkpt>
      <trkpt lat="45.33333" lon="5.63926">
        <ele>782</ele>
        <time>2018-07-14T07:13:46Z</time>
      </trkpt>
      <trkpt lat="45.33325" lon="5.63937">
        <ele>782.2</ele>
        <time>2018-07-14T07:13:50Z</time>
      </trkpt>
      <trkpt lat="45.33317" lon="5.63949">
        <ele>782</ele>
        <time>2018-07-14T07:13:54Z</time>
      </trkpt>
      <trkpt lat="45.3331" lon="5.63959">
        <ele>782</ele>
        <time>2018-07-14T07:13:57Z</time>
      </trkpt>
      <trkpt lat="45.33303" lon="5.63969">
        <ele>782.1</ele>
        <time>2018-07-14T07:14:00Z</time>
      </trkpt>
      <trkpt lat="45.33296" lon="5.63979">
        <ele>782.3</ele>
        <time>2018-07-14T07:14:03Z</time>
      </trkpt>
      <trkpt lat="45.33289" lon="5.6399">
        <ele>782.5</ele>
        <time>2018-07-14T07:14:06Z</time>
      </trkpt>
      <trkpt lat="45.33283" lon="5.64001">
        <ele>782.6</ele>
        <time>2018-07-14T07:14:09Z</time>
      </trkpt>
      <trkpt lat="45.33277" lon="5.64011">
        <ele>782.8</ele>
        <time>2018-07-14T07:14:12Z</time>
      </trkpt>
      <trkpt lat="45.33271" lon="5.64021">
        <ele>783</ele>
        <time>2018-07-14T07:14:15Z</time>
      </trkpt>
      <trkpt lat="45.33265" lon="5.64031">
        <ele>783.2</ele>
        <time>2018-07-14T07:14:18Z</time>
      </trkpt>
      <trkpt lat="45.33256" lon="5.64042">
        <ele>783.6</ele>
        <time>2018-07-14T07:14:22Z</time>
      </trkpt>
      <trkpt lat="45.33247" lon="5.64053">
        <ele>784.1</ele>
        <time>2018-07-14T07:14:26Z</time>
      </trkpt>
      <trkpt lat="45.33241" lon="5.64063">
        <ele>784.3</ele>
        <time>2018-07-14T07:14:29Z</time>
      </trkpt>
      <trkpt lat="45.33232" lon="5.64074">
        <ele>784.4</ele>
        <time>2018-07-14T07:14:33Z</time>
      </trkpt>
      <trkpt lat="45.33224" lon="5.64086">
        <ele>784.4</ele>
        <time>2018-07-14T07:14:37Z</time>
      </trkpt>
      <trkpt lat="45.33216" lon="5.64097">
        <ele>784.4</ele>
        <time>2018-07-14T07:14:41Z</time>
      </trkpt>
      <trkpt lat="45.33209" lon="5.64106">
        <ele>784.5</ele>
        <time>2018-07-14T07:14:45Z</time>
      </trkpt>
      <trkpt lat="45.33201" lon="5.64115">
        <ele>784.8</ele>
        <time>2018-07-14T07:14:49Z</time>
      </trkpt>
      <trkpt lat="45.33192" lon="5.64125">
        <ele>785.1</ele>
        <time>2018-07-14T07:14:53Z</time>
      </trkpt>
      <trkpt lat="45.33184" lon="5.64134">
        <ele>785.4</ele>
        <time>2018-07-14T07:14:57Z</time>
      </trkpt>
      <trkpt lat="45.33176" lon="5.64144">
        <ele>785.9</ele>
        <time>2018-07-14T07:15:01Z</time>
      </trkpt>
      <trkpt lat="45.33168" lon="5.64154">
        <ele>786.1</ele>
        <time>2018-07-14T07:15:04Z</time>
      </trkpt>
      <trkpt lat="45.3316" lon="5.64166">
        <ele>786.4</ele>
        <time>2018-07-14T07:15:08Z</time>
      </trkpt>
      <trkpt lat="45.33152" lon="5.64175">
        <ele>786.6</ele>
        <time>2018-07-14T07:15:12Z</time>
      </trkpt>
      <trkpt lat="45.33144" lon="5.64183">
        <ele>787.2</ele>
        <time>2018-07-14T07:15:16Z</time>
      </trkpt>
      <trkpt lat="45.33136" lon="5.64189">
        <ele>787.6</ele>
        <time>2018-07-14T07:15:20Z</time>
      </trkpt>
      <trkpt lat="45.33126" lon="5.64197">
        <ele>787.7</ele>
        <time>2018-07-14T07:15:24Z</time>
      </trkpt>
      <trkpt lat="45.33116" lon="5.64205">
        <ele>787.7</ele>
        <time>2018-07-14T07:15:28Z</time>
      </trkpt>
      <trkpt lat="45.33108" lon="5.64212">
        <ele>787.7</ele>
        <time>2018-07-14T07:15:31Z</time>
      </trkpt>
      <trkpt lat="45.33099" lon="5.64221">
        <ele>787.9</ele>
        <time>2018-07-14T07:15:35Z</time>
      </trkpt>
      <trkpt lat="45.33089" lon="5.64228">
        <ele>788.5</ele>
        <time>2018-07-14T07:15:39Z</time>
      </trkpt>
      <trkpt lat="45.33079" lon="5.64234">
        <ele>788.8</ele>
        <time>2018-07-14T07:15:43Z</time>
      </trkpt>
      <trkpt lat="45.33069" lon="5.64241">
        <ele>788.9</ele>
        <time>2018-07-14T07:15:47Z</time>
      </trkpt>
      <trkpt lat="45.33059" lon="5.64249">
        <ele>789.6</ele>
        <time>2018-07-14T07:15:51Z</time>
      </trkpt>
      <trkpt lat="45.33049" lon="5.64255">
        <ele>790</ele>
        <time>2018-07-14T07:15:55Z</time>
      </trkpt>
      <trkpt lat="45.3304" lon="5.64261">
        <ele>790.1</ele>
        <time>2018-07-14T07:15:59Z</time>
      </trkpt>
      <trkpt lat="45.3303" lon="5.64267">
        <ele>790</ele>
        <time>2018-07-14T07:16:03Z</time>
      </trkpt>
      <trkpt lat="45.3302" lon="5.64273">
        <ele>789.9</ele>
        <time>2018-07-14T07:16:07Z</time>
      </trkpt>
      <trkpt lat="45.33012" lon="5.64279">
        <ele>790</ele>
        <time>2018-07-14T07:16:10Z</time>
      </trkpt>
      <trkpt lat="45.33003" lon="5.64288">
        <ele>790.5</ele>
        <time>2018-07-14T07:16:14Z</time>
      </trkpt>
      <trkpt lat="45.32993" lon="5.64297">
        <ele>790.7</ele>
        <time>2018-07-14T07:16:18Z</time>
      </trkpt>
      <trkpt lat="45.32984" lon="5.64304">
        <ele>791</ele>
        <time>2018-07-14T07:16:22Z</time>
      </trkpt>
      <trkpt lat="45.32976" lon="5.64312">
        <ele>791.3</ele>
        <time>2018-07-14T07:16:26Z</time>
      </trkpt>
      <trkpt lat="45.32967" lon="5.6432">
        <ele>791.9</ele>
        <time>2018-07-14T07:16:31Z</time>
      </trkpt>
      <trkpt lat="45.32958" lon="5.64322">
        <ele>792.8</ele>
        <time>2018-07-14T07:16:37Z</time>
      </trkpt>
      <trkpt lat="45.32952" lon="5.64311">
        <ele>793.7</ele>
        <time>2018-07-14T07:16:44Z</time>
      </trkpt>
      <trkpt lat="45.32944" lon="5.64301">
        <ele>794.8</ele>
        <time>2018-07-14T07:16:50Z</time>
      </trkpt>
      <trkpt lat="45.32934" lon="5.643">
        <ele>795.9</ele>
        <time>2018-07-14T07:16:59Z</time>
      </trkpt>
      <trkpt lat="45.32925" lon="5.64295">
        <ele>796.8</ele>
        <time>2018-07-14T07:17:06Z</time>
      </trkpt>
      <trkpt lat="45.32917" lon="5.64288">
        <ele>797.6</ele>
        <time>2018-07-14T07:17:12Z</time>
      </trkpt>
      <trkpt lat="45.3291" lon="5.64281">
        <ele>799.4</ele>
        <time>2018-07-14T07:17:19Z</time>
      </trkpt>
      <trkpt lat="45.32902" lon="5.64273">
        <ele>800.8</ele>
        <time>2018-07-14T07:17:26Z</time>
      </trkpt>
      <trkpt lat="45.32895" lon="5.64265">
        <ele>803.1</ele>
        <time>2018-07-14T07:17:40Z</time>
      </trkpt>
      <trkpt lat="45.32889" lon="5.64255">
        <ele>805.2</ele>
        <time>2018-07-14T07:17:57Z</time>
      </trkpt>
      <trkpt lat="45.32883" lon="5.64245">
        <ele>804.9</ele>
        <time>2018-07-14T07:18:31Z</time>
      </trkpt>
      <trkpt lat="45.3288" lon="5.64233">
        <ele>807.1</ele>
        <time>2018-07-14T07:18:47Z</time>
      </trkpt>
      <trkpt lat="45.32884" lon="5.64221">
        <ele>808.9</ele>
        <time>2018-07-14T07:19:00Z</time>
      </trkpt>
      <trkpt lat="45.32888" lon="5.6421">
        <ele>810.6</ele>
        <time>2018-07-14T07:19:13Z</time>
      </trkpt>
      <trkpt lat="45.32891" lon="5.64197">
        <ele>813.1</ele>
        <time>2018-07-14T07:19:32Z</time>
      </trkpt>
      <trkpt lat="45.329" lon="5.6419">
        <ele>814.1</ele>
        <time>2018-07-14T07:19:48Z</time>
      </trkpt>
      <trkpt lat="45.32908" lon="5.64184">
        <ele>814.8</ele>
        <time>2018-07-14T07:19:57Z</time>
      </trkpt>
      <trkpt lat="45.32917" lon="5.64177">
        <ele>815.2</ele>
        <time>2018-07-14T07:20:05Z</time>
      </trkpt>
      <trkpt lat="45.32926" lon="5.64174">
        <ele>816</ele>
        <time>2018-07-14T07:20:12Z</time>
      </trkpt>
      <trkpt lat="45.32935" lon="5.64169">
        <ele>816.3</ele>
        <time>2018-07-14T07:20:17Z</time>
      </trkpt>
      <trkpt lat="45.32942" lon="5.6416">
        <ele>816.5</ele>
        <time>2018-07-14T07:20:22Z</time>
      </trkpt>
      <trkpt lat="45.32942" lon="5.64147">
        <ele>817.4</ele>
        <time>2018-07-14T07:20:30Z</time>
      </trkpt>
      <trkpt lat="45.32942" lon="5.64134">
        <ele>819</ele>
        <time>2018-07-14T07:20:39Z</time>
      </trkpt>
      <trkpt lat="45.3294" lon="5.64121">
        <ele>820.9</ele>
        <time>2018-07-14T07:20:49Z</time>
      </trkpt>
      <trkpt lat="45.3294" lon="5.64107">
        <ele>822.7</ele>
        <time>2018-07-14T07:20:58Z</time>
      </trkpt>
      <trkpt lat="45.32942" lon="5.64093">
        <ele>824.5</ele>
        <time>2018-07-14T07:21:06Z</time>
      </trkpt>
      <trkpt lat="45.32949" lon="5.64084">
        <ele>825.9</ele>
        <time>2018-07-14T07:21:14Z</time>
      </trkpt>
      <trkpt lat="45.32958" lon="5.64079">
        <ele>827</ele>
        <time>2018-07-14T07:21:23Z</time>
      </trkpt>
      <trkpt lat="45.32966" lon="5.64072">
        <ele>827.3</ele>
        <time>2018-07-14T07:21:31Z</time>
      </trkpt>
      <trkpt lat="45.32975" lon="5.64066">
        <ele>827.7</ele>
        <time>2018-07-14T07:21:37Z</time>
      </trkpt>
      <trkpt lat="45.32984" lon="5.64058">
        <ele>828.2</ele>
        <time>2018-07-14T07:21:44Z</time>
      </trkpt>
      <trkpt lat="45.32992" lon="5.6405">
        <ele>828.3</ele>
        <time>2018-07-14T07:21:50Z</time>
      </trkpt>
      <trkpt lat="45.33" lon="5.64043">
        <ele>828.3</ele>
        <time>2018-07-14T07:21:55Z</time>
      </trkpt>
      <trkpt lat="45.33007" lon="5.64034">
        <ele>828.5</ele>
        <time>2018-07-14T07:22:00Z</time>
      </trkpt>
      <trkpt lat="45.33012" lon="5.64023">
        <ele>828.5</ele>
        <time>2018-07-14T07:22:05Z</time>
      </trkpt>
      <trkpt lat="45.33018" lon="5.64012">
        <ele>828.7</ele>
        <time>2018-07-14T07:22:11Z</time>
      </trkpt>
      <trkpt lat="45.33022" lon="5.64">
        <ele>829.1</ele>
        <time>2018-07-14T07:22:16Z</time>
      </trkpt>
      <trkpt lat="45.33024" lon="5.63988">
        <ele>829.3</ele>
        <time>2018-07-14T07:22:20Z</time>
      </trkpt>
      <trkpt lat="45.33027" lon="5.63974">
        <ele>829.4</ele>
        <time>2018-07-14T07:22:26Z</time>
      </trkpt>
      <trkpt lat="45.33026" lon="5.63959">
        <ele>829.4</ele>
        <time>2018-07-14T07:22:31Z</time>
      </trkpt>
      <trkpt lat="45.33017" lon="5.63954">
        <ele>830.9</ele>
        <time>2018-07-14T07:22:40Z</time>
      </trkpt>
      <trkpt lat="45.33008" lon="5.6395">
        <ele>831.9</ele>
        <time>2018-07-14T07:22:47Z</time>
      </trkpt>
      <trkpt lat="45.32999" lon="5.63945">
        <ele>834</ele>
        <time>2018-07-14T07:22:54Z</time>
      </trkpt>
      <trkpt lat="45.32991" lon="5.63939">
        <ele>835.9</ele>
        <time>2018-07-14T07:23:01Z</time>
      </trkpt>
      <trkpt lat="45.32985" lon="5.63927">
        <ele>836.1</ele>
        <time>2018-07-14T07:25:32Z</time>
      </trkpt>
      <trkpt lat="45.32983" lon="5.63914">
        <ele>836.2</ele>
        <time>2018-07-14T07:25:38Z</time>
      </trkpt>
      <trkpt lat="45.3298" lon="5.63899">
        <ele>835.8</ele>
        <time>2018-07-14T07:25:42Z</time>
      </trkpt>
      <trkpt lat="45.32976" lon="5.6388">
        <ele>835.3</ele>
        <time>2018-07-14T07:25:45Z</time>
      </trkpt>
      <trkpt lat="45.32972" lon="5.63866">
        <ele>834.9</ele>
        <time>2018-07-14T07:25:47Z</time>
      </trkpt>
      <trkpt lat="45.32969" lon="5.63852">
        <ele>834.6</ele>
        <time>2018-07-14T07:25:49Z</time>
      </trkpt>
      <trkpt lat="45.32967" lon="5.63837">
        <ele>834.1</ele>
        <time>2018-07-14T07:25:51Z</time>
      </trkpt>
      <trkpt lat="45.32964" lon="5.63824">
        <ele>833.7</ele>
        <time>2018-07-14T07:25:53Z</time>
      </trkpt>
      <trkpt lat="45.32961" lon="5.63806">
        <ele>833.5</ele>
        <time>2018-07-14T07:25:56Z</time>
      </trkpt>
      <trkpt lat="45.32959" lon="5.6379">
        <ele>833.4</ele>
        <time>2018-07-14T07:25:59Z</time>
      </trkpt>
      <trkpt lat="45.32956" lon="5.63776">
        <ele>833.2</ele>
        <time>2018-07-14T07:26:02Z</time>
      </trkpt>
      <trkpt lat="45.32953" lon="5.6376">
        <ele>833</ele>
        <time>2018-07-14T07:26:06Z</time>
      </trkpt>
      <trkpt lat="45.32951" lon="5.63746">
        <ele>832.9</ele>
        <time>2018-07-14T07:26:11Z</time>
      </trkpt>
      <trkpt lat="45.32945" lon="5.63736">
        <ele>833.3</ele>
        <time>2018-07-14T07:26:16Z</time>
      </trkpt>
      <trkpt lat="45.32939" lon="5.63725">
        <ele>833.5</ele>
        <time>2018-07-14T07:26:20Z</time>
      </trkpt>
      <trkpt lat="45.32931" lon="5.63715">
        <ele>833.7</ele>
        <time>2018-07-14T07:26:24Z</time>
      </trkpt>
      <trkpt lat="45.32923" lon="5.63704">
        <ele>833.8</ele>
        <time>2018-07-14T07:26:28Z</time>
      </trkpt>
      <trkpt lat="45.32914" lon="5.63692">
        <ele>833.4</ele>
        <time>2018-07-14T07:26:32Z</time>
      </trkpt>
      <trkpt lat="45.32904" lon="5.63685">
        <ele>833.1</ele>
        <time>2018-07-14T07:26:35Z</time>
      </trkpt>
      <trkpt lat="45.32894" lon="5.63681">
        <ele>832.8</ele>
        <time>2018-07-14T07:26:38Z</time>
      </trkpt>
      <trkpt lat="45.32883" lon="5.63677">
        <ele>832.7</ele>
        <time>2018-07-14T07:26:41Z</time>
      </trkpt>
      <trkpt lat="45.3287" lon="5.63674">
        <ele>832.5</ele>
        <time>2018-07-14T07:26:44Z</time>
      </trkpt>
      <trkpt lat="45.32861" lon="5.63671">
        <ele>832.3</ele>
        <time>2018-07-14T07:26:46Z</time>
      </trkpt>
      <trkpt lat="45.32848" lon="5.63666">
        <ele>831.9</ele>
        <time>2018-07-14T07:26:49Z</time>
      </trkpt>
      <trkpt lat="45.32837" lon="5.63659">
        <ele>831.1</ele>
        <time>2018-07-14T07:26:52Z</time>
      </trkpt>
      <trkpt lat="45.32829" lon="5.63652">
        <ele>830.6</ele>
        <time>2018-07-14T07:26:55Z</time>
      </trkpt>
      <trkpt lat="45.3282" lon="5.63642">
        <ele>830.4</ele>
        <time>2018-07-14T07:26:58Z</time>
      </trkpt>
      <trkpt lat="45.3281" lon="5.63633">
        <ele>830.2</ele>
        <time>2018-07-14T07:27:02Z</time>
      </trkpt>
      <trkpt lat="45.328" lon="5.63626">
        <ele>830.1</ele>
        <time>2018-07-14T07:27:06Z</time>
      </trkpt>
      <trkpt lat="45.32791" lon="5.63623">
        <ele>830</ele>
        <time>2018-07-14T07:27:10Z</time>
      </trkpt>
      <trkpt lat="45.32783" lon="5.63616">
        <ele>830.5</ele>
        <time>2018-07-14T07:27:15Z</time>
      </trkpt>
      <trkpt lat="45.32773" lon="5.63611">
        <ele>831</ele>
        <time>2018-07-14T07:27:19Z</time>
      </trkpt>
      <trkpt lat="45.32763" lon="5.6361">
        <ele>832.5</ele>
        <time>2018-07-14T07:27:25Z</time>
      </trkpt>
      <trkpt lat="45.32754" lon="5.63608">
        <ele>834.2</ele>
        <time>2018-07-14T07:27:32Z</time>
      </trkpt>
      <trkpt lat="45.32748" lon="5.63598">
        <ele>835.6</ele>
        <time>2018-07-14T07:27:38Z</time>
      </trkpt>
      <trkpt lat="45.32756" lon="5.63587">
        <ele>835.8</ele>
        <time>2018-07-14T07:27:43Z</time>
      </trkpt>
      <trkpt lat="45.32748" lon="5.63595">
        <ele>834.4</ele>
        <time>2018-07-14T07:29:32Z</time>
      </trkpt>
      <trkpt lat="45.32739" lon="5.63602">
        <ele>834.7</ele>
        <time>2018-07-14T07:29:38Z</time>
      </trkpt>
      <trkpt lat="45.3273" lon="5.63603">
        <ele>834.9</ele>
        <time>2018-07-14T07:29:44Z</time>
      </trkpt>
      <trkpt lat="45.32721" lon="5.63607">
        <ele>835.6</ele>
        <time>2018-07-14T07:29:50Z</time>
      </trkpt>
      <trkpt lat="45.32713" lon="5.63615">
        <ele>836.1</ele>
        <time>2018-07-14T07:29:56Z</time>
      </trkpt>
      <trkpt lat="45.32703" lon="5.63623">
        <ele>837.2</ele>
        <time>2018-07-14T07:30:02Z</time>
      </trkpt>
      <trkpt lat="45.32697" lon="5.63637">
        <ele>837.3</ele>
        <time>2018-07-14T07:30:06Z</time>
      </trkpt>
      <trkpt lat="45.32692" lon="5.6365">
        <ele>837.1</ele>
        <time>2018-07-14T07:30:09Z</time>
      </trkpt>
      <trkpt lat="45.32687" lon="5.6366">
        <ele>836.9</ele>
        <time>2018-07-14T07:30:11Z</time>
      </trkpt>
      <trkpt lat="45.32678" lon="5.63668">
        <ele>836.6</ele>
        <time>2018-07-14T07:30:13Z</time>
      </trkpt>
      <trkpt lat="45.3267" lon="5.63674">
        <ele>836.2</ele>
        <time>2018-07-14T07:30:15Z</time>
      </trkpt>
      <trkpt lat="45.32658" lon="5.63678">
        <ele>835.9</ele>
        <time>2018-07-14T07:30:18Z</time>
      </trkpt>
      <trkpt lat="45.32647" lon="5.63679">
        <ele>835.7</ele>
        <time>2018-07-14T07:30:21Z</time>
      </trkpt>
      <trkpt lat="45.32637" lon="5.63678">
        <ele>835.7</ele>
        <time>2018-07-14T07:30:25Z</time>
      </trkpt>
      <trkpt lat="45.32626" lon="5.63677">
        <ele>836.1</ele>
        <time>2018-07-14T07:30:30Z</time>
      </trkpt>
      <trkpt lat="45.32617" lon="5.63677">
        <ele>836.8</ele>
        <time>2018-07-14T07:30:35Z</time>
      </trkpt>
      <trkpt lat="45.32607" lon="5.63679">
        <ele>837.5</ele>
        <time>2018-07-14T07:30:41Z</time>
      </trkpt>
      <trkpt lat="45.32596" lon="5.63683">
        <ele>837.9</ele>
        <time>2018-07-14T07:30:46Z</time>
      </trkpt>
      <trkpt lat="45.32585" lon="5.63688">
        <ele>837.9</ele>
        <time>2018-07-14T07:30:50Z</time>
      </trkpt>
      <trkpt lat="45.32574" lon="5.63691">
        <ele>837.8</ele>
        <time>2018-07-14T07:30:53Z</time>
      </trkpt>
      <trkpt lat="45.32562" lon="5.63699">
        <ele>837.8</ele>
        <time>2018-07-14T07:30:56Z</time>
      </trkpt>
      <trkpt lat="45.32553" lon="5.63704">
        <ele>837.1</ele>
        <time>2018-07-14T07:30:58Z</time>
      </trkpt>
      <trkpt lat="45.32544" lon="5.63705">
        <ele>836.6</ele>
        <time>2018-07-14T07:31:00Z</time>
      </trkpt>
      <trkpt lat="45.32535" lon="5.63704">
        <ele>836</ele>
        <time>2018-07-14T07:31:02Z</time>
      </trkpt>
      <trkpt lat="45.32525" lon="5.63702">
        <ele>835.2</ele>
        <time>2018-07-14T07:31:06Z</time>
      </trkpt>
      <trkpt lat="45.32517" lon="5.63694">
        <ele>835.4</ele>
        <time>2018-07-14T07:31:11Z</time>
      </trkpt>
      <trkpt lat="45.32511" lon="5.63683">
        <ele>835.5</ele>
        <time>2018-07-14T07:31:16Z</time>
      </trkpt>
      <trkpt lat="45.32501" lon="5.63675">
        <ele>835.5</ele>
        <time>2018-07-14T07:31:21Z</time>
      </trkpt>
      <trkpt lat="45.32491" lon="5.63675">
        <ele>835.8</ele>
        <time>2018-07-14T07:31:26Z</time>
      </trkpt>
      <trkpt lat="45.32481" lon="5.63677">
        <ele>836.8</ele>
        <time>2018-07-14T07:31:32Z</time>
      </trkpt>
      <trkpt lat="45.32471" lon="5.63677">
        <ele>837.2</ele>
        <time>2018-07-14T07:31:37Z</time>
      </trkpt>
      <trkpt lat="45.32461" lon="5.63675">
        <ele>838.3</ele>
        <time>2018-07-14T07:31:42Z</time>
      </trkpt>
      <trkpt lat="45.32452" lon="5.6367">
        <ele>840.1</ele>
        <time>2018-07-14T07:31:48Z</time>
      </trkpt>
      <trkpt lat="45.32442" lon="5.63666">
        <ele>841.6</ele>
        <time>2018-07-14T07:31:55Z</time>
      </trkpt>
      <trkpt lat="45.32433" lon="5.63666">
        <ele>842.9</ele>
        <time>2018-07-14T07:32:03Z</time>
      </trkpt>
      <trkpt lat="45.32426" lon="5.63674">
        <ele>845.1</ele>
        <time>2018-07-14T07:32:14Z</time>
      </trkpt>
      <trkpt lat="45.32419" lon="5.63682">
        <ele>847.4</ele>
        <time>2018-07-14T07:32:28Z</time>
      </trkpt>
      <trkpt lat="45.3241" lon="5.6368">
        <ele>849</ele>
        <time>2018-07-14T07:32:53Z</time>
      </trkpt>
      <trkpt lat="45.32401" lon="5.63678">
        <ele>849.7</ele>
        <time>2018-07-14T07:33:07Z</time>
      </trkpt>
      <trkpt lat="45.32391" lon="5.63676">
        <ele>852.3</ele>
        <time>2018-07-14T07:33:34Z</time>
      </trkpt>
      <trkpt lat="45.32382" lon="5.6368">
        <ele>855.7</ele>
        <time>2018-07-14T07:33:58Z</time>
      </trkpt>
      <trkpt lat="45.32373" lon="5.6368">
        <ele>857.3</ele>
        <time>2018-07-14T07:34:09Z</time>
      </trkpt>
      <trkpt lat="45.32364" lon="5.63678">
        <ele>858.4</ele>
        <time>2018-07-14T07:34:25Z</time>
      </trkpt>
      <trkpt lat="45.32368" lon="5.63667">
        <ele>859.9</ele>
        <time>2018-07-14T07:34:53Z</time>
      </trkpt>
      <trkpt lat="45.32358" lon="5.63667">
        <ele>859.2</ele>
        <time>2018-07-14T07:35:23Z</time>
      </trkpt>
      <trkpt lat="45.32351" lon="5.63675">
        <ele>859.8</ele>
        <time>2018-07-14T07:35:30Z</time>
      </trkpt>
      <trkpt lat="45.32341" lon="5.63676">
        <ele>861</ele>
        <time>2018-07-14T07:35:37Z</time>
      </trkpt>
      <trkpt lat="45.32331" lon="5.63674">
        <ele>862</ele>
        <time>2018-07-14T07:35:43Z</time>
      </trkpt>
      <trkpt lat="45.32322" lon="5.63675">
        <ele>862.5</ele>
        <time>2018-07-14T07:35:50Z</time>
      </trkpt>
      <trkpt lat="45.32313" lon="5.63678">
        <ele>862.9</ele>
        <time>2018-07-14T07:35:57Z</time>
      </trkpt>
      <trkpt lat="45.32305" lon="5.63686">
        <ele>863.9</ele>
        <time>2018-07-14T07:36:05Z</time>
      </trkpt>
      <trkpt lat="45.32298" lon="5.63694">
        <ele>864.6</ele>
        <time>2018-07-14T07:36:10Z</time>
      </trkpt>
      <trkpt lat="45.32291" lon="5.63703">
        <ele>865.7</ele>
        <time>2018-07-14T07:36:17Z</time>
      </trkpt>
      <trkpt lat="45.32283" lon="5.63711">
        <ele>866.7</ele>
        <time>2018-07-14T07:36:24Z</time>
      </trkpt>
      <trkpt lat="45.32275" lon="5.63719">
        <ele>867.7</ele>
        <time>2018-07-14T07:36:32Z</time>
      </trkpt>
      <trkpt lat="45.32268" lon="5.63728">
        <ele>868.8</ele>
        <time>2018-07-14T07:36:41Z</time>
      </trkpt>
      <trkpt lat="45.32263" lon="5.63741">
        <ele>870.1</ele>
        <time>2018-07-14T07:36:52Z</time>
      </trkpt>
      <trkpt lat="45.32256" lon="5.63752">
        <ele>870.4</ele>
        <time>2018-07-14T07:37:00Z</time>
      </trkpt>
      <trkpt lat="45.32252" lon="5.63763">
        <ele>871.1</ele>
        <time>2018-07-14T07:37:07Z</time>
      </trkpt>
      <trkpt lat="45.32248" lon="5.63776">
        <ele>871.5</ele>
        <time>2018-07-14T07:37:13Z</time>
      </trkpt>
      <trkpt lat="45.32246" lon="5.6379">
        <ele>872.3</ele>
        <time>2018-07-14T07:37:20Z</time>
      </trkpt>
      <trkpt lat="45.3224" lon="5.638">
        <ele>873</ele>
        <time>2018-07-14T07:37:27Z</time>
      </trkpt>
      <trkpt lat="45.32233" lon="5.63808">
        <ele>873.4</ele>
        <time>2018-07-14T07:37:32Z</time>
      </trkpt>
      <trkpt lat="45.32223" lon="5.63811">
        <ele>873.8</ele>
        <time>2018-07-14T07:37:39Z</time>
      </trkpt>
      <trkpt lat="45.32213" lon="5.63815">
        <ele>874.2</ele>
        <time>2018-07-14T07:37:46Z</time>
      </trkpt>
      <trkpt lat="45.32204" lon="5.63822">
        <ele>874.5</ele>
        <time>2018-07-14T07:37:50Z</time>
      </trkpt>
      <trkpt lat="45.32195" lon="5.63831">
        <ele>874.8</ele>
        <time>2018-07-14T07:37:55Z</time>
      </trkpt>
      <trkpt lat="45.32188" lon="5.63841">
        <ele>875</ele>
        <time>2018-07-14T07:38:01Z</time>
      </trkpt>
      <trkpt lat="45.32181" lon="5.6385">
        <ele>875.3</ele>
        <time>2018-07-14T07:38:07Z</time>
      </trkpt>
      <trkpt lat="45.32175" lon="5.6386">
        <ele>876</ele>
        <time>2018-07-14T07:38:12Z</time>
      </trkpt>
      <trkpt lat="45.32169" lon="5.6387">
        <ele>877</ele>
        <time>2018-07-14T07:38:17Z</time>
      </trkpt>
      <trkpt lat="45.32162" lon="5.63882">
        <ele>877.4</ele>
        <time>2018-07-14T07:38:22Z</time>
      </trkpt>
      <trkpt lat="45.32156" lon="5.63894">
        <ele>877.3</ele>
        <time>2018-07-14T07:38:25Z</time>
      </trkpt>
      <trkpt lat="45.3215" lon="5.63906">
        <ele>876.9</ele>
        <time>2018-07-14T07:38:27Z</time>
      </trkpt>
      <trkpt lat="45.32142" lon="5.63918">
        <ele>876.4</ele>
        <time>2018-07-14T07:38:29Z</time>
      </trkpt>
      <trkpt lat="45.32136" lon="5.63929">
        <ele>876</ele>
        <time>2018-07-14T07:38:31Z</time>
      </trkpt>
      <trkpt lat="45.32135" lon="5.63946">
        <ele>873.6</ele>
        <time>2018-07-14T07:38:34Z</time>
      </trkpt>
      <trkpt lat="45.32129" lon="5.63961">
        <ele>871.3</ele>
        <time>2018-07-14T07:38:37Z</time>
      </trkpt>
      <trkpt lat="45.32127" lon="5.63974">
        <ele>868.3</ele>
        <time>2018-07-14T07:38:41Z</time>
      </trkpt>
      <trkpt lat="45.32127" lon="5.63987">
        <ele>863.8</ele>
        <time>2018-07-14T07:38:55Z</time>
      </trkpt>
      <trkpt lat="45.3213" lon="5.64">
        <ele>863.2</ele>
        <time>2018-07-14T07:39:00Z</time>
      </trkpt>
      <trkpt lat="45.32133" lon="5.64016">
        <ele>862.7</ele>
        <time>2018-07-14T07:39:03Z</time>
      </trkpt>
      <trkpt lat="45.32136" lon="5.64029">
        <ele>862.5</ele>
        <time>2018-07-14T07:39:05Z</time>
      </trkpt>
      <trkpt lat="45.32141" lon="5.64045">
        <ele>861.7</ele>
        <time>2018-07-14T07:39:08Z</time>
      </trkpt>
      <trkpt lat="45.32143" lon="5.64059">
        <ele>860.9</ele>
        <time>2018-07-14T07:39:12Z</time>
      </trkpt>
      <trkpt lat="45.32148" lon="5.64069">
        <ele>860.5</ele>
        <time>2018-07-14T07:39:17Z</time>
      </trkpt>
      <trkpt lat="45.32156" lon="5.64078">
        <ele>860.4</ele>
        <time>2018-07-14T07:39:21Z</time>
      </trkpt>
      <trkpt lat="45.32167" lon="5.64089">
        <ele>860.3</ele>
        <time>2018-07-14T07:39:24Z</time>
      </trkpt>
      <trkpt lat="45.32174" lon="5.64097">
        <ele>859.9</ele>
        <time>2018-07-14T07:39:26Z</time>
      </trkpt>
      <trkpt lat="45.32186" lon="5.64106">
        <ele>859</ele>
        <time>2018-07-14T07:39:29Z</time>
      </trkpt>
      <trkpt lat="45.32196" lon="5.64114">
        <ele>858.5</ele>
        <time>2018-07-14T07:39:32Z</time>
      </trkpt>
      <trkpt lat="45.32203" lon="5.64122">
        <ele>858.3</ele>
        <time>2018-07-14T07:39:34Z</time>
      </trkpt>
      <trkpt lat="45.32212" lon="5.6413">
        <ele>858</ele>
        <time>2018-07-14T07:39:36Z</time>
      </trkpt>
      <trkpt lat="45.32221" lon="5.6414">
        <ele>857.6</ele>
        <time>2018-07-14T07:39:39Z</time>
      </trkpt>
      <trkpt lat="45.32227" lon="5.64153">
        <ele>857.4</ele>
        <time>2018-07-14T07:39:42Z</time>
      </trkpt>
      <trkpt lat="45.32237" lon="5.64167">
        <ele>857.2</ele>
        <time>2018-07-14T07:39:45Z</time>
      </trkpt>
      <trkpt lat="45.32244" lon="5.64177">
        <ele>856.9</ele>
        <time>2018-07-14T07:39:47Z</time>
      </trkpt>
      <trkpt lat="45.32255" lon="5.64187">
        <ele>856.6</ele>
        <time>2018-07-14T07:39:50Z</time>
      </trkpt>
      <trkpt lat="45.32262" lon="5.64195">
        <ele>856.4</ele>
        <time>2018-07-14T07:39:52Z</time>
      </trkpt>
      <trkpt lat="45.32269" lon="5.64203">
        <ele>856.3</ele>
        <time>2018-07-14T07:39:54Z</time>
      </trkpt>
      <trkpt lat="45.3228" lon="5.64213">
        <ele>855.5</ele>
        <time>2018-07-14T07:39:57Z</time>
      </trkpt>
      <trkpt lat="45.3229" lon="5.64222">
        <ele>854.8</ele>
        <time>2018-07-14T07:40:00Z</time>
      </trkpt>
      <trkpt lat="45.32299" lon="5.64236">
        <ele>854.4</ele>
        <time>2018-07-14T07:40:03Z</time>
      </trkpt>
      <trkpt lat="45.32305" lon="5.64248">
        <ele>854.2</ele>
        <time>2018-07-14T07:40:05Z</time>
      </trkpt>
      <trkpt lat="45.32317" lon="5.64255">
        <ele>853.9</ele>
        <time>2018-07-14T07:40:07Z</time>
      </trkpt>
      <trkpt lat="45.32329" lon="5.64261">
        <ele>853.2</ele>
        <time>2018-07-14T07:40:09Z</time>
      </trkpt>
      <trkpt lat="45.32337" lon="5.64273">
        <ele>851.7</ele>
        <time>2018-07-14T07:40:11Z</time>
      </trkpt>
      <trkpt lat="45.32346" lon="5.64285">
        <ele>850.1</ele>
        <time>2018-07-14T07:40:13Z</time>
      </trkpt>
      <trkpt lat="45.32353" lon="5.64298">
        <ele>848.6</ele>
        <time>2018-07-14T07:40:15Z</time>
      </trkpt>
      <trkpt lat="45.32358" lon="5.64309">
        <ele>846.9</ele>
        <time>2018-07-14T07:40:17Z</time>
      </trkpt>
      <trkpt lat="45.32367" lon="5.64324">
        <ele>845</ele>
        <time>2018-07-14T07:40:20Z</time>
      </trkpt>
      <trkpt lat="45.32379" lon="5.64331">
        <ele>843.6</ele>
        <time>2018-07-14T07:40:23Z</time>
      </trkpt>
      <trkpt lat="45.32387" lon="5.64337">
        <ele>842.5</ele>
        <time>2018-07-14T07:40:25Z</time>
      </trkpt>
      <trkpt lat="45.32396" lon="5.64344">
        <ele>841.4</ele>
        <time>2018-07-14T07:40:27Z</time>
      </trkpt>
      <trkpt lat="45.32408" lon="5.64353">
        <ele>839.3</ele>
        <time>2018-07-14T07:40:30Z</time>
      </trkpt>
      <trkpt lat="45.32418" lon="5.64359">
        <ele>837.8</ele>
        <time>2018-07-14T07:40:33Z</time>
      </trkpt>
      <trkpt lat="45.32427" lon="5.64363">
        <ele>836.1</ele>
        <time>2018-07-14T07:40:36Z</time>
      </trkpt>
      <trkpt lat="45.32437" lon="5.64371">
        <ele>833.7</ele>
        <time>2018-07-14T07:40:40Z</time>
      </trkpt>
      <trkpt lat="45.32445" lon="5.64378">
        <ele>831.7</ele>
        <time>2018-07-14T07:40:43Z</time>
      </trkpt>
      <trkpt lat="45.32454" lon="5.64384">
        <ele>830.5</ele>
        <time>2018-07-14T07:40:46Z</time>
      </trkpt>
      <trkpt lat="45.32463" lon="5.64389">
        <ele>828.3</ele>
        <time>2018-07-14T07:40:49Z</time>
      </trkpt>
      <trkpt lat="45.32473" lon="5.64397">
        <ele>825.7</ele>
        <time>2018-07-14T07:40:52Z</time>
      </trkpt>
      <trkpt lat="45.32483" lon="5.64403">
        <ele>824.5</ele>
        <time>2018-07-14T07:40:54Z</time>
      </trkpt>
      <trkpt lat="45.32494" lon="5.64403">
        <ele>823.2</ele>
        <time>2018-07-14T07:40:56Z</time>
      </trkpt>
      <trkpt lat="45.32505" lon="5.64403">
        <ele>821.2</ele>
        <time>2018-07-14T07:40:58Z</time>
      </trkpt>
      <trkpt lat="45.32517" lon="5.64403">
        <ele>819.6</ele>
        <time>2018-07-14T07:41:00Z</time>
      </trkpt>
      <trkpt lat="45.3253" lon="5.64405">
        <ele>817.8</ele>
        <time>2018-07-14T07:41:02Z</time>
      </trkpt>
      <trkpt lat="45.32543" lon="5.64406">
        <ele>816.6</ele>
        <time>2018-07-14T07:41:04Z</time>
      </trkpt>
      <trkpt lat="45.32559" lon="5.64407">
        <ele>815.2</ele>
        <time>2018-07-14T07:41:06Z</time>
      </trkpt>
      <trkpt lat="45.32577" lon="5.64407">
        <ele>813.3</ele>
        <time>2018-07-14T07:41:08Z</time>
      </trkpt>
      <trkpt lat="45.32591" lon="5.64414">
        <ele>811.9</ele>
        <time>2018-07-14T07:41:10Z</time>
      </trkpt>
      <trkpt lat="45.32603" lon="5.64424">
        <ele>810.3</ele>
        <time>2018-07-14T07:41:12Z</time>
      </trkpt>
      <trkpt lat="45.32616" lon="5.64436">
        <ele>808.7</ele>
        <time>2018-07-14T07:41:14Z</time>
      </trkpt>
      <trkpt lat="45.32627" lon="5.64452">
        <ele>807.3</ele>
        <time>2018-07-14T07:41:16Z</time>
      </trkpt>
      <trkpt lat="45.32635" lon="5.64468">
        <ele>805.7</ele>
        <time>2018-07-14T07:41:18Z</time>
      </trkpt>
      <trkpt lat="45.32645" lon="5.64483">
        <ele>803.8</ele>
        <time>2018-07-14T07:41:20Z</time>
      </trkpt>
      <trkpt lat="45.32657" lon="5.64494">
        <ele>802</ele>
        <time>2018-07-14T07:41:22Z</time>
      </trkpt>
      <trkpt lat="45.32665" lon="5.64503">
        <ele>800.4</ele>
        <time>2018-07-14T07:41:24Z</time>
      </trkpt>
      <trkpt lat="45.32674" lon="5.64502">
        <ele>792.4</ele>
        <time>2018-07-14T07:41:49Z</time>
      </trkpt>
      <trkpt lat="45.32683" lon="5.64499">
        <ele>791.6</ele>
        <time>2018-07-14T07:42:03Z</time>
      </trkpt>
      <trkpt lat="45.32692" lon="5.64504">
        <ele>791.4</ele>
        <time>2018-07-14T07:42:06Z</time>
      </trkpt>
      <trkpt lat="45.32701" lon="5.64507">
        <ele>790.9</ele>
        <time>2018-07-14T07:42:09Z</time>
      </trkpt>
      <trkpt lat="45.32712" lon="5.64509">
        <ele>790.5</ele>
        <time>2018-07-14T07:42:12Z</time>
      </trkpt>
      <trkpt lat="45.32721" lon="5.6451">
        <ele>790.4</ele>
        <time>2018-07-14T07:42:14Z</time>
      </trkpt>
      <trkpt lat="45.32733" lon="5.64506">
        <ele>790.1</ele>
        <time>2018-07-14T07:42:17Z</time>
      </trkpt>
      <trkpt lat="45.32745" lon="5.64502">
        <ele>789.8</ele>
        <time>2018-07-14T07:42:20Z</time>
      </trkpt>
      <trkpt lat="45.32755" lon="5.64499">
        <ele>789.6</ele>
        <time>2018-07-14T07:42:23Z</time>
      </trkpt>
      <trkpt lat="45.32766" lon="5.64491">
        <ele>789.3</ele>
        <time>2018-07-14T07:42:26Z</time>
      </trkpt>
      <trkpt lat="45.32775" lon="5.64481">
        <ele>789.2</ele>
        <time>2018-07-14T07:42:28Z</time>
      </trkpt>
      <trkpt lat="45.32782" lon="5.6447">
        <ele>789.1</ele>
        <time>2018-07-14T07:42:30Z</time>
      </trkpt>
      <trkpt lat="45.32792" lon="5.64462">
        <ele>788.9</ele>
        <time>2018-07-14T07:42:32Z</time>
      </trkpt>
      <trkpt lat="45.32801" lon="5.64455">
        <ele>788.5</ele>
        <time>2018-07-14T07:42:34Z</time>
      </trkpt>
      <trkpt lat="45.32809" lon="5.64449">
        <ele>788</ele>
        <time>2018-07-14T07:42:36Z</time>
      </trkpt>
      <trkpt lat="45.32816" lon="5.6444">
        <ele>787.5</ele>
        <time>2018-07-14T07:42:38Z</time>
      </trkpt>
      <trkpt lat="45.32825" lon="5.64432">
        <ele>786.8</ele>
        <time>2018-07-14T07:42:40Z</time>
      </trkpt>
      <trkpt lat="45.32835" lon="5.64424">
        <ele>786</ele>
        <time>2018-07-14T07:42:42Z</time>
      </trkpt>
      <trkpt lat="45.32845" lon="5.64427">
        <ele>785.2</ele>
        <time>2018-07-14T07:42:45Z</time>
      </trkpt>
      <trkpt lat="45.32851" lon="5.64439">
        <ele>783.9</ele>
        <time>2018-07-14T07:42:49Z</time>
      </trkpt>
      <trkpt lat="45.32856" lon="5.6445">
        <ele>783.8</ele>
        <time>2018-07-14T07:42:53Z</time>
      </trkpt>
      <trkpt lat="45.3286" lon="5.64462">
        <ele>783.9</ele>
        <time>2018-07-14T07:42:57Z</time>
      </trkpt>
      <trkpt lat="45.32864" lon="5.64475">
        <ele>783.9</ele>
        <time>2018-07-14T07:43:01Z</time>
      </trkpt>
      <trkpt lat="45.32868" lon="5.64487">
        <ele>783.9</ele>
        <time>2018-07-14T07:43:05Z</time>
      </trkpt>
      <trkpt lat="45.32874" lon="5.645">
        <ele>784.1</ele>
        <time>2018-07-14T07:43:09Z</time>
      </trkpt>
      <trkpt lat="45.32879" lon="5.64512">
        <ele>784</ele>
        <time>2018-07-14T07:43:12Z</time>
      </trkpt>
      <trkpt lat="45.32884" lon="5.64526">
        <ele>783.7</ele>
        <time>2018-07-14T07:43:15Z</time>
      </trkpt>
      <trkpt lat="45.32891" lon="5.64542">
        <ele>783.5</ele>
        <time>2018-07-14T07:43:18Z</time>
      </trkpt>
      <trkpt lat="45.32897" lon="5.64553">
        <ele>783</ele>
        <time>2018-07-14T07:43:21Z</time>
      </trkpt>
      <trkpt lat="45.32897" lon="5.64568">
        <ele>781.2</ele>
        <time>2018-07-14T07:43:46Z</time>
      </trkpt>
      <trkpt lat="45.32905" lon="5.64581">
        <ele>780.6</ele>
        <time>2018-07-14T07:43:49Z</time>
      </trkpt>
      <trkpt lat="45.32912" lon="5.6459">
        <ele>780.3</ele>
        <time>2018-07-14T07:43:51Z</time>
      </trkpt>
      <trkpt lat="45.32922" lon="5.64599">
        <ele>780.1</ele>
        <time>2018-07-14T07:43:53Z</time>
      </trkpt>
      <trkpt lat="45.32931" lon="5.64609">
        <ele>778.8</ele>
        <time>2018-07-14T07:43:55Z</time>
      </trkpt>
      <trkpt lat="45.32942" lon="5.64618">
        <ele>777.5</ele>
        <time>2018-07-14T07:43:57Z</time>
      </trkpt>
      <trkpt lat="45.32954" lon="5.64626">
        <ele>775.8</ele>
        <time>2018-07-14T07:43:59Z</time>
      </trkpt>
      <trkpt lat="45.32965" lon="5.64633">
        <ele>774.7</ele>
        <time>2018-07-14T07:44:01Z</time>
      </trkpt>
      <trkpt lat="45.32976" lon="5.64635">
        <ele>773.7</ele>
        <time>2018-07-14T07:44:03Z</time>
      </trkpt>
      <trkpt lat="45.32985" lon="5.64636">
        <ele>770.9</ele>
        <time>2018-07-14T07:44:07Z</time>
      </trkpt>
      <trkpt lat="45.32997" lon="5.64634">
        <ele>769.2</ele>
        <time>2018-07-14T07:44:11Z</time>
      </trkpt>
      <trkpt lat="45.33007" lon="5.6463">
        <ele>768.1</ele>
        <time>2018-07-14T07:44:14Z</time>
      </trkpt>
      <trkpt lat="45.33016" lon="5.64625">
        <ele>767.7</ele>
        <time>2018-07-14T07:44:16Z</time>
      </trkpt>
      <trkpt lat="45.33025" lon="5.6462">
        <ele>767</ele>
        <time>2018-07-14T07:44:18Z</time>
      </trkpt>
      <trkpt lat="45.33036" lon="5.64616">
        <ele>766</ele>
        <time>2018-07-14T07:44:20Z</time>
      </trkpt>
      <trkpt lat="45.3305" lon="5.64612">
        <ele>764.9</ele>
        <time>2018-07-14T07:44:22Z</time>
      </trkpt>
      <trkpt lat="45.33063" lon="5.64609">
        <ele>763.9</ele>
        <time>2018-07-14T07:44:24Z</time>
      </trkpt>
      <trkpt lat="45.33076" lon="5.64609">
        <ele>763</ele>
        <time>2018-07-14T07:44:26Z</time>
      </trkpt>
      <trkpt lat="45.33087" lon="5.64615">
        <ele>762.4</ele>
        <time>2018-07-14T07:44:28Z</time>
      </trkpt>
      <trkpt lat="45.33094" lon="5.64626">
        <ele>762.2</ele>
        <time>2018-07-14T07:44:30Z</time>
      </trkpt>
      <trkpt lat="45.33098" lon="5.64638">
        <ele>761.8</ele>
        <time>2018-07-14T07:44:32Z</time>
      </trkpt>
      <trkpt lat="45.33105" lon="5.64649">
        <ele>761.4</ele>
        <time>2018-07-14T07:44:34Z</time>
      </trkpt>
      <trkpt lat="45.33111" lon="5.64659">
        <ele>761</ele>
        <time>2018-07-14T07:44:36Z</time>
      </trkpt>
      <trkpt lat="45.3312" lon="5.64664">
        <ele>760.7</ele>
        <time>2018-07-14T07:44:39Z</time>
      </trkpt>
      <trkpt lat="45.33128" lon="5.6466">
        <ele>760.5</ele>
        <time>2018-07-14T07:44:42Z</time>
      </trkpt>
      <trkpt lat="45.33136" lon="5.64652">
        <ele>760.5</ele>
        <time>2018-07-14T07:44:45Z</time>
      </trkpt>
      <trkpt lat="45.33143" lon="5.64642">
        <ele>760.2</ele>
        <time>2018-07-14T07:44:49Z</time>
      </trkpt>
      <trkpt lat="45.3315" lon="5.64631">
        <ele>760.1</ele>
        <time>2018-07-14T07:44:52Z</time>
      </trkpt>
      <trkpt lat="45.33158" lon="5.64626">
        <ele>760</ele>
        <time>2018-07-14T07:44:56Z</time>
      </trkpt>
      <trkpt lat="45.33168" lon="5.64619">
        <ele>759.7</ele>
        <time>2018-07-14T07:45:00Z</time>
      </trkpt>
      <trkpt lat="45.3318" lon="5.64616">
        <ele>758.9</ele>
        <time>2018-07-14T07:45:03Z</time>
      </trkpt>
      <trkpt lat="45.33189" lon="5.64612">
        <ele>759</ele>
        <time>2018-07-14T07:45:05Z</time>
      </trkpt>
      <trkpt lat="45.33199" lon="5.64607">
        <ele>759.1</ele>
        <time>2018-07-14T07:45:07Z</time>
      </trkpt>
      <trkpt lat="45.33208" lon="5.64605">
        <ele>758.9</ele>
        <time>2018-07-14T07:45:09Z</time>
      </trkpt>
      <trkpt lat="45.33217" lon="5.64606">
        <ele>758.5</ele>
        <time>2018-07-14T07:45:11Z</time>
      </trkpt>
      <trkpt lat="45.33228" lon="5.6461">
        <ele>757.5</ele>
        <time>2018-07-14T07:45:13Z</time>
      </trkpt>
      <trkpt lat="45.3324" lon="5.64614">
        <ele>756</ele>
        <time>2018-07-14T07:45:15Z</time>
      </trkpt>
      <trkpt lat="45.33252" lon="5.64618">
        <ele>754.7</ele>
        <time>2018-07-14T07:45:17Z</time>
      </trkpt>
      <trkpt lat="45.33263" lon="5.6462">
        <ele>753.1</ele>
        <time>2018-07-14T07:45:19Z</time>
      </trkpt>
      <trkpt lat="45.33273" lon="5.64622">
        <ele>752</ele>
        <time>2018-07-14T07:45:21Z</time>
      </trkpt>
      <trkpt lat="45.33285" lon="5.64629">
        <ele>750.5</ele>
        <time>2018-07-14T07:45:24Z</time>
      </trkpt>
      <trkpt lat="45.33295" lon="5.64634">
        <ele>749.6</ele>
        <time>2018-07-14T07:45:26Z</time>
      </trkpt>
      <trkpt lat="45.33304" lon="5.64637">
        <ele>748.5</ele>
        <time>2018-07-14T07:45:29Z</time>
      </trkpt>
      <trkpt lat="45.33315" lon="5.64638">
        <ele>747.3</ele>
        <time>2018-07-14T07:45:33Z</time>
      </trkpt>
      <trkpt lat="45.33327" lon="5.64635">
        <ele>746.7</ele>
        <time>2018-07-14T07:45:36Z</time>
      </trkpt>
      <trkpt lat="45.33336" lon="5.6463">
        <ele>746.4</ele>
        <time>2018-07-14T07:45:38Z</time>
      </trkpt>
      <trkpt lat="45.33345" lon="5.64622">
        <ele>746.2</ele>
        <time>2018-07-14T07:45:41Z</time>
      </trkpt>
      <trkpt lat="45.33355" lon="5.64614">
        <ele>745.7</ele>
        <time>2018-07-14T07:45:44Z</time>
      </trkpt>
      <trkpt lat="45.33365" lon="5.64605">
        <ele>745.4</ele>
        <time>2018-07-14T07:45:47Z</time>
      </trkpt>
      <trkpt lat="45.33374" lon="5.64597">
        <ele>744.9</ele>
        <time>2018-07-14T07:45:50Z</time>
      </trkpt>
      <trkpt lat="45.33383" lon="5.64596">
        <ele>744.5</ele>
        <time>2018-07-14T07:45:55Z</time>
      </trkpt>
      <trkpt lat="45.33393" lon="5.64596">
        <ele>743.6</ele>
        <time>2018-07-14T07:45:59Z</time>
      </trkpt>
      <trkpt lat="45.33405" lon="5.64596">
        <ele>741.9</ele>
        <time>2018-07-14T07:46:02Z</time>
      </trkpt>
      <trkpt lat="45.33414" lon="5.64594">
        <ele>740.5</ele>
        <time>2018-07-14T07:46:04Z</time>
      </trkpt>
      <trkpt lat="45.33426" lon="5.64596">
        <ele>739.3</ele>
        <time>2018-07-14T07:46:07Z</time>
      </trkpt>
      <trkpt lat="45.33435" lon="5.64601">
        <ele>738.8</ele>
        <time>2018-07-14T07:46:09Z</time>
      </trkpt>
      <trkpt lat="45.33445" lon="5.64609">
        <ele>737.4</ele>
        <time>2018-07-14T07:46:12Z</time>
      </trkpt>
      <trkpt lat="45.33457" lon="5.64614">
        <ele>734.9</ele>
        <time>2018-07-14T07:46:15Z</time>
      </trkpt>
      <trkpt lat="45.33466" lon="5.64614">
        <ele>732.8</ele>
        <time>2018-07-14T07:46:18Z</time>
      </trkpt>
      <trkpt lat="45.33475" lon="5.64613">
        <ele>731.5</ele>
        <time>2018-07-14T07:46:20Z</time>
      </trkpt>
      <trkpt lat="45.33486" lon="5.64617">
        <ele>730.1</ele>
        <time>2018-07-14T07:46:23Z</time>
      </trkpt>
      <trkpt lat="45.33496" lon="5.64617">
        <ele>728.8</ele>
        <time>2018-07-14T07:46:27Z</time>
      </trkpt>
      <trkpt lat="45.33504" lon="5.64623">
        <ele>727</ele>
        <time>2018-07-14T07:46:44Z</time>
      </trkpt>
      <trkpt lat="45.33514" lon="5.64629">
        <ele>726.7</ele>
        <time>2018-07-14T07:46:58Z</time>
      </trkpt>
      <trkpt lat="45.33526" lon="5.64636">
        <ele>725.9</ele>
        <time>2018-07-14T07:47:01Z</time>
      </trkpt>
      <trkpt lat="45.33535" lon="5.64642">
        <ele>724.1</ele>
        <time>2018-07-14T07:47:05Z</time>
      </trkpt>
      <trkpt lat="45.33544" lon="5.64645">
        <ele>721.4</ele>
        <time>2018-07-14T07:47:10Z</time>
      </trkpt>
      <trkpt lat="45.33556" lon="5.64648">
        <ele>720</ele>
        <time>2018-07-14T07:47:13Z</time>
      </trkpt>
      <trkpt lat="45.33569" lon="5.64654">
        <ele>718.1</ele>
        <time>2018-07-14T07:47:16Z</time>
      </trkpt>
      <trkpt lat="45.33577" lon="5.64664">
        <ele>717.1</ele>
        <time>2018-07-14T07:47:18Z</time>
      </trkpt>
      <trkpt lat="45.33584" lon="5.64673">
        <ele>715.9</ele>
        <time>2018-07-14T07:47:21Z</time>
      </trkpt>
      <trkpt lat="45.33575" lon="5.64681">
        <ele>713.4</ele>
        <time>2018-07-14T07:47:25Z</time>
      </trkpt>
      <trkpt lat="45.33569" lon="5.64691">
        <ele>710.3</ele>
        <time>2018-07-14T07:47:30Z</time>
      </trkpt>
      <trkpt lat="45.33562" lon="5.647">
        <ele>708.2</ele>
        <time>2018-07-14T07:47:36Z</time>
      </trkpt>
      <trkpt lat="45.33553" lon="5.64706">
        <ele>707.2</ele>
        <time>2018-07-14T07:47:39Z</time>
      </trkpt>
      <trkpt lat="45.33544" lon="5.64712">
        <ele>706.1</ele>
        <time>2018-07-14T07:47:42Z</time>
      </trkpt>
      <trkpt lat="45.33535" lon="5.6472">
        <ele>705.2</ele>
        <time>2018-07-14T07:47:45Z</time>
      </trkpt>
      <trkpt lat="45.33526" lon="5.64727">
        <ele>703.1</ele>
        <time>2018-07-14T07:47:49Z</time>
      </trkpt>
      <trkpt lat="45.33518" lon="5.64736">
        <ele>700.7</ele>
        <time>2018-07-14T07:47:53Z</time>
      </trkpt>
      <trkpt lat="45.33512" lon="5.64748">
        <ele>698.7</ele>
        <time>2018-07-14T07:47:58Z</time>
      </trkpt>
      <trkpt lat="45.33507" lon="5.6476">
        <ele>697.4</ele>
        <time>2018-07-14T07:48:01Z</time>
      </trkpt>
      <trkpt lat="45.33497" lon="5.64772">
        <ele>696.2</ele>
        <time>2018-07-14T07:48:03Z</time>
      </trkpt>
      <trkpt lat="45.33503" lon="5.64781">
        <ele>691.7</ele>
        <time>2018-07-14T07:48:32Z</time>
      </trkpt>
      <trkpt lat="45.33515" lon="5.64786">
        <ele>691.3</ele>
        <time>2018-07-14T07:48:37Z</time>
      </trkpt>
      <trkpt lat="45.33525" lon="5.64789">
        <ele>690.7</ele>
        <time>2018-07-14T07:48:40Z</time>
      </trkpt>
      <trkpt lat="45.33538" lon="5.64794">
        <ele>690.4</ele>
        <time>2018-07-14T07:48:43Z</time>
      </trkpt>
      <trkpt lat="45.3355" lon="5.64798">
        <ele>689.4</ele>
        <time>2018-07-14T07:48:46Z</time>
      </trkpt>
      <trkpt lat="45.33561" lon="5.64802">
        <ele>688.7</ele>
        <time>2018-07-14T07:48:48Z</time>
      </trkpt>
      <trkpt lat="45.33573" lon="5.64807">
        <ele>688</ele>
        <time>2018-07-14T07:48:50Z</time>
      </trkpt>
      <trkpt lat="45.3359" lon="5.64816">
        <ele>687.3</ele>
        <time>2018-07-14T07:48:52Z</time>
      </trkpt>
      <trkpt lat="45.33599" lon="5.6482">
        <ele>686.9</ele>
        <time>2018-07-14T07:48:53Z</time>
      </trkpt>
      <trkpt lat="45.33608" lon="5.64824">
        <ele>686.4</ele>
        <time>2018-07-14T07:48:54Z</time>
      </trkpt>
      <trkpt lat="45.33624" lon="5.64833">
        <ele>685.4</ele>
        <time>2018-07-14T07:48:56Z</time>
      </trkpt>
      <trkpt lat="45.33637" lon="5.64844">
        <ele>684.5</ele>
        <time>2018-07-14T07:48:58Z</time>
      </trkpt>
      <trkpt lat="45.33648" lon="5.64855">
        <ele>683.4</ele>
        <time>2018-07-14T07:49:00Z</time>
      </trkpt>
      <trkpt lat="45.33655" lon="5.64869">
        <ele>682</ele>
        <time>2018-07-14T07:49:02Z</time>
      </trkpt>
      <trkpt lat="45.3366" lon="5.64885">
        <ele>680.8</ele>
        <time>2018-07-14T07:49:04Z</time>
      </trkpt>
      <trkpt lat="45.33663" lon="5.64903">
        <ele>679.7</ele>
        <time>2018-07-14T07:49:06Z</time>
      </trkpt>
      <trkpt lat="45.33665" lon="5.64917">
        <ele>678.1</ele>
        <time>2018-07-14T07:49:09Z</time>
      </trkpt>
      <trkpt lat="45.33665" lon="5.64901">
        <ele>674.1</ele>
        <time>2018-07-14T07:49:35Z</time>
      </trkpt>
      <trkpt lat="45.33664" lon="5.64887">
        <ele>674.6</ele>
        <time>2018-07-14T07:49:40Z</time>
      </trkpt>
      <trkpt lat="45.33669" lon="5.64874">
        <ele>675.3</ele>
        <time>2018-07-14T07:49:45Z</time>
      </trkpt>
      <trkpt lat="45.33679" lon="5.64874">
        <ele>676</ele>
        <time>2018-07-14T07:49:50Z</time>
      </trkpt>
      <trkpt lat="45.3369" lon="5.64878">
        <ele>676.7</ele>
        <time>2018-07-14T07:49:55Z</time>
      </trkpt>
      <trkpt lat="45.337" lon="5.64882">
        <ele>677.1</ele>
        <time>2018-07-14T07:49:59Z</time>
      </trkpt>
      <trkpt lat="45.3371" lon="5.64888">
        <ele>677.3</ele>
        <time>2018-07-14T07:50:03Z</time>
      </trkpt>
      <trkpt lat="45.3372" lon="5.64895">
        <ele>677.3</ele>
        <time>2018-07-14T07:50:07Z</time>
      </trkpt>
      <trkpt lat="45.33728" lon="5.64902">
        <ele>677.3</ele>
        <time>2018-07-14T07:50:11Z</time>
      </trkpt>
      <trkpt lat="45.33737" lon="5.64908">
        <ele>677.6</ele>
        <time>2018-07-14T07:50:15Z</time>
      </trkpt>
      <trkpt lat="45.33746" lon="5.64916">
        <ele>678</ele>
        <time>2018-07-14T07:50:19Z</time>
      </trkpt>
      <trkpt lat="45.33755" lon="5.64922">
        <ele>678.1</ele>
        <time>2018-07-14T07:50:22Z</time>
      </trkpt>
      <trkpt lat="45.33764" lon="5.6493">
        <ele>678.4</ele>
        <time>2018-07-14T07:50:26Z</time>
      </trkpt>
      <trkpt lat="45.3377" lon="5.6494">
        <ele>678.4</ele>
        <time>2018-07-14T07:50:29Z</time>
      </trkpt>
      <trkpt lat="45.33776" lon="5.64951">
        <ele>678.4</ele>
        <time>2018-07-14T07:50:32Z</time>
      </trkpt>
      <trkpt lat="45.3378" lon="5.64966">
        <ele>678.4</ele>
        <time>2018-07-14T07:50:36Z</time>
      </trkpt>
      <trkpt lat="45.33781" lon="5.64982">
        <ele>678.4</ele>
        <time>2018-07-14T07:50:40Z</time>
      </trkpt>
      <trkpt lat="45.33779" lon="5.64997">
        <ele>678.9</ele>
        <time>2018-07-14T07:50:44Z</time>
      </trkpt>
      <trkpt lat="45.33775" lon="5.65012">
        <ele>679.4</ele>
        <time>2018-07-14T07:50:48Z</time>
      </trkpt>
      <trkpt lat="45.3377" lon="5.65027">
        <ele>679.8</ele>
        <time>2018-07-14T07:50:52Z</time>
      </trkpt>
      <trkpt lat="45.33765" lon="5.6504">
        <ele>680.1</ele>
        <time>2018-07-14T07:50:56Z</time>
      </trkpt>
      <trkpt lat="45.33761" lon="5.65052">
        <ele>680.5</ele>
        <time>2018-07-14T07:51:00Z</time>
      </trkpt>
      <trkpt lat="45.3376" lon="5.65068">
        <ele>680.9</ele>
        <time>2018-07-14T07:51:04Z</time>
      </trkpt>
      <trkpt lat="45.33761" lon="5.65081">
        <ele>681.3</ele>
        <time>2018-07-14T07:51:07Z</time>
      </trkpt>
      <trkpt lat="45.33767" lon="5.65096">
        <ele>681.6</ele>
        <time>2018-07-14T07:51:11Z</time>
      </trkpt>
      <trkpt lat="45.33772" lon="5.6511">
        <ele>682</ele>
        <time>2018-07-14T07:51:15Z</time>
      </trkpt>
      <trkpt lat="45.33779" lon="5.65125">
        <ele>682.1</ele>
        <time>2018-07-14T07:51:19Z</time>
      </trkpt>
      <trkpt lat="45.33787" lon="5.65136">
        <ele>682.1</ele>
        <time>2018-07-14T07:51:23Z</time>
      </trkpt>
      <trkpt lat="45.33798" lon="5.65139">
        <ele>682.4</ele>
        <time>2018-07-14T07:51:27Z</time>
      </trkpt>
      <trkpt lat="45.33787" lon="5.65136">
        <ele>681.8</ele>
        <time>2018-07-14T07:51:40Z</time>
      </trkpt>
      <trkpt lat="45.3378" lon="5.65146">
        <ele>681.8</ele>
        <time>2018-07-14T07:51:45Z</time>
      </trkpt>
      <trkpt lat="45.3378" lon="5.65162">
        <ele>682.2</ele>
        <time>2018-07-14T07:51:51Z</time>
      </trkpt>
      <trkpt lat="45.33779" lon="5.65176">
        <ele>682.9</ele>
        <time>2018-07-14T07:51:56Z</time>
      </trkpt>
      <trkpt lat="45.33782" lon="5.65189">
        <ele>683.3</ele>
        <time>2018-07-14T07:52:01Z</time>
      </trkpt>
      <trkpt lat="45.3379" lon="5.65198">
        <ele>683.5</ele>
        <time>2018-07-14T07:52:07Z</time>
      </trkpt>
      <trkpt lat="45.33796" lon="5.65209">
        <ele>683.7</ele>
        <time>2018-07-14T07:52:12Z</time>
      </trkpt>
      <trkpt lat="45.33806" lon="5.6522">
        <ele>684</ele>
        <time>2018-07-14T07:52:17Z</time>
      </trkpt>
      <trkpt lat="45.33815" lon="5.65228">
        <ele>684.4</ele>
        <time>2018-07-14T07:52:21Z</time>
      </trkpt>
      <trkpt lat="45.33823" lon="5.65236">
        <ele>684.7</ele>
        <time>2018-07-14T07:52:25Z</time>
      </trkpt>
      <trkpt lat="45.33831" lon="5.65244">
        <ele>684.8</ele>
        <time>2018-07-14T07:52:29Z</time>
      </trkpt>
      <trkpt lat="45.33839" lon="5.65253">
        <ele>685.1</ele>
        <time>2018-07-14T07:52:33Z</time>
      </trkpt>
      <trkpt lat="45.33846" lon="5.65261">
        <ele>685.3</ele>
        <time>2018-07-14T07:52:37Z</time>
      </trkpt>
      <trkpt lat="45.33853" lon="5.6527">
        <ele>685.6</ele>
        <time>2018-07-14T07:52:41Z</time>
      </trkpt>
      <trkpt lat="45.33859" lon="5.6528">
        <ele>685.9</ele>
        <time>2018-07-14T07:52:46Z</time>
      </trkpt>
      <trkpt lat="45.33864" lon="5.65291">
        <ele>686.3</ele>
        <time>2018-07-14T07:52:51Z</time>
      </trkpt>
      <trkpt lat="45.33868" lon="5.65303">
        <ele>686.8</ele>
        <time>2018-07-14T07:52:56Z</time>
      </trkpt>
      <trkpt lat="45.3387" lon="5.65317">
        <ele>687.4</ele>
        <time>2018-07-14T07:53:01Z</time>
      </trkpt>
      <trkpt lat="45.33873" lon="5.6533">
        <ele>687.8</ele>
        <time>2018-07-14T07:53:06Z</time>
      </trkpt>
      <trkpt lat="45.33874" lon="5.65342">
        <ele>688</ele>
        <time>2018-07-14T07:53:11Z</time>
      </trkpt>
      <trkpt lat="45.33874" lon="5.65356">
        <ele>688.3</ele>
        <time>2018-07-14T07:53:16Z</time>
      </trkpt>
      <trkpt lat="45.33876" lon="5.65368">
        <ele>689.1</ele>
        <time>2018-07-14T07:53:21Z</time>
      </trkpt>
      <trkpt lat="45.33881" lon="5.65382">
        <ele>689.6</ele>
        <time>2018-07-14T07:53:27Z</time>
      </trkpt>
      <trkpt lat="45.33883" lon="5.65396">
        <ele>689.6</ele>
        <time>2018-07-14T07:53:32Z</time>
      </trkpt>
      <trkpt lat="45.33883" lon="5.6541">
        <ele>689.7</ele>
        <time>2018-07-14T07:53:37Z</time>
      </trkpt>
      <trkpt lat="45.33885" lon="5.65424">
        <ele>690</ele>
        <time>2018-07-14T07:53:42Z</time>
      </trkpt>
      <trkpt lat="45.33888" lon="5.65437">
        <ele>690.2</ele>
        <time>2018-07-14T07:53:48Z</time>
      </trkpt>
      <trkpt lat="45.3389" lon="5.6545">
        <ele>690.3</ele>
        <time>2018-07-14T07:53:54Z</time>
      </trkpt>
      <trkpt lat="45.33886" lon="5.65463">
        <ele>690.5</ele>
        <time>2018-07-14T07:54:14Z</time>
      </trkpt>
      <trkpt lat="45.3388" lon="5.65474">
        <ele>690.1</ele>
        <time>2018-07-14T07:54:17Z</time>
      </trkpt>
      <trkpt lat="45.33872" lon="5.65488">
        <ele>689.5</ele>
        <time>2018-07-14T07:54:20Z</time>
      </trkpt>
      <trkpt lat="45.33864" lon="5.655">
        <ele>688.1</ele>
        <time>2018-07-14T07:54:22Z</time>
      </trkpt>
      <trkpt lat="45.33856" lon="5.65511">
        <ele>686.9</ele>
        <time>2018-07-14T07:54:24Z</time>
      </trkpt>
      <trkpt lat="45.33849" lon="5.65519">
        <ele>686.1</ele>
        <time>2018-07-14T07:54:26Z</time>
      </trkpt>
      <trkpt lat="45.33841" lon="5.65528">
        <ele>685.1</ele>
        <time>2018-07-14T07:54:28Z</time>
      </trkpt>
      <trkpt lat="45.33834" lon="5.65541">
        <ele>682.2</ele>
        <time>2018-07-14T07:54:31Z</time>
      </trkpt>
      <trkpt lat="45.33829" lon="5.65556">
        <ele>679.8</ele>
        <time>2018-07-14T07:54:34Z</time>
      </trkpt>
      <trkpt lat="45.33828" lon="5.65571">
        <ele>677.4</ele>
        <time>2018-07-14T07:54:37Z</time>
      </trkpt>
      <trkpt lat="45.33828" lon="5.65587">
        <ele>675.1</ele>
        <time>2018-07-14T07:54:40Z</time>
      </trkpt>
      <trkpt lat="45.33827" lon="5.656">
        <ele>672.9</ele>
        <time>2018-07-14T07:54:43Z</time>
      </trkpt>
      <trkpt lat="45.33828" lon="5.65613">
        <ele>671.4</ele>
        <time>2018-07-14T07:54:46Z</time>
      </trkpt>
      <trkpt lat="45.33831" lon="5.65627">
        <ele>668.6</ele>
        <time>2018-07-14T07:54:51Z</time>
      </trkpt>
      <trkpt lat="45.33834" lon="5.65642">
        <ele>666.5</ele>
        <time>2018-07-14T07:54:56Z</time>
      </trkpt>
      <trkpt lat="45.33836" lon="5.65658">
        <ele>665.6</ele>
        <time>2018-07-14T07:54:59Z</time>
      </trkpt>
      <trkpt lat="45.33836" lon="5.65677">
        <ele>664.7</ele>
        <time>2018-07-14T07:55:02Z</time>
      </trkpt>
      <trkpt lat="45.33835" lon="5.65695">
        <ele>663.2</ele>
        <time>2018-07-14T07:55:05Z</time>
      </trkpt>
      <trkpt lat="45.33835" lon="5.6571">
        <ele>661.8</ele>
        <time>2018-07-14T07:55:07Z</time>
      </trkpt>
      <trkpt lat="45.33835" lon="5.65727">
        <ele>660.4</ele>
        <time>2018-07-14T07:55:09Z</time>
      </trkpt>
      <trkpt lat="45.33834" lon="5.65743">
        <ele>658.9</ele>
        <time>2018-07-14T07:55:11Z</time>
      </trkpt>
      <trkpt lat="45.33835" lon="5.65758">
        <ele>657.5</ele>
        <time>2018-07-14T07:55:13Z</time>
      </trkpt>
      <trkpt lat="45.33838" lon="5.65772">
        <ele>656.5</ele>
        <time>2018-07-14T07:55:15Z</time>
      </trkpt>
      <trkpt lat="45.33841" lon="5.65788">
        <ele>654.5</ele>
        <time>2018-07-14T07:55:18Z</time>
      </trkpt>
      <trkpt lat="45.33847" lon="5.65797">
        <ele>651.9</ele>
        <time>2018-07-14T07:55:38Z</time>
      </trkpt>
      <trkpt lat="45.33854" lon="5.65806">
        <ele>653</ele>
        <time>2018-07-14T07:55:49Z</time>
      </trkpt>
      <trkpt lat="45.33859" lon="5.65819">
        <ele>655.1</ele>
        <time>2018-07-14T07:56:02Z</time>
      </trkpt>
      <trkpt lat="45.33865" lon="5.65831">
        <ele>655.4</ele>
        <time>2018-07-14T07:56:08Z</time>
      </trkpt>
      <trkpt lat="45.33872" lon="5.65843">
        <ele>656.1</ele>
        <time>2018-07-14T07:56:14Z</time>
      </trkpt>
      <trkpt lat="45.33878" lon="5.65856">
        <ele>656.8</ele>
        <time>2018-07-14T07:56:18Z</time>
      </trkpt>
      <trkpt lat="45.33884" lon="5.65866">
        <ele>657.1</ele>
        <time>2018-07-14T07:56:21Z</time>
      </trkpt>
      <trkpt lat="45.33892" lon="5.65871">
        <ele>657.4</ele>
        <time>2018-07-14T07:56:26Z</time>
      </trkpt>
      <trkpt lat="45.339" lon="5.6588">
        <ele>657.8</ele>
        <time>2018-07-14T07:56:31Z</time>
      </trkpt>
      <trkpt lat="45.33908" lon="5.65888">
        <ele>658.5</ele>
        <time>2018-07-14T07:56:36Z</time>
      </trkpt>
      <trkpt lat="45.33915" lon="5.65897">
        <ele>660.4</ele>
        <time>2018-07-14T07:56:42Z</time>
      </trkpt>
      <trkpt lat="45.33922" lon="5.65906">
        <ele>661.4</ele>
        <time>2018-07-14T07:56:46Z</time>
      </trkpt>
      <trkpt lat="45.33932" lon="5.6591">
        <ele>661.8</ele>
        <time>2018-07-14T07:56:50Z</time>
      </trkpt>
      <trkpt lat="45.33942" lon="5.65914">
        <ele>662.1</ele>
        <time>2018-07-14T07:56:54Z</time>
      </trkpt>
      <trkpt lat="45.33952" lon="5.65919">
        <ele>661.5</ele>
        <time>2018-07-14T07:56:57Z</time>
      </trkpt>
      <trkpt lat="45.33966" lon="5.65924">
        <ele>660.7</ele>
        <time>2018-07-14T07:57:00Z</time>
      </trkpt>
      <trkpt lat="45.33974" lon="5.65929">
        <ele>660.2</ele>
        <time>2018-07-14T07:57:02Z</time>
      </trkpt>
      <trkpt lat="45.33983" lon="5.65931">
        <ele>659.7</ele>
        <time>2018-07-14T07:57:04Z</time>
      </trkpt>
      <trkpt lat="45.33992" lon="5.65937">
        <ele>659.3</ele>
        <time>2018-07-14T07:57:06Z</time>
      </trkpt>
      <trkpt lat="45.34003" lon="5.65945">
        <ele>658.9</ele>
        <time>2018-07-14T07:57:09Z</time>
      </trkpt>
      <trkpt lat="45.34012" lon="5.65952">
        <ele>659.2</ele>
        <time>2018-07-14T07:57:12Z</time>
      </trkpt>
      <trkpt lat="45.34022" lon="5.65958">
        <ele>659.4</ele>
        <time>2018-07-14T07:57:15Z</time>
      </trkpt>
      <trkpt lat="45.34031" lon="5.65961">
        <ele>659.4</ele>
        <time>2018-07-14T07:57:17Z</time>
      </trkpt>
      <trkpt lat="45.34042" lon="5.65964">
        <ele>659.5</ele>
        <time>2018-07-14T07:57:20Z</time>
      </trkpt>
      <trkpt lat="45.34052" lon="5.65967">
        <ele>660.9</ele>
        <time>2018-07-14T07:57:24Z</time>
      </trkpt>
      <trkpt lat="45.34063" lon="5.65968">
        <ele>662.3</ele>
        <time>2018-07-14T07:57:28Z</time>
      </trkpt>
      <trkpt lat="45.34073" lon="5.65966">
        <ele>663.3</ele>
        <time>2018-07-14T07:57:32Z</time>
      </trkpt>
      <trkpt lat="45.34084" lon="5.65964">
        <ele>663.9</ele>
        <time>2018-07-14T07:57:36Z</time>
      </trkpt>
      <trkpt lat="45.34093" lon="5.65959">
        <ele>664</ele>
        <time>2018-07-14T07:57:39Z</time>
      </trkpt>
      <trkpt lat="45.34104" lon="5.65956">
        <ele>663.9</ele>
        <time>2018-07-14T07:57:43Z</time>
      </trkpt>
      <trkpt lat="45.34112" lon="5.65962">
        <ele>664</ele>
        <time>2018-07-14T07:57:47Z</time>
      </trkpt>
      <trkpt lat="45.34122" lon="5.6597">
        <ele>664.1</ele>
        <time>2018-07-14T07:57:50Z</time>
      </trkpt>
      <trkpt lat="45.34131" lon="5.65977">
        <ele>663.8</ele>
        <time>2018-07-14T07:57:53Z</time>
      </trkpt>
      <trkpt lat="45.34141" lon="5.65982">
        <ele>663.5</ele>
        <time>2018-07-14T07:57:57Z</time>
      </trkpt>
      <trkpt lat="45.3415" lon="5.65986">
        <ele>663.5</ele>
        <time>2018-07-14T07:58:01Z</time>
      </trkpt>
      <trkpt lat="45.3416" lon="5.65995">
        <ele>663.9</ele>
        <time>2018-07-14T07:58:06Z</time>
      </trkpt>
      <trkpt lat="45.34169" lon="5.66003">
        <ele>663.9</ele>
        <time>2018-07-14T07:58:10Z</time>
      </trkpt>
      <trkpt lat="45.34179" lon="5.66008">
        <ele>663.7</ele>
        <time>2018-07-14T07:58:15Z</time>
      </trkpt>
      <trkpt lat="45.34189" lon="5.66012">
        <ele>663.5</ele>
        <time>2018-07-14T07:58:19Z</time>
      </trkpt>
      <trkpt lat="45.342" lon="5.66019">
        <ele>663.2</ele>
        <time>2018-07-14T07:58:22Z</time>
      </trkpt>
      <trkpt lat="45.34208" lon="5.66025">
        <ele>662.9</ele>
        <time>2018-07-14T07:58:24Z</time>
      </trkpt>
      <trkpt lat="45.34217" lon="5.66032">
        <ele>662.5</ele>
        <time>2018-07-14T07:58:26Z</time>
      </trkpt>
      <trkpt lat="45.34229" lon="5.66041">
        <ele>662.1</ele>
        <time>2018-07-14T07:58:29Z</time>
      </trkpt>
      <trkpt lat="45.34238" lon="5.66046">
        <ele>661.4</ele>
        <time>2018-07-14T07:58:31Z</time>
      </trkpt>
      <trkpt lat="45.34247" lon="5.66052">
        <ele>660.9</ele>
        <time>2018-07-14T07:58:33Z</time>
      </trkpt>
      <trkpt lat="45.34257" lon="5.66057">
        <ele>660.6</ele>
        <time>2018-07-14T07:58:35Z</time>
      </trkpt>
      <trkpt lat="45.34266" lon="5.66062">
        <ele>660.4</ele>
        <time>2018-07-14T07:58:37Z</time>
      </trkpt>
      <trkpt lat="45.34275" lon="5.66067">
        <ele>660.1</ele>
        <time>2018-07-14T07:58:39Z</time>
      </trkpt>
      <trkpt lat="45.34285" lon="5.66071">
        <ele>659.9</ele>
        <time>2018-07-14T07:58:41Z</time>
      </trkpt>
      <trkpt lat="45.34294" lon="5.66076">
        <ele>659.7</ele>
        <time>2018-07-14T07:58:43Z</time>
      </trkpt>
      <trkpt lat="45.34305" lon="5.66079">
        <ele>659.4</ele>
        <time>2018-07-14T07:58:45Z</time>
      </trkpt>
      <trkpt lat="45.34316" lon="5.66083">
        <ele>658.7</ele>
        <time>2018-07-14T07:58:47Z</time>
      </trkpt>
      <trkpt lat="45.34327" lon="5.66086">
        <ele>658.2</ele>
        <time>2018-07-14T07:58:49Z</time>
      </trkpt>
      <trkpt lat="45.34337" lon="5.66086">
        <ele>657.7</ele>
        <time>2018-07-14T07:58:51Z</time>
      </trkpt>
      <trkpt lat="45.34346" lon="5.66082">
        <ele>657.4</ele>
        <time>2018-07-14T07:58:54Z</time>
      </trkpt>
      <trkpt lat="45.34356" lon="5.66076">
        <ele>657.5</ele>
        <time>2018-07-14T07:58:59Z</time>
      </trkpt>
      <trkpt lat="45.34366" lon="5.66068">
        <ele>657.6</ele>
        <time>2018-07-14T07:59:04Z</time>
      </trkpt>
      <trkpt lat="45.34374" lon="5.66057">
        <ele>657.6</ele>
        <time>2018-07-14T07:59:08Z</time>
      </trkpt>
      <trkpt lat="45.34382" lon="5.66045">
        <ele>657.8</ele>
        <time>2018-07-14T07:59:13Z</time>
      </trkpt>
      <trkpt lat="45.3439" lon="5.66035">
        <ele>658</ele>
        <time>2018-07-14T07:59:16Z</time>
      </trkpt>
      <trkpt lat="45.34398" lon="5.66028">
        <ele>658.2</ele>
        <time>2018-07-14T07:59:19Z</time>
      </trkpt>
      <trkpt lat="45.34406" lon="5.66021">
        <ele>658.2</ele>
        <time>2018-07-14T07:59:22Z</time>
      </trkpt>
      <trkpt lat="45.34416" lon="5.66014">
        <ele>658.2</ele>
        <time>2018-07-14T07:59:26Z</time>
      </trkpt>
      <trkpt lat="45.34425" lon="5.66006">
        <ele>658.5</ele>
        <time>2018-07-14T07:59:30Z</time>
      </trkpt>
      <trkpt lat="45.34434" lon="5.66001">
        <ele>658.6</ele>
        <time>2018-07-14T07:59:33Z</time>
      </trkpt>
      <trkpt lat="45.34444" lon="5.65995">
        <ele>658.7</ele>
        <time>2018-07-14T07:59:36Z</time>
      </trkpt>
      <trkpt lat="45.34454" lon="5.65988">
        <ele>658.8</ele>
        <time>2018-07-14T07:59:39Z</time>
      </trkpt>
      <trkpt lat="45.34464" lon="5.65984">
        <ele>658.8</ele>
        <time>2018-07-14T07:59:42Z</time>
      </trkpt>
      <trkpt lat="45.34475" lon="5.65979">
        <ele>658.8</ele>
        <time>2018-07-14T07:59:45Z</time>
      </trkpt>
      <trkpt lat="45.34484" lon="5.65977">
        <ele>658.8</ele>
        <time>2018-07-14T07:59:48Z</time>
      </trkpt>
      <trkpt lat="45.34496" lon="5.65974">
        <ele>658.7</ele>
        <time>2018-07-14T07:59:51Z</time>
      </trkpt>
      <trkpt lat="45.34505" lon="5.65971">
        <ele>658.6</ele>
        <time>2018-07-14T07:59:54Z</time>
      </trkpt>
      <trkpt lat="45.34515" lon="5.6597">
        <ele>658.6</ele>
        <time>2018-07-14T07:59:58Z</time>
      </trkpt>
      <trkpt lat="45.34524" lon="5.65968">
        <ele>658.5</ele>
        <time>2018-07-14T08:00:01Z</time>
      </trkpt>
      <trkpt lat="45.34535" lon="5.65964">
        <ele>658.5</ele>
        <time>2018-07-14T08:00:06Z</time>
      </trkpt>
      <trkpt lat="45.34539" lon="5.65952">
        <ele>658.4</ele>
        <time>2018-07-14T08:00:11Z</time>
      </trkpt>
      <trkpt lat="45.34537" lon="5.65937">
        <ele>658</ele>
        <time>2018-07-14T08:00:17Z</time>
      </trkpt>
      <trkpt lat="45.34535" lon="5.65923">
        <ele>658</ele>
        <time>2018-07-14T08:00:21Z</time>
      </trkpt>
      <trkpt lat="45.34535" lon="5.65909">
        <ele>658.1</ele>
        <time>2018-07-14T08:00:25Z</time>
      </trkpt>
      <trkpt lat="45.34533" lon="5.65895">
        <ele>658.4</ele>
        <time>2018-07-14T08:00:30Z</time>
      </trkpt>
      <trkpt lat="45.34533" lon="5.65879">
        <ele>658.9</ele>
        <time>2018-07-14T08:00:35Z</time>
      </trkpt>
      <trkpt lat="45.34532" lon="5.65866">
        <ele>659.5</ele>
        <time>2018-07-14T08:00:39Z</time>
      </trkpt>
      <trkpt lat="45.34529" lon="5.65851">
        <ele>660.4</ele>
        <time>2018-07-14T08:00:44Z</time>
      </trkpt>
      <trkpt lat="45.34527" lon="5.65835">
        <ele>661</ele>
        <time>2018-07-14T08:00:49Z</time>
      </trkpt>
      <trkpt lat="45.34526" lon="5.65822">
        <ele>661.9</ele>
        <time>2018-07-14T08:00:54Z</time>
      </trkpt>
      <trkpt lat="45.34525" lon="5.65807">
        <ele>662.9</ele>
        <time>2018-07-14T08:00:59Z</time>
      </trkpt>
      <trkpt lat="45.34523" lon="5.65794">
        <ele>663.9</ele>
        <time>2018-07-14T08:01:04Z</time>
      </trkpt>
      <trkpt lat="45.34522" lon="5.6578">
        <ele>664.8</ele>
        <time>2018-07-14T08:01:09Z</time>
      </trkpt>
      <trkpt lat="45.34523" lon="5.65766">
        <ele>665.8</ele>
        <time>2018-07-14T08:01:15Z</time>
      </trkpt>
      <trkpt lat="45.34526" lon="5.65754">
        <ele>667.8</ele>
        <time>2018-07-14T08:01:22Z</time>
      </trkpt>
      <trkpt lat="45.34531" lon="5.6574">
        <ele>668.8</ele>
        <time>2018-07-14T08:01:28Z</time>
      </trkpt>
      <trkpt lat="45.34538" lon="5.6573">
        <ele>670.2</ele>
        <time>2018-07-14T08:01:35Z</time>
      </trkpt>
      <trkpt lat="45.34544" lon="5.6572">
        <ele>670.9</ele>
        <time>2018-07-14T08:01:43Z</time>
      </trkpt>
      <trkpt lat="45.34553" lon="5.65713">
        <ele>673</ele>
        <time>2018-07-14T08:01:52Z</time>
      </trkpt>
      <trkpt lat="45.34562" lon="5.65706">
        <ele>673.7</ele>
        <time>2018-07-14T08:02:00Z</time>
      </trkpt>
      <trkpt lat="45.34571" lon="5.65702">
        <ele>675</ele>
        <time>2018-07-14T08:02:08Z</time>
      </trkpt>
      <trkpt lat="45.34579" lon="5.65695">
        <ele>675.7</ele>
        <time>2018-07-14T08:02:13Z</time>
      </trkpt>
      <trkpt lat="45.34588" lon="5.65689">
        <ele>676.1</ele>
        <time>2018-07-14T08:02:19Z</time>
      </trkpt>
      <trkpt lat="45.34596" lon="5.65683">
        <ele>676.9</ele>
        <time>2018-07-14T08:02:25Z</time>
      </trkpt>
      <trkpt lat="45.34606" lon="5.65676">
        <ele>677.8</ele>
        <time>2018-07-14T08:02:31Z</time>
      </trkpt>
      <trkpt lat="45.34615" lon="5.65672">
        <ele>678.4</ele>
        <time>2018-07-14T08:02:38Z</time>
      </trkpt>
      <trkpt lat="45.34624" lon="5.65666">
        <ele>682.4</ele>
        <time>2018-07-14T08:02:46Z</time>
      </trkpt>
      <trkpt lat="45.34632" lon="5.65662">
        <ele>680.3</ele>
        <time>2018-07-14T08:02:51Z</time>
      </trkpt>
      <trkpt lat="45.3464" lon="5.65655">
        <ele>679.5</ele>
        <time>2018-07-14T08:02:55Z</time>
      </trkpt>
      <trkpt lat="45.34649" lon="5.65646">
        <ele>679</ele>
        <time>2018-07-14T08:03:00Z</time>
      </trkpt>
      <trkpt lat="45.34656" lon="5.65637">
        <ele>678.8</ele>
        <time>2018-07-14T08:03:04Z</time>
      </trkpt>
      <trkpt lat="45.34663" lon="5.65626">
        <ele>678.9</ele>
        <time>2018-07-14T08:03:08Z</time>
      </trkpt>
      <trkpt lat="45.34669" lon="5.65614">
        <ele>678.8</ele>
        <time>2018-07-14T08:03:12Z</time>
      </trkpt>
      <trkpt lat="45.34674" lon="5.65603">
        <ele>678.8</ele>
        <time>2018-07-14T08:03:16Z</time>
      </trkpt>
      <trkpt lat="45.34683" lon="5.65599">
        <ele>678.6</ele>
        <time>2018-07-14T08:03:26Z</time>
      </trkpt>
      <trkpt lat="45.34688" lon="5.65612">
        <ele>678.3</ele>
        <time>2018-07-14T08:03:34Z</time>
      </trkpt>
      <trkpt lat="45.34692" lon="5.65627">
        <ele>678.2</ele>
        <time>2018-07-14T08:03:39Z</time>
      </trkpt>
      <trkpt lat="45.34692" lon="5.6564">
        <ele>678.3</ele>
        <time>2018-07-14T08:03:45Z</time>
      </trkpt>
      <trkpt lat="45.34695" lon="5.65653">
        <ele>678.5</ele>
        <time>2018-07-14T08:03:50Z</time>
      </trkpt>
      <trkpt lat="45.34697" lon="5.65668">
        <ele>678.7</ele>
        <time>2018-07-14T08:03:56Z</time>
      </trkpt>
      <trkpt lat="45.34697" lon="5.65681">
        <ele>679.5</ele>
        <time>2018-07-14T08:04:02Z</time>
      </trkpt>
      <trkpt lat="45.34702" lon="5.65693">
        <ele>680.2</ele>
        <time>2018-07-14T08:04:12Z</time>
      </trkpt>
      <trkpt lat="45.3471" lon="5.657">
        <ele>681</ele>
        <time>2018-07-14T08:04:17Z</time>
      </trkpt>
      <trkpt lat="45.3472" lon="5.65708">
        <ele>682</ele>
        <time>2018-07-14T08:04:25Z</time>
      </trkpt>
      <trkpt lat="45.34727" lon="5.65719">
        <ele>682.8</ele>
        <time>2018-07-14T08:04:31Z</time>
      </trkpt>
      <trkpt lat="45.34735" lon="5.65726">
        <ele>683.7</ele>
        <time>2018-07-14T08:04:38Z</time>
      </trkpt>
      <trkpt lat="45.34745" lon="5.65736">
        <ele>684</ele>
        <time>2018-07-14T08:04:43Z</time>
      </trkpt>
      <trkpt lat="45.34757" lon="5.65745">
        <ele>683.8</ele>
        <time>2018-07-14T08:04:47Z</time>
      </trkpt>
      <trkpt lat="45.34768" lon="5.65751">
        <ele>683.4</ele>
        <time>2018-07-14T08:04:50Z</time>
      </trkpt>
      <trkpt lat="45.34776" lon="5.6576">
        <ele>684.1</ele>
        <time>2018-07-14T08:04:54Z</time>
      </trkpt>
      <trkpt lat="45.34777" lon="5.65773">
        <ele>683.7</ele>
        <time>2018-07-14T08:04:57Z</time>
      </trkpt>
      <trkpt lat="45.34784" lon="5.65788">
        <ele>683.4</ele>
        <time>2018-07-14T08:05:00Z</time>
      </trkpt>
      <trkpt lat="45.34791" lon="5.658">
        <ele>682.4</ele>
        <time>2018-07-14T08:05:03Z</time>
      </trkpt>
      <trkpt lat="45.34799" lon="5.6581">
        <ele>681.9</ele>
        <time>2018-07-14T08:05:06Z</time>
      </trkpt>
      <trkpt lat="45.34809" lon="5.65818">
        <ele>681.7</ele>
        <time>2018-07-14T08:05:10Z</time>
      </trkpt>
      <trkpt lat="45.34818" lon="5.65827">
        <ele>681.4</ele>
        <time>2018-07-14T08:05:14Z</time>
      </trkpt>
      <trkpt lat="45.34828" lon="5.65824">
        <ele>681.7</ele>
        <time>2018-07-14T08:05:20Z</time>
      </trkpt>
      <trkpt lat="45.34834" lon="5.65815">
        <ele>682</ele>
        <time>2018-07-14T08:05:26Z</time>
      </trkpt>
      <trkpt lat="45.34836" lon="5.65802">
        <ele>683.2</ele>
        <time>2018-07-14T08:05:31Z</time>
      </trkpt>
      <trkpt lat="45.34834" lon="5.65788">
        <ele>684.3</ele>
        <time>2018-07-14T08:05:38Z</time>
      </trkpt>
      <trkpt lat="45.34826" lon="5.65782">
        <ele>684.8</ele>
        <time>2018-07-14T08:05:44Z</time>
      </trkpt>
      <trkpt lat="45.34817" lon="5.65773">
        <ele>684.8</ele>
        <time>2018-07-14T08:05:51Z</time>
      </trkpt>
      <trkpt lat="45.34812" lon="5.6576">
        <ele>684.2</ele>
        <time>2018-07-14T08:06:00Z</time>
      </trkpt>
      <trkpt lat="45.34816" lon="5.65773">
        <ele>683.6</ele>
        <time>2018-07-14T08:06:13Z</time>
      </trkpt>
      <trkpt lat="45.34824" lon="5.65782">
        <ele>683.8</ele>
        <time>2018-07-14T08:06:19Z</time>
      </trkpt>
      <trkpt lat="45.34831" lon="5.6579">
        <ele>684.2</ele>
        <time>2018-07-14T08:06:24Z</time>
      </trkpt>
      <trkpt lat="45.34838" lon="5.658">
        <ele>684.3</ele>
        <time>2018-07-14T08:06:28Z</time>
      </trkpt>
      <trkpt lat="45.34838" lon="5.65813">
        <ele>683.7</ele>
        <time>2018-07-14T08:06:35Z</time>
      </trkpt>
      <trkpt lat="45.34832" lon="5.65823">
        <ele>683.3</ele>
        <time>2018-07-14T08:06:42Z</time>
      </trkpt>
      <trkpt lat="45.34823" lon="5.65826">
        <ele>682.5</ele>
        <time>2018-07-14T08:06:49Z</time>
      </trkpt>
      <trkpt lat="45.34812" lon="5.65821">
        <ele>682.2</ele>
        <time>2018-07-14T08:06:56Z</time>
      </trkpt>
      <trkpt lat="45.34803" lon="5.65825">
        <ele>681.7</ele>
        <time>2018-07-14T08:07:02Z</time>
      </trkpt>
      <trkpt lat="45.34794" lon="5.65834">
        <ele>681</ele>
        <time>2018-07-14T08:07:06Z</time>
      </trkpt>
      <trkpt lat="45.34785" lon="5.65838">
        <ele>680.6</ele>
        <time>2018-07-14T08:07:09Z</time>
      </trkpt>
      <trkpt lat="45.34777" lon="5.65832">
        <ele>680.1</ele>
        <time>2018-07-14T08:07:14Z</time>
      </trkpt>
      <trkpt lat="45.34768" lon="5.65839">
        <ele>679.6</ele>
        <time>2018-07-14T08:07:18Z</time>
      </trkpt>
      <trkpt lat="45.34761" lon="5.65849">
        <ele>679.5</ele>
        <time>2018-07-14T08:07:21Z</time>
      </trkpt>
      <trkpt lat="45.34761" lon="5.65863">
        <ele>679</ele>
        <time>2018-07-14T08:07:24Z</time>
      </trkpt>
      <trkpt lat="45.34767" lon="5.6588">
        <ele>678.3</ele>
        <time>2018-07-14T08:07:27Z</time>
      </trkpt>
      <trkpt lat="45.34774" lon="5.6589">
        <ele>677.7</ele>
        <time>2018-07-14T08:07:29Z</time>
      </trkpt>
      <trkpt lat="45.34783" lon="5.65902">
        <ele>677.2</ele>
        <time>2018-07-14T08:07:31Z</time>
      </trkpt>
      <trkpt lat="45.34795" lon="5.65911">
        <ele>676.5</ele>
        <time>2018-07-14T08:07:33Z</time>
      </trkpt>
      <trkpt lat="45.34807" lon="5.65915">
        <ele>675.7</ele>
        <time>2018-07-14T08:07:35Z</time>
      </trkpt>
      <trkpt lat="45.34817" lon="5.65918">
        <ele>675.1</ele>
        <time>2018-07-14T08:07:37Z</time>
      </trkpt>
      <trkpt lat="45.34829" lon="5.65921">
        <ele>674.4</ele>
        <time>2018-07-14T08:07:40Z</time>
      </trkpt>
      <trkpt lat="45.34839" lon="5.65924">
        <ele>674.4</ele>
        <time>2018-07-14T08:07:43Z</time>
      </trkpt>
      <trkpt lat="45.34849" lon="5.65925">
        <ele>674.6</ele>
        <time>2018-07-14T08:07:46Z</time>
      </trkpt>
      <trkpt lat="45.34858" lon="5.65925">
        <ele>674.8</ele>
        <time>2018-07-14T08:07:49Z</time>
      </trkpt>
      <trkpt lat="45.34868" lon="5.65925">
        <ele>675</ele>
        <time>2018-07-14T08:07:52Z</time>
      </trkpt>
      <trkpt lat="45.34879" lon="5.65924">
        <ele>675.6</ele>
        <time>2018-07-14T08:07:55Z</time>
      </trkpt>
      <trkpt lat="45.34889" lon="5.65921">
        <ele>676.2</ele>
        <time>2018-07-14T08:07:58Z</time>
      </trkpt>
      <trkpt lat="45.349" lon="5.65916">
        <ele>676.6</ele>
        <time>2018-07-14T08:08:01Z</time>
      </trkpt>
      <trkpt lat="45.3491" lon="5.65909">
        <ele>676.8</ele>
        <time>2018-07-14T08:08:04Z</time>
      </trkpt>
      <trkpt lat="45.34919" lon="5.65902">
        <ele>677.1</ele>
        <time>2018-07-14T08:08:07Z</time>
      </trkpt>
      <trkpt lat="45.34928" lon="5.65893">
        <ele>677.6</ele>
        <time>2018-07-14T08:08:10Z</time>
      </trkpt>
      <trkpt lat="45.34936" lon="5.65886">
        <ele>677.9</ele>
        <time>2018-07-14T08:08:13Z</time>
      </trkpt>
      <trkpt lat="45.34945" lon="5.65878">
        <ele>678.1</ele>
        <time>2018-07-14T08:08:16Z</time>
      </trkpt>
      <trkpt lat="45.34955" lon="5.65868">
        <ele>678.4</ele>
        <time>2018-07-14T08:08:20Z</time>
      </trkpt>
      <trkpt lat="45.34964" lon="5.6586">
        <ele>679.7</ele>
        <time>2018-07-14T08:08:24Z</time>
      </trkpt>
      <trkpt lat="45.34972" lon="5.65849">
        <ele>691.7</ele>
        <time>2018-07-14T08:08:28Z</time>
      </trkpt>
      <trkpt lat="45.34978" lon="5.65838">
        <ele>688.9</ele>
        <time>2018-07-14T08:08:31Z</time>
      </trkpt>
      <trkpt lat="45.34981" lon="5.65824">
        <ele>685.5</ele>
        <time>2018-07-14T08:08:34Z</time>
      </trkpt>
      <trkpt lat="45.34983" lon="5.65811">
        <ele>683.2</ele>
        <time>2018-07-14T08:08:37Z</time>
      </trkpt>
      <trkpt lat="45.34983" lon="5.65798">
        <ele>682</ele>
        <time>2018-07-14T08:08:40Z</time>
      </trkpt>
      <trkpt lat="45.34984" lon="5.65784">
        <ele>681.6</ele>
        <time>2018-07-14T08:08:43Z</time>
      </trkpt>
      <trkpt lat="45.34984" lon="5.6577">
        <ele>681.4</ele>
        <time>2018-07-14T08:08:46Z</time>
      </trkpt>
      <trkpt lat="45.34991" lon="5.65756">
        <ele>681.3</ele>
        <time>2018-07-14T08:08:49Z</time>
      </trkpt>
      <trkpt lat="45.35" lon="5.65743">
        <ele>681</ele>
        <time>2018-07-14T08:08:52Z</time>
      </trkpt>
      <trkpt lat="45.35008" lon="5.65733">
        <ele>680.7</ele>
        <time>2018-07-14T08:08:54Z</time>
      </trkpt>
      <trkpt lat="45.35015" lon="5.65724">
        <ele>680.6</ele>
        <time>2018-07-14T08:08:56Z</time>
      </trkpt>
      <trkpt lat="45.35024" lon="5.65715">
        <ele>680.4</ele>
        <time>2018-07-14T08:08:58Z</time>
      </trkpt>
      <trkpt lat="45.35033" lon="5.65708">
        <ele>680.4</ele>
        <time>2018-07-14T08:09:00Z</time>
      </trkpt>
      <trkpt lat="45.35045" lon="5.65702">
        <ele>679.9</ele>
        <time>2018-07-14T08:09:03Z</time>
      </trkpt>
      <trkpt lat="45.35052" lon="5.6571">
        <ele>679.2</ele>
        <time>2018-07-14T08:09:07Z</time>
      </trkpt>
      <trkpt lat="45.35053" lon="5.65725">
        <ele>679</ele>
        <time>2018-07-14T08:09:11Z</time>
      </trkpt>
      <trkpt lat="45.35056" lon="5.65741">
        <ele>679.1</ele>
        <time>2018-07-14T08:09:15Z</time>
      </trkpt>
      <trkpt lat="45.35059" lon="5.65753">
        <ele>679.2</ele>
        <time>2018-07-14T08:09:18Z</time>
      </trkpt>
      <trkpt lat="45.35063" lon="5.65766">
        <ele>679.2</ele>
        <time>2018-07-14T08:09:21Z</time>
      </trkpt>
      <trkpt lat="45.35067" lon="5.6578">
        <ele>679</ele>
        <time>2018-07-14T08:09:24Z</time>
      </trkpt>
      <trkpt lat="45.35073" lon="5.65797">
        <ele>678.5</ele>
        <time>2018-07-14T08:09:27Z</time>
      </trkpt>
      <trkpt lat="45.35079" lon="5.65811">
        <ele>678.1</ele>
        <time>2018-07-14T08:09:29Z</time>
      </trkpt>
      <trkpt lat="45.35085" lon="5.65824">
        <ele>677.7</ele>
        <time>2018-07-14T08:09:31Z</time>
      </trkpt>
      <trkpt lat="45.35091" lon="5.65838">
        <ele>677.1</ele>
        <time>2018-07-14T08:09:33Z</time>
      </trkpt>
      <trkpt lat="45.35098" lon="5.65852">
        <ele>676.5</ele>
        <time>2018-07-14T08:09:35Z</time>
      </trkpt>
      <trkpt lat="45.35103" lon="5.65865">
        <ele>675.8</ele>
        <time>2018-07-14T08:09:37Z</time>
      </trkpt>
      <trkpt lat="45.35109" lon="5.65878">
        <ele>675.2</ele>
        <time>2018-07-14T08:09:39Z</time>
      </trkpt>
      <trkpt lat="45.35115" lon="5.65891">
        <ele>674.4</ele>
        <time>2018-07-14T08:09:41Z</time>
      </trkpt>
      <trkpt lat="45.35121" lon="5.65904">
        <ele>673.5</ele>
        <time>2018-07-14T08:09:43Z</time>
      </trkpt>
      <trkpt lat="45.35126" lon="5.65916">
        <ele>672.6</ele>
        <time>2018-07-14T08:09:45Z</time>
      </trkpt>
      <trkpt lat="45.3513" lon="5.65932">
        <ele>671.4</ele>
        <time>2018-07-14T08:09:48Z</time>
      </trkpt>
      <trkpt lat="45.35135" lon="5.65944">
        <ele>669.7</ele>
        <time>2018-07-14T08:09:52Z</time>
      </trkpt>
      <trkpt lat="45.35144" lon="5.65942">
        <ele>668.9</ele>
        <time>2018-07-14T08:09:56Z</time>
      </trkpt>
      <trkpt lat="45.35151" lon="5.65952">
        <ele>668.2</ele>
        <time>2018-07-14T08:10:01Z</time>
      </trkpt>
      <trkpt lat="45.35157" lon="5.65967">
        <ele>668</ele>
        <time>2018-07-14T08:10:05Z</time>
      </trkpt>
      <trkpt lat="45.35164" lon="5.65981">
        <ele>668.2</ele>
        <time>2018-07-14T08:10:08Z</time>
      </trkpt>
      <trkpt lat="45.35168" lon="5.65994">
        <ele>668.1</ele>
        <time>2018-07-14T08:10:10Z</time>
      </trkpt>
      <trkpt lat="45.35175" lon="5.66009">
        <ele>668</ele>
        <time>2018-07-14T08:10:13Z</time>
      </trkpt>
      <trkpt lat="45.35182" lon="5.66018">
        <ele>667.7</ele>
        <time>2018-07-14T08:10:15Z</time>
      </trkpt>
      <trkpt lat="45.3519" lon="5.66026">
        <ele>667.4</ele>
        <time>2018-07-14T08:10:17Z</time>
      </trkpt>
      <trkpt lat="45.352" lon="5.66038">
        <ele>667</ele>
        <time>2018-07-14T08:10:20Z</time>
      </trkpt>
      <trkpt lat="45.35209" lon="5.66047">
        <ele>666.7</ele>
        <time>2018-07-14T08:10:23Z</time>
      </trkpt>
      <trkpt lat="45.35221" lon="5.66052">
        <ele>666.6</ele>
        <time>2018-07-14T08:10:26Z</time>
      </trkpt>
      <trkpt lat="45.35231" lon="5.66056">
        <ele>666.5</ele>
        <time>2018-07-14T08:10:29Z</time>
      </trkpt>
      <trkpt lat="45.35242" lon="5.66063">
        <ele>666.4</ele>
        <time>2018-07-14T08:10:33Z</time>
      </trkpt>
      <trkpt lat="45.35252" lon="5.66068">
        <ele>666.5</ele>
        <time>2018-07-14T08:10:37Z</time>
      </trkpt>
      <trkpt lat="45.35262" lon="5.66075">
        <ele>666.7</ele>
        <time>2018-07-14T08:10:41Z</time>
      </trkpt>
      <trkpt lat="45.3527" lon="5.66085">
        <ele>667.6</ele>
        <time>2018-07-14T08:10:45Z</time>
      </trkpt>
      <trkpt lat="45.35274" lon="5.661">
        <ele>668.6</ele>
        <time>2018-07-14T08:10:49Z</time>
      </trkpt>
      <trkpt lat="45.35277" lon="5.66116">
        <ele>669.2</ele>
        <time>2018-07-14T08:10:53Z</time>
      </trkpt>
      <trkpt lat="45.35282" lon="5.66129">
        <ele>669.4</ele>
        <time>2018-07-14T08:10:57Z</time>
      </trkpt>
      <trkpt lat="45.35285" lon="5.66141">
        <ele>669.5</ele>
        <time>2018-07-14T08:11:01Z</time>
      </trkpt>
      <trkpt lat="45.35291" lon="5.66152">
        <ele>669.6</ele>
        <time>2018-07-14T08:11:06Z</time>
      </trkpt>
      <trkpt lat="45.35296" lon="5.66165">
        <ele>670</ele>
        <time>2018-07-14T08:11:11Z</time>
      </trkpt>
      <trkpt lat="45.35302" lon="5.66176">
        <ele>670.7</ele>
        <time>2018-07-14T08:11:17Z</time>
      </trkpt>
      <trkpt lat="45.35311" lon="5.66185">
        <ele>672.6</ele>
        <time>2018-07-14T08:11:23Z</time>
      </trkpt>
      <trkpt lat="45.35319" lon="5.66191">
        <ele>673.4</ele>
        <time>2018-07-14T08:11:28Z</time>
      </trkpt>
      <trkpt lat="45.35329" lon="5.66194">
        <ele>674.5</ele>
        <time>2018-07-14T08:11:34Z</time>
      </trkpt>
      <trkpt lat="45.35338" lon="5.66197">
        <ele>675.8</ele>
        <time>2018-07-14T08:11:40Z</time>
      </trkpt>
      <trkpt lat="45.35348" lon="5.66199">
        <ele>677</ele>
        <time>2018-07-14T08:11:46Z</time>
      </trkpt>
      <trkpt lat="45.35359" lon="5.662">
        <ele>677.5</ele>
        <time>2018-07-14T08:11:52Z</time>
      </trkpt>
      <trkpt lat="45.35368" lon="5.66203">
        <ele>679.2</ele>
        <time>2018-07-14T08:11:58Z</time>
      </trkpt>
      <trkpt lat="45.35379" lon="5.66207">
        <ele>680.3</ele>
        <time>2018-07-14T08:12:05Z</time>
      </trkpt>
      <trkpt lat="45.35388" lon="5.66211">
        <ele>681.4</ele>
        <time>2018-07-14T08:12:12Z</time>
      </trkpt>
      <trkpt lat="45.35398" lon="5.66214">
        <ele>682.2</ele>
        <time>2018-07-14T08:12:19Z</time>
      </trkpt>
      <trkpt lat="45.35408" lon="5.66218">
        <ele>683</ele>
        <time>2018-07-14T08:12:24Z</time>
      </trkpt>
      <trkpt lat="45.35416" lon="5.66221">
        <ele>683.2</ele>
        <time>2018-07-14T08:12:27Z</time>
      </trkpt>
      <trkpt lat="45.35428" lon="5.66225">
        <ele>683.4</ele>
        <time>2018-07-14T08:12:30Z</time>
      </trkpt>
      <trkpt lat="45.35437" lon="5.66228">
        <ele>683.4</ele>
        <time>2018-07-14T08:12:33Z</time>
      </trkpt>
      <trkpt lat="45.35446" lon="5.6624">
        <ele>682.8</ele>
        <time>2018-07-14T08:12:36Z</time>
      </trkpt>
      <trkpt lat="45.35455" lon="5.66251">
        <ele>682.4</ele>
        <time>2018-07-14T08:12:38Z</time>
      </trkpt>
      <trkpt lat="45.35465" lon="5.66259">
        <ele>682</ele>
        <time>2018-07-14T08:12:40Z</time>
      </trkpt>
      <trkpt lat="45.35472" lon="5.66267">
        <ele>680.5</ele>
        <time>2018-07-14T08:12:43Z</time>
      </trkpt>
      <trkpt lat="45.3548" lon="5.66278">
        <ele>678</ele>
        <time>2018-07-14T08:12:46Z</time>
      </trkpt>
      <trkpt lat="45.35488" lon="5.66285">
        <ele>676.6</ele>
        <time>2018-07-14T08:12:48Z</time>
      </trkpt>
      <trkpt lat="45.35498" lon="5.66291">
        <ele>675.3</ele>
        <time>2018-07-14T08:12:51Z</time>
      </trkpt>
      <trkpt lat="45.35508" lon="5.66298">
        <ele>674.9</ele>
        <time>2018-07-14T08:12:55Z</time>
      </trkpt>
      <trkpt lat="45.35515" lon="5.66308">
        <ele>674.6</ele>
        <time>2018-07-14T08:12:58Z</time>
      </trkpt>
      <trkpt lat="45.35523" lon="5.66318">
        <ele>674.2</ele>
        <time>2018-07-14T08:13:01Z</time>
      </trkpt>
      <trkpt lat="45.35532" lon="5.66326">
        <ele>673.9</ele>
        <time>2018-07-14T08:13:04Z</time>
      </trkpt>
      <trkpt lat="45.3554" lon="5.66332">
        <ele>673.9</ele>
        <time>2018-07-14T08:13:08Z</time>
      </trkpt>
      <trkpt lat="45.3555" lon="5.66338">
        <ele>674.4</ele>
        <time>2018-07-14T08:13:13Z</time>
      </trkpt>
      <trkpt lat="45.35559" lon="5.66343">
        <ele>675.2</ele>
        <time>2018-07-14T08:13:18Z</time>
      </trkpt>
      <trkpt lat="45.35569" lon="5.66349">
        <ele>675.8</ele>
        <time>2018-07-14T08:13:23Z</time>
      </trkpt>
      <trkpt lat="45.35578" lon="5.66353">
        <ele>677.1</ele>
        <time>2018-07-14T08:13:30Z</time>
      </trkpt>
      <trkpt lat="45.35587" lon="5.66351">
        <ele>677.5</ele>
        <time>2018-07-14T08:13:36Z</time>
      </trkpt>
      <trkpt lat="45.35595" lon="5.66341">
        <ele>677.4</ele>
        <time>2018-07-14T08:13:40Z</time>
      </trkpt>
      <trkpt lat="45.35603" lon="5.66331">
        <ele>677.5</ele>
        <time>2018-07-14T08:13:44Z</time>
      </trkpt>
      <trkpt lat="45.35607" lon="5.66316">
        <ele>677.5</ele>
        <time>2018-07-14T08:13:48Z</time>
      </trkpt>
      <trkpt lat="45.35614" lon="5.66306">
        <ele>677.5</ele>
        <time>2018-07-14T08:13:51Z</time>
      </trkpt>
      <trkpt lat="45.35623" lon="5.66301">
        <ele>677</ele>
        <time>2018-07-14T08:13:54Z</time>
      </trkpt>
      <trkpt lat="45.35629" lon="5.66291">
        <ele>674.6</ele>
        <time>2018-07-14T08:14:39Z</time>
      </trkpt>
      <trkpt lat="45.35633" lon="5.66277">
        <ele>673.7</ele>
        <time>2018-07-14T08:14:47Z</time>
      </trkpt>
      <trkpt lat="45.35634" lon="5.66262">
        <ele>671.5</ele>
        <time>2018-07-14T08:14:53Z</time>
      </trkpt>
      <trkpt lat="45.35642" lon="5.66249">
        <ele>670.3</ele>
        <time>2018-07-14T08:14:56Z</time>
      </trkpt>
      <trkpt lat="45.35647" lon="5.66239">
        <ele>669</ele>
        <time>2018-07-14T08:15:00Z</time>
      </trkpt>
      <trkpt lat="45.35641" lon="5.66226">
        <ele>668.1</ele>
        <time>2018-07-14T08:15:06Z</time>
      </trkpt>
      <trkpt lat="45.35631" lon="5.66221">
        <ele>667.8</ele>
        <time>2018-07-14T08:15:11Z</time>
      </trkpt>
      <trkpt lat="45.35623" lon="5.66215">
        <ele>667.9</ele>
        <time>2018-07-14T08:15:16Z</time>
      </trkpt>
      <trkpt lat="45.35614" lon="5.66209">
        <ele>667.9</ele>
        <time>2018-07-14T08:15:21Z</time>
      </trkpt>
      <trkpt lat="45.35605" lon="5.66205">
        <ele>668</ele>
        <time>2018-07-14T08:15:26Z</time>
      </trkpt>
      <trkpt lat="45.35595" lon="5.662">
        <ele>669.1</ele>
        <time>2018-07-14T08:15:32Z</time>
      </trkpt>
      <trkpt lat="45.35586" lon="5.66195">
        <ele>669.5</ele>
        <time>2018-07-14T08:15:37Z</time>
      </trkpt>
      <trkpt lat="45.35577" lon="5.66187">
        <ele>669.9</ele>
        <time>2018-07-14T08:15:42Z</time>
      </trkpt>
      <trkpt lat="45.35568" lon="5.6618">
        <ele>670.2</ele>
        <time>2018-07-14T08:15:47Z</time>
      </trkpt>
      <trkpt lat="45.35559" lon="5.66175">
        <ele>670.8</ele>
        <time>2018-07-14T08:15:52Z</time>
      </trkpt>
      <trkpt lat="45.3555" lon="5.66171">
        <ele>671.3</ele>
        <time>2018-07-14T08:15:57Z</time>
      </trkpt>
      <trkpt lat="45.35539" lon="5.66167">
        <ele>671.7</ele>
        <time>2018-07-14T08:16:03Z</time>
      </trkpt>
      <trkpt lat="45.35529" lon="5.66166">
        <ele>672.6</ele>
        <time>2018-07-14T08:16:09Z</time>
      </trkpt>
      <trkpt lat="45.35519" lon="5.66166">
        <ele>673.6</ele>
        <time>2018-07-14T08:16:15Z</time>
      </trkpt>
      <trkpt lat="45.3551" lon="5.66168">
        <ele>674.2</ele>
        <time>2018-07-14T08:16:20Z</time>
      </trkpt>
      <trkpt lat="45.35501" lon="5.66166">
        <ele>674.8</ele>
        <time>2018-07-14T08:16:25Z</time>
      </trkpt>
      <trkpt lat="45.35492" lon="5.66166">
        <ele>675.5</ele>
        <time>2018-07-14T08:16:31Z</time>
      </trkpt>
      <trkpt lat="45.35481" lon="5.66163">
        <ele>676.3</ele>
        <time>2018-07-14T08:16:37Z</time>
      </trkpt>
      <trkpt lat="45.35473" lon="5.66156">
        <ele>677.6</ele>
        <time>2018-07-14T08:16:44Z</time>
      </trkpt>
      <trkpt lat="45.35465" lon="5.66147">
        <ele>678.9</ele>
        <time>2018-07-14T08:16:52Z</time>
      </trkpt>
      <trkpt lat="45.3546" lon="5.66136">
        <ele>679.9</ele>
        <time>2018-07-14T08:17:00Z</time>
      </trkpt>
      <trkpt lat="45.35469" lon="5.66132">
        <ele>681.3</ele>
        <time>2018-07-14T08:17:09Z</time>
      </trkpt>
      <trkpt lat="45.35478" lon="5.66135">
        <ele>682.6</ele>
        <time>2018-07-14T08:17:18Z</time>
      </trkpt>
      <trkpt lat="45.35488" lon="5.66139">
        <ele>683.6</ele>
        <time>2018-07-14T08:17:27Z</time>
      </trkpt>
      <trkpt lat="45.35501" lon="5.66141">
        <ele>683.6</ele>
        <time>2018-07-14T08:17:31Z</time>
      </trkpt>
      <trkpt lat="45.35511" lon="5.66139">
        <ele>683.4</ele>
        <time>2018-07-14T08:17:33Z</time>
      </trkpt>
      <trkpt lat="45.35525" lon="5.66144">
        <ele>682.8</ele>
        <time>2018-07-14T08:17:36Z</time>
      </trkpt>
      <trkpt lat="45.35535" lon="5.66149">
        <ele>682.1</ele>
        <time>2018-07-14T08:17:38Z</time>
      </trkpt>
      <trkpt lat="45.35546" lon="5.66151">
        <ele>681.5</ele>
        <time>2018-07-14T08:17:40Z</time>
      </trkpt>
      <trkpt lat="45.35556" lon="5.66154">
        <ele>680.9</ele>
        <time>2018-07-14T08:17:42Z</time>
      </trkpt>
      <trkpt lat="45.35568" lon="5.66159">
        <ele>679.9</ele>
        <time>2018-07-14T08:17:45Z</time>
      </trkpt>
      <trkpt lat="45.35579" lon="5.66162">
        <ele>679.4</ele>
        <time>2018-07-14T08:17:48Z</time>
      </trkpt>
      <trkpt lat="45.35592" lon="5.66165">
        <ele>679</ele>
        <time>2018-07-14T08:17:51Z</time>
      </trkpt>
      <trkpt lat="45.35602" lon="5.66164">
        <ele>678.8</ele>
        <time>2018-07-14T08:17:53Z</time>
      </trkpt>
      <trkpt lat="45.35613" lon="5.66165">
        <ele>678.6</ele>
        <time>2018-07-14T08:17:55Z</time>
      </trkpt>
      <trkpt lat="45.35626" lon="5.66165">
        <ele>677.5</ele>
        <time>2018-07-14T08:17:57Z</time>
      </trkpt>
      <trkpt lat="45.35639" lon="5.66167">
        <ele>676.8</ele>
        <time>2018-07-14T08:17:59Z</time>
      </trkpt>
      <trkpt lat="45.35653" lon="5.6617">
        <ele>676.4</ele>
        <time>2018-07-14T08:18:01Z</time>
      </trkpt>
      <trkpt lat="45.35664" lon="5.66176">
        <ele>675.8</ele>
        <time>2018-07-14T08:18:03Z</time>
      </trkpt>
      <trkpt lat="45.35673" lon="5.66182">
        <ele>675</ele>
        <time>2018-07-14T08:18:05Z</time>
      </trkpt>
      <trkpt lat="45.35685" lon="5.6619">
        <ele>674.1</ele>
        <time>2018-07-14T08:18:08Z</time>
      </trkpt>
      <trkpt lat="45.35695" lon="5.66193">
        <ele>673.4</ele>
        <time>2018-07-14T08:18:11Z</time>
      </trkpt>
      <trkpt lat="45.35706" lon="5.66193">
        <ele>673.1</ele>
        <time>2018-07-14T08:18:15Z</time>
      </trkpt>
      <trkpt lat="45.35716" lon="5.66194">
        <ele>673.8</ele>
        <time>2018-07-14T08:18:20Z</time>
      </trkpt>
      <trkpt lat="45.35725" lon="5.66197">
        <ele>674</ele>
        <time>2018-07-14T08:18:24Z</time>
      </trkpt>
      <trkpt lat="45.35735" lon="5.66199">
        <ele>674.4</ele>
        <time>2018-07-14T08:18:29Z</time>
      </trkpt>
      <trkpt lat="45.35746" lon="5.66195">
        <ele>675</ele>
        <time>2018-07-14T08:18:34Z</time>
      </trkpt>
      <trkpt lat="45.35759" lon="5.66195">
        <ele>675</ele>
        <time>2018-07-14T08:18:37Z</time>
      </trkpt>
      <trkpt lat="45.35771" lon="5.66196">
        <ele>674.7</ele>
        <time>2018-07-14T08:18:40Z</time>
      </trkpt>
      <trkpt lat="45.35782" lon="5.662">
        <ele>674.4</ele>
        <time>2018-07-14T08:18:43Z</time>
      </trkpt>
      <trkpt lat="45.35792" lon="5.662">
        <ele>674.4</ele>
        <time>2018-07-14T08:18:46Z</time>
      </trkpt>
      <trkpt lat="45.35802" lon="5.66195">
        <ele>674.3</ele>
        <time>2018-07-14T08:18:49Z</time>
      </trkpt>
      <trkpt lat="45.3581" lon="5.66186">
        <ele>674.1</ele>
        <time>2018-07-14T08:18:52Z</time>
      </trkpt>
      <trkpt lat="45.35817" lon="5.66175">
        <ele>674.2</ele>
        <time>2018-07-14T08:18:56Z</time>
      </trkpt>
      <trkpt lat="45.35824" lon="5.66165">
        <ele>674.2</ele>
        <time>2018-07-14T08:18:59Z</time>
      </trkpt>
      <trkpt lat="45.35829" lon="5.66154">
        <ele>674.4</ele>
        <time>2018-07-14T08:19:02Z</time>
      </trkpt>
      <trkpt lat="45.35831" lon="5.6614">
        <ele>674.9</ele>
        <time>2018-07-14T08:19:08Z</time>
      </trkpt>
      <trkpt lat="45.35831" lon="5.66127">
        <ele>675.6</ele>
        <time>2018-07-14T08:19:14Z</time>
      </trkpt>
      <trkpt lat="45.35834" lon="5.66113">
        <ele>676</ele>
        <time>2018-07-14T08:19:19Z</time>
      </trkpt>
      <trkpt lat="45.35838" lon="5.661">
        <ele>677</ele>
        <time>2018-07-14T08:19:24Z</time>
      </trkpt>
      <trkpt lat="45.35841" lon="5.66087">
        <ele>678.3</ele>
        <time>2018-07-14T08:19:30Z</time>
      </trkpt>
      <trkpt lat="45.35845" lon="5.66073">
        <ele>679.1</ele>
        <time>2018-07-14T08:19:36Z</time>
      </trkpt>
      <trkpt lat="45.35844" lon="5.6606">
        <ele>679.8</ele>
        <time>2018-07-14T08:19:42Z</time>
      </trkpt>
      <trkpt lat="45.35845" lon="5.66046">
        <ele>681.2</ele>
        <time>2018-07-14T08:19:49Z</time>
      </trkpt>
      <trkpt lat="45.35845" lon="5.66033">
        <ele>682.3</ele>
        <time>2018-07-14T08:19:55Z</time>
      </trkpt>
      <trkpt lat="45.35843" lon="5.6602">
        <ele>682.3</ele>
        <time>2018-07-14T08:20:03Z</time>
      </trkpt>
      <trkpt lat="45.35843" lon="5.66006">
        <ele>683</ele>
        <time>2018-07-14T08:20:09Z</time>
      </trkpt>
      <trkpt lat="45.35843" lon="5.65992">
        <ele>684</ele>
        <time>2018-07-14T08:20:15Z</time>
      </trkpt>
      <trkpt lat="45.35844" lon="5.65977">
        <ele>685</ele>
        <time>2018-07-14T08:20:22Z</time>
      </trkpt>
      <trkpt lat="45.35838" lon="5.65968">
        <ele>685.6</ele>
        <time>2018-07-14T08:20:53Z</time>
      </trkpt>
      <trkpt lat="45.3583" lon="5.6596">
        <ele>685.9</ele>
        <time>2018-07-14T08:21:01Z</time>
      </trkpt>
      <trkpt lat="45.35822" lon="5.65954">
        <ele>686.3</ele>
        <time>2018-07-14T08:21:06Z</time>
      </trkpt>
      <trkpt lat="45.35813" lon="5.65952">
        <ele>686.9</ele>
        <time>2018-07-14T08:21:11Z</time>
      </trkpt>
      <trkpt lat="45.35803" lon="5.65947">
        <ele>687.6</ele>
        <time>2018-07-14T08:21:16Z</time>
      </trkpt>
      <trkpt lat="45.35792" lon="5.65944">
        <ele>687.4</ele>
        <time>2018-07-14T08:21:21Z</time>
      </trkpt>
      <trkpt lat="45.35781" lon="5.65939">
        <ele>687.2</ele>
        <time>2018-07-14T08:21:26Z</time>
      </trkpt>
      <trkpt lat="45.35771" lon="5.65939">
        <ele>687.2</ele>
        <time>2018-07-14T08:21:30Z</time>
      </trkpt>
      <trkpt lat="45.35761" lon="5.6594">
        <ele>687.2</ele>
        <time>2018-07-14T08:21:35Z</time>
      </trkpt>
      <trkpt lat="45.35752" lon="5.65939">
        <ele>687.7</ele>
        <time>2018-07-14T08:21:40Z</time>
      </trkpt>
      <trkpt lat="45.35742" lon="5.65937">
        <ele>687.9</ele>
        <time>2018-07-14T08:21:44Z</time>
      </trkpt>
      <trkpt lat="45.35732" lon="5.65937">
        <ele>688.2</ele>
        <time>2018-07-14T08:21:48Z</time>
      </trkpt>
      <trkpt lat="45.35722" lon="5.65934">
        <ele>688.8</ele>
        <time>2018-07-14T08:21:53Z</time>
      </trkpt>
      <trkpt lat="45.35712" lon="5.65928">
        <ele>689.3</ele>
        <time>2018-07-14T08:21:57Z</time>
      </trkpt>
      <trkpt lat="45.35702" lon="5.65924">
        <ele>689.6</ele>
        <time>2018-07-14T08:22:01Z</time>
      </trkpt>
      <trkpt lat="45.35693" lon="5.65918">
        <ele>689.8</ele>
        <time>2018-07-14T08:22:06Z</time>
      </trkpt>
      <trkpt lat="45.35683" lon="5.65914">
        <ele>690.1</ele>
        <time>2018-07-14T08:22:10Z</time>
      </trkpt>
      <trkpt lat="45.35672" lon="5.65913">
        <ele>690.9</ele>
        <time>2018-07-14T08:22:15Z</time>
      </trkpt>
      <trkpt lat="45.35661" lon="5.6591">
        <ele>691.3</ele>
        <time>2018-07-14T08:22:20Z</time>
      </trkpt>
      <trkpt lat="45.35651" lon="5.65906">
        <ele>691.7</ele>
        <time>2018-07-14T08:22:24Z</time>
      </trkpt>
      <trkpt lat="45.35643" lon="5.659">
        <ele>692.6</ele>
        <time>2018-07-14T08:22:29Z</time>
      </trkpt>
      <trkpt lat="45.35636" lon="5.6589">
        <ele>693.5</ele>
        <time>2018-07-14T08:22:33Z</time>
      </trkpt>
      <trkpt lat="45.35629" lon="5.65881">
        <ele>693.8</ele>
        <time>2018-07-14T08:22:37Z</time>
      </trkpt>
      <trkpt lat="45.35621" lon="5.65873">
        <ele>693.9</ele>
        <time>2018-07-14T08:22:41Z</time>
      </trkpt>
      <trkpt lat="45.35612" lon="5.65863">
        <ele>694.1</ele>
        <time>2018-07-14T08:22:45Z</time>
      </trkpt>
      <trkpt lat="45.35604" lon="5.65856">
        <ele>694.2</ele>
        <time>2018-07-14T08:22:48Z</time>
      </trkpt>
      <trkpt lat="45.35594" lon="5.65852">
        <ele>694.2</ele>
        <time>2018-07-14T08:22:51Z</time>
      </trkpt>
      <trkpt lat="45.35582" lon="5.6585">
        <ele>693.7</ele>
        <time>2018-07-14T08:22:54Z</time>
      </trkpt>
      <trkpt lat="45.35572" lon="5.65849">
        <ele>693.8</ele>
        <time>2018-07-14T08:22:59Z</time>
      </trkpt>
      <trkpt lat="45.35564" lon="5.65845">
        <ele>693.9</ele>
        <time>2018-07-14T08:23:03Z</time>
      </trkpt>
      <trkpt lat="45.35553" lon="5.65841">
        <ele>694</ele>
        <time>2018-07-14T08:23:07Z</time>
      </trkpt>
      <trkpt lat="45.35541" lon="5.65837">
        <ele>694.2</ele>
        <time>2018-07-14T08:23:11Z</time>
      </trkpt>
      <trkpt lat="45.35532" lon="5.65833">
        <ele>694.6</ele>
        <time>2018-07-14T08:23:15Z</time>
      </trkpt>
      <trkpt lat="45.35523" lon="5.65828">
        <ele>694.7</ele>
        <time>2018-07-14T08:23:19Z</time>
      </trkpt>
      <trkpt lat="45.35516" lon="5.65819">
        <ele>694.4</ele>
        <time>2018-07-14T08:23:24Z</time>
      </trkpt>
      <trkpt lat="45.35506" lon="5.65809">
        <ele>694.1</ele>
        <time>2018-07-14T08:23:27Z</time>
      </trkpt>
      <trkpt lat="45.35501" lon="5.65799">
        <ele>694.3</ele>
        <time>2018-07-14T08:23:31Z</time>
      </trkpt>
      <trkpt lat="45.35494" lon="5.65789">
        <ele>695.1</ele>
        <time>2018-07-14T08:23:35Z</time>
      </trkpt>
      <trkpt lat="45.35487" lon="5.65777">
        <ele>695.4</ele>
        <time>2018-07-14T08:23:38Z</time>
      </trkpt>
      <trkpt lat="45.35484" lon="5.65764">
        <ele>695.6</ele>
        <time>2018-07-14T08:23:43Z</time>
      </trkpt>
      <trkpt lat="45.35479" lon="5.65753">
        <ele>695.4</ele>
        <time>2018-07-14T08:23:50Z</time>
      </trkpt>
      <trkpt lat="45.35472" lon="5.65745">
        <ele>695</ele>
        <time>2018-07-14T08:24:11Z</time>
      </trkpt>
      <trkpt lat="45.35482" lon="5.65751">
        <ele>694.8</ele>
        <time>2018-07-14T08:25:19Z</time>
      </trkpt>
      <trkpt lat="45.35493" lon="5.65752">
        <ele>694.9</ele>
        <time>2018-07-14T08:25:23Z</time>
      </trkpt>
      <trkpt lat="45.35503" lon="5.65752">
        <ele>694.9</ele>
        <time>2018-07-14T08:25:27Z</time>
      </trkpt>
      <trkpt lat="45.35512" lon="5.65747">
        <ele>694.7</ele>
        <time>2018-07-14T08:25:30Z</time>
      </trkpt>
      <trkpt lat="45.35521" lon="5.65738">
        <ele>694.8</ele>
        <time>2018-07-14T08:25:34Z</time>
      </trkpt>
      <trkpt lat="45.35531" lon="5.65728">
        <ele>695.2</ele>
        <time>2018-07-14T08:25:38Z</time>
      </trkpt>
      <trkpt lat="45.3554" lon="5.65717">
        <ele>695.7</ele>
        <time>2018-07-14T08:25:42Z</time>
      </trkpt>
      <trkpt lat="45.35549" lon="5.65709">
        <ele>696.1</ele>
        <time>2018-07-14T08:25:45Z</time>
      </trkpt>
      <trkpt lat="45.35557" lon="5.65701">
        <ele>696.8</ele>
        <time>2018-07-14T08:25:48Z</time>
      </trkpt>
      <trkpt lat="45.35564" lon="5.65691">
        <ele>697.5</ele>
        <time>2018-07-14T08:25:51Z</time>
      </trkpt>
      <trkpt lat="45.35572" lon="5.65679">
        <ele>698</ele>
        <time>2018-07-14T08:25:54Z</time>
      </trkpt>
      <trkpt lat="45.35578" lon="5.65668">
        <ele>698.1</ele>
        <time>2018-07-14T08:25:56Z</time>
      </trkpt>
      <trkpt lat="45.35583" lon="5.65654">
        <ele>698</ele>
        <time>2018-07-14T08:25:58Z</time>
      </trkpt>
      <trkpt lat="45.35588" lon="5.65639">
        <ele>697.8</ele>
        <time>2018-07-14T08:26:00Z</time>
      </trkpt>
      <trkpt lat="45.35593" lon="5.65623">
        <ele>697.6</ele>
        <time>2018-07-14T08:26:02Z</time>
      </trkpt>
      <trkpt lat="45.35597" lon="5.65606">
        <ele>697.1</ele>
        <time>2018-07-14T08:26:04Z</time>
      </trkpt>
      <trkpt lat="45.35602" lon="5.65589">
        <ele>696.5</ele>
        <time>2018-07-14T08:26:06Z</time>
      </trkpt>
      <trkpt lat="45.35607" lon="5.65572">
        <ele>695.9</ele>
        <time>2018-07-14T08:26:08Z</time>
      </trkpt>
      <trkpt lat="45.35611" lon="5.65556">
        <ele>695.4</ele>
        <time>2018-07-14T08:26:10Z</time>
      </trkpt>
      <trkpt lat="45.35616" lon="5.65539">
        <ele>695</ele>
        <time>2018-07-14T08:26:12Z</time>
      </trkpt>
      <trkpt lat="45.3562" lon="5.65524">
        <ele>694.7</ele>
        <time>2018-07-14T08:26:14Z</time>
      </trkpt>
      <trkpt lat="45.35623" lon="5.65509">
        <ele>694.4</ele>
        <time>2018-07-14T08:26:16Z</time>
      </trkpt>
      <trkpt lat="45.35627" lon="5.65494">
        <ele>694.1</ele>
        <time>2018-07-14T08:26:18Z</time>
      </trkpt>
      <trkpt lat="45.35631" lon="5.6548">
        <ele>693.8</ele>
        <time>2018-07-14T08:26:20Z</time>
      </trkpt>
      <trkpt lat="45.35641" lon="5.6548">
        <ele>693.7</ele>
        <time>2018-07-14T08:26:23Z</time>
      </trkpt>
      <trkpt lat="45.35644" lon="5.65492">
        <ele>693.8</ele>
        <time>2018-07-14T08:26:26Z</time>
      </trkpt>
      <trkpt lat="45.35648" lon="5.65506">
        <ele>693.8</ele>
        <time>2018-07-14T08:26:29Z</time>
      </trkpt>
      <trkpt lat="45.35652" lon="5.65518">
        <ele>694</ele>
        <time>2018-07-14T08:26:32Z</time>
      </trkpt>
      <trkpt lat="45.35659" lon="5.6553">
        <ele>694.1</ele>
        <time>2018-07-14T08:26:35Z</time>
      </trkpt>
      <trkpt lat="45.35665" lon="5.65542">
        <ele>694.4</ele>
        <time>2018-07-14T08:26:38Z</time>
      </trkpt>
      <trkpt lat="45.35673" lon="5.65556">
        <ele>694.8</ele>
        <time>2018-07-14T08:26:41Z</time>
      </trkpt>
      <trkpt lat="45.3568" lon="5.65569">
        <ele>694.7</ele>
        <time>2018-07-14T08:26:44Z</time>
      </trkpt>
      <trkpt lat="45.35687" lon="5.65583">
        <ele>694.6</ele>
        <time>2018-07-14T08:26:47Z</time>
      </trkpt>
      <trkpt lat="45.35693" lon="5.65597">
        <ele>694.8</ele>
        <time>2018-07-14T08:26:50Z</time>
      </trkpt>
      <trkpt lat="45.357" lon="5.65609">
        <ele>695.1</ele>
        <time>2018-07-14T08:26:53Z</time>
      </trkpt>
      <trkpt lat="45.35706" lon="5.65623">
        <ele>695.3</ele>
        <time>2018-07-14T08:26:56Z</time>
      </trkpt>
      <trkpt lat="45.35709" lon="5.6564">
        <ele>695.5</ele>
        <time>2018-07-14T08:26:59Z</time>
      </trkpt>
      <trkpt lat="45.35712" lon="5.65657">
        <ele>695.6</ele>
        <time>2018-07-14T08:27:02Z</time>
      </trkpt>
      <trkpt lat="45.35716" lon="5.65676">
        <ele>695.7</ele>
        <time>2018-07-14T08:27:05Z</time>
      </trkpt>
      <trkpt lat="45.35718" lon="5.65695">
        <ele>695.8</ele>
        <time>2018-07-14T08:27:08Z</time>
      </trkpt>
      <trkpt lat="45.3572" lon="5.65708">
        <ele>696</ele>
        <time>2018-07-14T08:27:10Z</time>
      </trkpt>
      <trkpt lat="45.35722" lon="5.65723">
        <ele>695.9</ele>
        <time>2018-07-14T08:27:12Z</time>
      </trkpt>
      <trkpt lat="45.35726" lon="5.65738">
        <ele>695.6</ele>
        <time>2018-07-14T08:27:14Z</time>
      </trkpt>
      <trkpt lat="45.35732" lon="5.65752">
        <ele>695.2</ele>
        <time>2018-07-14T08:27:16Z</time>
      </trkpt>
      <trkpt lat="45.35739" lon="5.65766">
        <ele>695</ele>
        <time>2018-07-14T08:27:18Z</time>
      </trkpt>
      <trkpt lat="45.35748" lon="5.65779">
        <ele>694.7</ele>
        <time>2018-07-14T08:27:20Z</time>
      </trkpt>
      <trkpt lat="45.35757" lon="5.65793">
        <ele>694.4</ele>
        <time>2018-07-14T08:27:22Z</time>
      </trkpt>
      <trkpt lat="45.35765" lon="5.65808">
        <ele>694</ele>
        <time>2018-07-14T08:27:24Z</time>
      </trkpt>
      <trkpt lat="45.35775" lon="5.65826">
        <ele>693.5</ele>
        <time>2018-07-14T08:27:26Z</time>
      </trkpt>
      <trkpt lat="45.3578" lon="5.65837">
        <ele>693.3</ele>
        <time>2018-07-14T08:27:27Z</time>
      </trkpt>
      <trkpt lat="45.35786" lon="5.65847">
        <ele>692.7</ele>
        <time>2018-07-14T08:27:28Z</time>
      </trkpt>
      <trkpt lat="45.35793" lon="5.65857">
        <ele>692.3</ele>
        <time>2018-07-14T08:27:29Z</time>
      </trkpt>
      <trkpt lat="45.35799" lon="5.65868">
        <ele>691.7</ele>
        <time>2018-07-14T08:27:30Z</time>
      </trkpt>
      <trkpt lat="45.35806" lon="5.65878">
        <ele>691.1</ele>
        <time>2018-07-14T08:27:31Z</time>
      </trkpt>
      <trkpt lat="45.35814" lon="5.65886">
        <ele>690.4</ele>
        <time>2018-07-14T08:27:32Z</time>
      </trkpt>
      <trkpt lat="45.35822" lon="5.65894">
        <ele>689.7</ele>
        <time>2018-07-14T08:27:33Z</time>
      </trkpt>
      <trkpt lat="45.35829" lon="5.65902">
        <ele>689.2</ele>
        <time>2018-07-14T08:27:34Z</time>
      </trkpt>
      <trkpt lat="45.35842" lon="5.65916">
        <ele>687.9</ele>
        <time>2018-07-14T08:27:36Z</time>
      </trkpt>
      <trkpt lat="45.35852" lon="5.65925">
        <ele>686.7</ele>
        <time>2018-07-14T08:27:38Z</time>
      </trkpt>
      <trkpt lat="45.35861" lon="5.65933">
        <ele>685.6</ele>
        <time>2018-07-14T08:27:41Z</time>
      </trkpt>
      <trkpt lat="45.35867" lon="5.65944">
        <ele>684.3</ele>
        <time>2018-07-14T08:27:45Z</time>
      </trkpt>
      <trkpt lat="45.35869" lon="5.65957">
        <ele>683.9</ele>
        <time>2018-07-14T08:27:48Z</time>
      </trkpt>
      <trkpt lat="45.35874" lon="5.65974">
        <ele>683.6</ele>
        <time>2018-07-14T08:27:51Z</time>
      </trkpt>
      <trkpt lat="45.35879" lon="5.65988">
        <ele>682.8</ele>
        <time>2018-07-14T08:27:53Z</time>
      </trkpt>
      <trkpt lat="45.35885" lon="5.66004">
        <ele>682.1</ele>
        <time>2018-07-14T08:27:55Z</time>
      </trkpt>
      <trkpt lat="45.35892" lon="5.66025">
        <ele>679.9</ele>
        <time>2018-07-14T08:27:57Z</time>
      </trkpt>
      <trkpt lat="45.35895" lon="5.66049">
        <ele>677.6</ele>
        <time>2018-07-14T08:27:59Z</time>
      </trkpt>
      <trkpt lat="45.359" lon="5.6607">
        <ele>676.1</ele>
        <time>2018-07-14T08:28:01Z</time>
      </trkpt>
      <trkpt lat="45.35903" lon="5.66086">
        <ele>673.3</ele>
        <time>2018-07-14T08:28:04Z</time>
      </trkpt>
      <trkpt lat="45.35905" lon="5.66101">
        <ele>671.2</ele>
        <time>2018-07-14T08:28:09Z</time>
      </trkpt>
      <trkpt lat="45.35907" lon="5.66117">
        <ele>669.8</ele>
        <time>2018-07-14T08:28:13Z</time>
      </trkpt>
      <trkpt lat="45.35904" lon="5.6613">
        <ele>668.3</ele>
        <time>2018-07-14T08:28:16Z</time>
      </trkpt>
      <trkpt lat="45.35902" lon="5.66145">
        <ele>667.3</ele>
        <time>2018-07-14T08:28:20Z</time>
      </trkpt>
      <trkpt lat="45.35903" lon="5.66161">
        <ele>666.6</ele>
        <time>2018-07-14T08:28:24Z</time>
      </trkpt>
      <trkpt lat="45.35908" lon="5.66175">
        <ele>666.4</ele>
        <time>2018-07-14T08:28:28Z</time>
      </trkpt>
      <trkpt lat="45.35909" lon="5.66188">
        <ele>666.5</ele>
        <time>2018-07-14T08:28:31Z</time>
      </trkpt>
      <trkpt lat="45.3591" lon="5.66201">
        <ele>666.4</ele>
        <time>2018-07-14T08:28:36Z</time>
      </trkpt>
      <trkpt lat="45.35905" lon="5.66214">
        <ele>666.3</ele>
        <time>2018-07-14T08:28:40Z</time>
      </trkpt>
      <trkpt lat="45.35896" lon="5.66221">
        <ele>666.2</ele>
        <time>2018-07-14T08:28:44Z</time>
      </trkpt>
      <trkpt lat="45.35886" lon="5.66225">
        <ele>666.2</ele>
        <time>2018-07-14T08:28:47Z</time>
      </trkpt>
      <trkpt lat="45.35875" lon="5.66234">
        <ele>665.9</ele>
        <time>2018-07-14T08:28:50Z</time>
      </trkpt>
      <trkpt lat="45.35867" lon="5.66244">
        <ele>665.4</ele>
        <time>2018-07-14T08:28:52Z</time>
      </trkpt>
      <trkpt lat="45.35859" lon="5.66259">
        <ele>664.6</ele>
        <time>2018-07-14T08:28:54Z</time>
      </trkpt>
      <trkpt lat="45.3585" lon="5.66276">
        <ele>663.5</ele>
        <time>2018-07-14T08:28:56Z</time>
      </trkpt>
      <trkpt lat="45.35845" lon="5.66293">
        <ele>662</ele>
        <time>2018-07-14T08:28:58Z</time>
      </trkpt>
      <trkpt lat="45.35844" lon="5.66309">
        <ele>660.3</ele>
        <time>2018-07-14T08:29:00Z</time>
      </trkpt>
      <trkpt lat="45.35842" lon="5.66327">
        <ele>658.8</ele>
        <time>2018-07-14T08:29:02Z</time>
      </trkpt>
      <trkpt lat="45.3584" lon="5.66343">
        <ele>657.8</ele>
        <time>2018-07-14T08:29:04Z</time>
      </trkpt>
      <trkpt lat="45.3584" lon="5.66357">
        <ele>657.1</ele>
        <time>2018-07-14T08:29:06Z</time>
      </trkpt>
      <trkpt lat="45.35843" lon="5.66371">
        <ele>656.9</ele>
        <time>2018-07-14T08:29:08Z</time>
      </trkpt>
      <trkpt lat="45.35847" lon="5.66385">
        <ele>656.8</ele>
        <time>2018-07-14T08:29:10Z</time>
      </trkpt>
      <trkpt lat="45.35851" lon="5.66399">
        <ele>656.5</ele>
        <time>2018-07-14T08:29:12Z</time>
      </trkpt>
      <trkpt lat="45.35852" lon="5.66414">
        <ele>655.4</ele>
        <time>2018-07-14T08:29:15Z</time>
      </trkpt>
      <trkpt lat="45.35858" lon="5.66426">
        <ele>651.7</ele>
        <time>2018-07-14T08:29:31Z</time>
      </trkpt>
      <trkpt lat="45.35867" lon="5.6643">
        <ele>650.6</ele>
        <time>2018-07-14T08:29:40Z</time>
      </trkpt>
      <trkpt lat="45.35878" lon="5.66434">
        <ele>649.4</ele>
        <time>2018-07-14T08:29:44Z</time>
      </trkpt>
      <trkpt lat="45.35888" lon="5.66435">
        <ele>648.6</ele>
        <time>2018-07-14T08:29:47Z</time>
      </trkpt>
      <trkpt lat="45.35898" lon="5.66438">
        <ele>646.9</ele>
        <time>2018-07-14T08:29:51Z</time>
      </trkpt>
      <trkpt lat="45.35908" lon="5.66438">
        <ele>645.7</ele>
        <time>2018-07-14T08:29:56Z</time>
      </trkpt>
      <trkpt lat="45.35919" lon="5.66434">
        <ele>645.2</ele>
        <time>2018-07-14T08:29:59Z</time>
      </trkpt>
      <trkpt lat="45.35928" lon="5.66433">
        <ele>645</ele>
        <time>2018-07-14T08:30:01Z</time>
      </trkpt>
      <trkpt lat="45.35942" lon="5.66433">
        <ele>644.4</ele>
        <time>2018-07-14T08:30:04Z</time>
      </trkpt>
      <trkpt lat="45.35952" lon="5.6643">
        <ele>644</ele>
        <time>2018-07-14T08:30:07Z</time>
      </trkpt>
      <trkpt lat="45.35961" lon="5.66423">
        <ele>643.6</ele>
        <time>2018-07-14T08:30:10Z</time>
      </trkpt>
      <trkpt lat="45.35971" lon="5.66413">
        <ele>643.1</ele>
        <time>2018-07-14T08:30:15Z</time>
      </trkpt>
      <trkpt lat="45.35978" lon="5.66404">
        <ele>642.6</ele>
        <time>2018-07-14T08:30:19Z</time>
      </trkpt>
      <trkpt lat="45.35989" lon="5.66399">
        <ele>642.3</ele>
        <time>2018-07-14T08:30:23Z</time>
      </trkpt>
      <trkpt lat="45.35999" lon="5.664">
        <ele>642.7</ele>
        <time>2018-07-14T08:30:28Z</time>
      </trkpt>
      <trkpt lat="45.36009" lon="5.66401">
        <ele>642.8</ele>
        <time>2018-07-14T08:30:31Z</time>
      </trkpt>
      <trkpt lat="45.36018" lon="5.66405">
        <ele>643</ele>
        <time>2018-07-14T08:30:35Z</time>
      </trkpt>
      <trkpt lat="45.36027" lon="5.6641">
        <ele>643.2</ele>
        <time>2018-07-14T08:30:39Z</time>
      </trkpt>
      <trkpt lat="45.36036" lon="5.66415">
        <ele>644.1</ele>
        <time>2018-07-14T08:30:43Z</time>
      </trkpt>
      <trkpt lat="45.36045" lon="5.66422">
        <ele>644.9</ele>
        <time>2018-07-14T08:30:47Z</time>
      </trkpt>
      <trkpt lat="45.36053" lon="5.66429">
        <ele>645.4</ele>
        <time>2018-07-14T08:30:50Z</time>
      </trkpt>
      <trkpt lat="45.36063" lon="5.66436">
        <ele>645.6</ele>
        <time>2018-07-14T08:30:54Z</time>
      </trkpt>
      <trkpt lat="45.36073" lon="5.66437">
        <ele>645.6</ele>
        <time>2018-07-14T08:30:57Z</time>
      </trkpt>
      <trkpt lat="45.36083" lon="5.66436">
        <ele>645.6</ele>
        <time>2018-07-14T08:31:00Z</time>
      </trkpt>
      <trkpt lat="45.36094" lon="5.66435">
        <ele>645.4</ele>
        <time>2018-07-14T08:31:04Z</time>
      </trkpt>
      <trkpt lat="45.36103" lon="5.6643">
        <ele>645.4</ele>
        <time>2018-07-14T08:31:07Z</time>
      </trkpt>
      <trkpt lat="45.36111" lon="5.6642">
        <ele>645.3</ele>
        <time>2018-07-14T08:31:10Z</time>
      </trkpt>
      <trkpt lat="45.36118" lon="5.66409">
        <ele>645.2</ele>
        <time>2018-07-14T08:31:15Z</time>
      </trkpt>
      <trkpt lat="45.36122" lon="5.66397">
        <ele>645.2</ele>
        <time>2018-07-14T08:31:19Z</time>
      </trkpt>
      <trkpt lat="45.36122" lon="5.66385">
        <ele>646.5</ele>
        <time>2018-07-14T08:31:25Z</time>
      </trkpt>
      <trkpt lat="45.36124" lon="5.6637">
        <ele>648.8</ele>
        <time>2018-07-14T08:31:32Z</time>
      </trkpt>
      <trkpt lat="45.3612" lon="5.66357">
        <ele>650.5</ele>
        <time>2018-07-14T08:31:41Z</time>
      </trkpt>
      <trkpt lat="45.3612" lon="5.66344">
        <ele>651.7</ele>
        <time>2018-07-14T08:31:48Z</time>
      </trkpt>
      <trkpt lat="45.36121" lon="5.66331">
        <ele>653</ele>
        <time>2018-07-14T08:31:57Z</time>
      </trkpt>
      <trkpt lat="45.36124" lon="5.66318">
        <ele>654.3</ele>
        <time>2018-07-14T08:32:05Z</time>
      </trkpt>
      <trkpt lat="45.36128" lon="5.66305">
        <ele>655.6</ele>
        <time>2018-07-14T08:32:11Z</time>
      </trkpt>
      <trkpt lat="45.36127" lon="5.66291">
        <ele>656.6</ele>
        <time>2018-07-14T08:32:21Z</time>
      </trkpt>
      <trkpt lat="45.36125" lon="5.66277">
        <ele>656.9</ele>
        <time>2018-07-14T08:32:28Z</time>
      </trkpt>
      <trkpt lat="45.36121" lon="5.66264">
        <ele>657.9</ele>
        <time>2018-07-14T08:32:35Z</time>
      </trkpt>
      <trkpt lat="45.36117" lon="5.66249">
        <ele>659.3</ele>
        <time>2018-07-14T08:32:44Z</time>
      </trkpt>
      <trkpt lat="45.36118" lon="5.66235">
        <ele>660.6</ele>
        <time>2018-07-14T08:32:51Z</time>
      </trkpt>
      <trkpt lat="45.36113" lon="5.66222">
        <ele>661.8</ele>
        <time>2018-07-14T08:32:59Z</time>
      </trkpt>
      <trkpt lat="45.36113" lon="5.66208">
        <ele>663.3</ele>
        <time>2018-07-14T08:33:06Z</time>
      </trkpt>
      <trkpt lat="45.36113" lon="5.66193">
        <ele>664.1</ele>
        <time>2018-07-14T08:33:12Z</time>
      </trkpt>
      <trkpt lat="45.36108" lon="5.66181">
        <ele>664</ele>
        <time>2018-07-14T08:33:16Z</time>
      </trkpt>
      <trkpt lat="45.36116" lon="5.66175">
        <ele>663.4</ele>
        <time>2018-07-14T08:33:26Z</time>
      </trkpt>
      <trkpt lat="45.36127" lon="5.66173">
        <ele>663</ele>
        <time>2018-07-14T08:33:31Z</time>
      </trkpt>
      <trkpt lat="45.36137" lon="5.66169">
        <ele>662.6</ele>
        <time>2018-07-14T08:33:34Z</time>
      </trkpt>
      <trkpt lat="45.36145" lon="5.66161">
        <ele>662.4</ele>
        <time>2018-07-14T08:33:38Z</time>
      </trkpt>
      <trkpt lat="45.36154" lon="5.66153">
        <ele>662.3</ele>
        <time>2018-07-14T08:33:43Z</time>
      </trkpt>
      <trkpt lat="45.36163" lon="5.66146">
        <ele>662.5</ele>
        <time>2018-07-14T08:33:48Z</time>
      </trkpt>
      <trkpt lat="45.36173" lon="5.66141">
        <ele>662.1</ele>
        <time>2018-07-14T08:33:52Z</time>
      </trkpt>
      <trkpt lat="45.36183" lon="5.66134">
        <ele>662</ele>
        <time>2018-07-14T08:33:56Z</time>
      </trkpt>
      <trkpt lat="45.36191" lon="5.66127">
        <ele>662</ele>
        <time>2018-07-14T08:34:00Z</time>
      </trkpt>
      <trkpt lat="45.36201" lon="5.66119">
        <ele>662</ele>
        <time>2018-07-14T08:34:03Z</time>
      </trkpt>
      <trkpt lat="45.3621" lon="5.66115">
        <ele>662.2</ele>
        <time>2018-07-14T08:34:06Z</time>
      </trkpt>
      <trkpt lat="45.36221" lon="5.66111">
        <ele>661.7</ele>
        <time>2018-07-14T08:34:11Z</time>
      </trkpt>
      <trkpt lat="45.36231" lon="5.66112">
        <ele>661.4</ele>
        <time>2018-07-14T08:34:14Z</time>
      </trkpt>
      <trkpt lat="45.36241" lon="5.66115">
        <ele>661</ele>
        <time>2018-07-14T08:34:18Z</time>
      </trkpt>
      <trkpt lat="45.36251" lon="5.66116">
        <ele>660.9</ele>
        <time>2018-07-14T08:34:22Z</time>
      </trkpt>
      <trkpt lat="45.3626" lon="5.66121">
        <ele>661.1</ele>
        <time>2018-07-14T08:34:30Z</time>
      </trkpt>
      <trkpt lat="45.3627" lon="5.66118">
        <ele>661.5</ele>
        <time>2018-07-14T08:34:35Z</time>
      </trkpt>
      <trkpt lat="45.36279" lon="5.66115">
        <ele>661.4</ele>
        <time>2018-07-14T08:34:40Z</time>
      </trkpt>
      <trkpt lat="45.36289" lon="5.66114">
        <ele>661.5</ele>
        <time>2018-07-14T08:34:45Z</time>
      </trkpt>
      <trkpt lat="45.36299" lon="5.66109">
        <ele>661.7</ele>
        <time>2018-07-14T08:34:50Z</time>
      </trkpt>
      <trkpt lat="45.36307" lon="5.66102">
        <ele>661.4</ele>
        <time>2018-07-14T08:34:53Z</time>
      </trkpt>
      <trkpt lat="45.36316" lon="5.66093">
        <ele>661.6</ele>
        <time>2018-07-14T08:34:56Z</time>
      </trkpt>
      <trkpt lat="45.36324" lon="5.66085">
        <ele>661.7</ele>
        <time>2018-07-14T08:34:59Z</time>
      </trkpt>
      <trkpt lat="45.36332" lon="5.66078">
        <ele>661.6</ele>
        <time>2018-07-14T08:35:02Z</time>
      </trkpt>
      <trkpt lat="45.36342" lon="5.66076">
        <ele>661.2</ele>
        <time>2018-07-14T08:35:06Z</time>
      </trkpt>
      <trkpt lat="45.36352" lon="5.66074">
        <ele>661.1</ele>
        <time>2018-07-14T08:35:10Z</time>
      </trkpt>
      <trkpt lat="45.36363" lon="5.66069">
        <ele>661</ele>
        <time>2018-07-14T08:35:13Z</time>
      </trkpt>
      <trkpt lat="45.36372" lon="5.6607">
        <ele>661.1</ele>
        <time>2018-07-14T08:35:18Z</time>
      </trkpt>
      <trkpt lat="45.36382" lon="5.66066">
        <ele>661.8</ele>
        <time>2018-07-14T08:35:24Z</time>
      </trkpt>
      <trkpt lat="45.3639" lon="5.66056">
        <ele>662.6</ele>
        <time>2018-07-14T08:35:30Z</time>
      </trkpt>
      <trkpt lat="45.36398" lon="5.66052">
        <ele>663.3</ele>
        <time>2018-07-14T08:35:35Z</time>
      </trkpt>
      <trkpt lat="45.36407" lon="5.66048">
        <ele>664.6</ele>
        <time>2018-07-14T08:35:40Z</time>
      </trkpt>
      <trkpt lat="45.36417" lon="5.6604">
        <ele>665.5</ele>
        <time>2018-07-14T08:35:45Z</time>
      </trkpt>
      <trkpt lat="45.36426" lon="5.6603">
        <ele>665.8</ele>
        <time>2018-07-14T08:35:49Z</time>
      </trkpt>
      <trkpt lat="45.36434" lon="5.66017">
        <ele>665.8</ele>
        <time>2018-07-14T08:35:52Z</time>
      </trkpt>
      <trkpt lat="45.36444" lon="5.66004">
        <ele>665.6</ele>
        <time>2018-07-14T08:35:55Z</time>
      </trkpt>
      <trkpt lat="45.36452" lon="5.65992">
        <ele>665.2</ele>
        <time>2018-07-14T08:35:58Z</time>
      </trkpt>
      <trkpt lat="45.36459" lon="5.65985">
        <ele>663.7</ele>
        <time>2018-07-14T08:36:09Z</time>
      </trkpt>
      <trkpt lat="45.36469" lon="5.65984">
        <ele>663.2</ele>
        <time>2018-07-14T08:36:17Z</time>
      </trkpt>
      <trkpt lat="45.36478" lon="5.6598">
        <ele>663.6</ele>
        <time>2018-07-14T08:36:24Z</time>
      </trkpt>
      <trkpt lat="45.36485" lon="5.65971">
        <ele>663.4</ele>
        <time>2018-07-14T08:36:28Z</time>
      </trkpt>
      <trkpt lat="45.36495" lon="5.65964">
        <ele>665.2</ele>
        <time>2018-07-14T08:36:34Z</time>
      </trkpt>
      <trkpt lat="45.36503" lon="5.65959">
        <ele>666.4</ele>
        <time>2018-07-14T08:36:39Z</time>
      </trkpt>
      <trkpt lat="45.36513" lon="5.65956">
        <ele>666.8</ele>
        <time>2018-07-14T08:36:43Z</time>
      </trkpt>
      <trkpt lat="45.36522" lon="5.65953">
        <ele>666.9</ele>
        <time>2018-07-14T08:36:48Z</time>
      </trkpt>
      <trkpt lat="45.36532" lon="5.65951">
        <ele>666.8</ele>
        <time>2018-07-14T08:36:52Z</time>
      </trkpt>
      <trkpt lat="45.36544" lon="5.65948">
        <ele>666.8</ele>
        <time>2018-07-14T08:36:56Z</time>
      </trkpt>
      <trkpt lat="45.36556" lon="5.65948">
        <ele>666.9</ele>
        <time>2018-07-14T08:37:00Z</time>
      </trkpt>
      <trkpt lat="45.36565" lon="5.65945">
        <ele>666.9</ele>
        <time>2018-07-14T08:37:03Z</time>
      </trkpt>
      <trkpt lat="45.36578" lon="5.65945">
        <ele>666.9</ele>
        <time>2018-07-14T08:37:06Z</time>
      </trkpt>
      <trkpt lat="45.36587" lon="5.65946">
        <ele>666.7</ele>
        <time>2018-07-14T08:37:08Z</time>
      </trkpt>
      <trkpt lat="45.36599" lon="5.65947">
        <ele>666.2</ele>
        <time>2018-07-14T08:37:10Z</time>
      </trkpt>
      <trkpt lat="45.36608" lon="5.65951">
        <ele>665.5</ele>
        <time>2018-07-14T08:37:12Z</time>
      </trkpt>
      <trkpt lat="45.36615" lon="5.6596">
        <ele>664.9</ele>
        <time>2018-07-14T08:37:14Z</time>
      </trkpt>
      <trkpt lat="45.36625" lon="5.65966">
        <ele>663.9</ele>
        <time>2018-07-14T08:37:16Z</time>
      </trkpt>
      <trkpt lat="45.36636" lon="5.6597">
        <ele>662.3</ele>
        <time>2018-07-14T08:37:19Z</time>
      </trkpt>
      <trkpt lat="45.36647" lon="5.65973">
        <ele>661.3</ele>
        <time>2018-07-14T08:37:22Z</time>
      </trkpt>
      <trkpt lat="45.3666" lon="5.65975">
        <ele>660.3</ele>
        <time>2018-07-14T08:37:25Z</time>
      </trkpt>
      <trkpt lat="45.3667" lon="5.65977">
        <ele>659.5</ele>
        <time>2018-07-14T08:37:27Z</time>
      </trkpt>
      <trkpt lat="45.3668" lon="5.65981">
        <ele>658.6</ele>
        <time>2018-07-14T08:37:29Z</time>
      </trkpt>
      <trkpt lat="45.3669" lon="5.65985">
        <ele>657.2</ele>
        <time>2018-07-14T08:37:33Z</time>
      </trkpt>
      <trkpt lat="45.36701" lon="5.65982">
        <ele>656</ele>
        <time>2018-07-14T08:37:37Z</time>
      </trkpt>
      <trkpt lat="45.36711" lon="5.65981">
        <ele>655.3</ele>
        <time>2018-07-14T08:37:41Z</time>
      </trkpt>
      <trkpt lat="45.36719" lon="5.65972">
        <ele>654.9</ele>
        <time>2018-07-14T08:37:45Z</time>
      </trkpt>
      <trkpt lat="45.36728" lon="5.65963">
        <ele>654.7</ele>
        <time>2018-07-14T08:37:48Z</time>
      </trkpt>
      <trkpt lat="45.36738" lon="5.65948">
        <ele>654.6</ele>
        <time>2018-07-14T08:37:51Z</time>
      </trkpt>
      <trkpt lat="45.36745" lon="5.65937">
        <ele>654.2</ele>
        <time>2018-07-14T08:37:54Z</time>
      </trkpt>
      <trkpt lat="45.36754" lon="5.65931">
        <ele>653.9</ele>
        <time>2018-07-14T08:37:57Z</time>
      </trkpt>
      <trkpt lat="45.36767" lon="5.65928">
        <ele>652.2</ele>
        <time>2018-07-14T08:38:00Z</time>
      </trkpt>
      <trkpt lat="45.36779" lon="5.65929">
        <ele>649.7</ele>
        <time>2018-07-14T08:38:04Z</time>
      </trkpt>
      <trkpt lat="45.36791" lon="5.65922">
        <ele>646.7</ele>
        <time>2018-07-14T08:38:09Z</time>
      </trkpt>
      <trkpt lat="45.36799" lon="5.65913">
        <ele>643.7</ele>
        <time>2018-07-14T08:38:12Z</time>
      </trkpt>
      <trkpt lat="45.36805" lon="5.65896">
        <ele>641.9</ele>
        <time>2018-07-14T08:38:15Z</time>
      </trkpt>
      <trkpt lat="45.36809" lon="5.65884">
        <ele>640.9</ele>
        <time>2018-07-14T08:38:18Z</time>
      </trkpt>
      <trkpt lat="45.36817" lon="5.6587">
        <ele>640.1</ele>
        <time>2018-07-14T08:38:22Z</time>
      </trkpt>
      <trkpt lat="45.36814" lon="5.65856">
        <ele>639.7</ele>
        <time>2018-07-14T08:38:26Z</time>
      </trkpt>
      <trkpt lat="45.36816" lon="5.65843">
        <ele>639.2</ele>
        <time>2018-07-14T08:38:29Z</time>
      </trkpt>
      <trkpt lat="45.36813" lon="5.65827">
        <ele>638.4</ele>
        <time>2018-07-14T08:38:33Z</time>
      </trkpt>
      <trkpt lat="45.36813" lon="5.65814">
        <ele>637.7</ele>
        <time>2018-07-14T08:38:38Z</time>
      </trkpt>
      <trkpt lat="45.36816" lon="5.658">
        <ele>637.4</ele>
        <time>2018-07-14T08:38:43Z</time>
      </trkpt>
      <trkpt lat="45.36821" lon="5.65788">
        <ele>636</ele>
        <time>2018-07-14T08:38:47Z</time>
      </trkpt>
      <trkpt lat="45.36828" lon="5.65778">
        <ele>633.5</ele>
        <time>2018-07-14T08:39:22Z</time>
      </trkpt>
      <trkpt lat="45.36822" lon="5.65767">
        <ele>633.5</ele>
        <time>2018-07-14T08:39:29Z</time>
      </trkpt>
      <trkpt lat="45.36816" lon="5.65758">
        <ele>635</ele>
        <time>2018-07-14T08:39:39Z</time>
      </trkpt>
      <trkpt lat="45.36809" lon="5.6575">
        <ele>636.8</ele>
        <time>2018-07-14T08:39:53Z</time>
      </trkpt>
      <trkpt lat="45.36799" lon="5.65754">
        <ele>638</ele>
        <time>2018-07-14T08:39:59Z</time>
      </trkpt>
      <trkpt lat="45.36789" lon="5.65751">
        <ele>639.3</ele>
        <time>2018-07-14T08:40:07Z</time>
      </trkpt>
      <trkpt lat="45.36782" lon="5.65742">
        <ele>641.3</ele>
        <time>2018-07-14T08:40:14Z</time>
      </trkpt>
      <trkpt lat="45.36772" lon="5.65741">
        <ele>644.2</ele>
        <time>2018-07-14T08:40:24Z</time>
      </trkpt>
      <trkpt lat="45.36763" lon="5.65741">
        <ele>644.9</ele>
        <time>2018-07-14T08:40:30Z</time>
      </trkpt>
      <trkpt lat="45.36754" lon="5.65744">
        <ele>647.5</ele>
        <time>2018-07-14T08:40:43Z</time>
      </trkpt>
      <trkpt lat="45.36747" lon="5.65752">
        <ele>648.3</ele>
        <time>2018-07-14T08:41:04Z</time>
      </trkpt>
      <trkpt lat="45.36738" lon="5.65754">
        <ele>650.3</ele>
        <time>2018-07-14T08:41:18Z</time>
      </trkpt>
      <trkpt lat="45.36728" lon="5.65759">
        <ele>651.3</ele>
        <time>2018-07-14T08:41:30Z</time>
      </trkpt>
      <trkpt lat="45.36719" lon="5.65763">
        <ele>651.8</ele>
        <time>2018-07-14T08:41:37Z</time>
      </trkpt>
      <trkpt lat="45.36708" lon="5.65764">
        <ele>652</ele>
        <time>2018-07-14T08:41:41Z</time>
      </trkpt>
      <trkpt lat="45.36696" lon="5.65758">
        <ele>651.5</ele>
        <time>2018-07-14T08:41:46Z</time>
      </trkpt>
      <trkpt lat="45.36688" lon="5.6575">
        <ele>651.2</ele>
        <time>2018-07-14T08:41:49Z</time>
      </trkpt>
      <trkpt lat="45.36676" lon="5.65749">
        <ele>650.3</ele>
        <time>2018-07-14T08:41:53Z</time>
      </trkpt>
      <trkpt lat="45.36665" lon="5.65753">
        <ele>649.7</ele>
        <time>2018-07-14T08:41:55Z</time>
      </trkpt>
      <trkpt lat="45.36656" lon="5.65753">
        <ele>649.3</ele>
        <time>2018-07-14T08:41:57Z</time>
      </trkpt>
      <trkpt lat="45.36645" lon="5.65753">
        <ele>649.2</ele>
        <time>2018-07-14T08:42:01Z</time>
      </trkpt>
      <trkpt lat="45.36635" lon="5.65756">
        <ele>649.4</ele>
        <time>2018-07-14T08:42:05Z</time>
      </trkpt>
      <trkpt lat="45.36625" lon="5.65758">
        <ele>650.1</ele>
        <time>2018-07-14T08:42:10Z</time>
      </trkpt>
      <trkpt lat="45.36616" lon="5.6576">
        <ele>650.4</ele>
        <time>2018-07-14T08:42:14Z</time>
      </trkpt>
      <trkpt lat="45.36607" lon="5.65765">
        <ele>650.6</ele>
        <time>2018-07-14T08:42:17Z</time>
      </trkpt>
      <trkpt lat="45.36596" lon="5.6577">
        <ele>651</ele>
        <time>2018-07-14T08:42:21Z</time>
      </trkpt>
      <trkpt lat="45.36586" lon="5.6577">
        <ele>651.1</ele>
        <time>2018-07-14T08:42:24Z</time>
      </trkpt>
      <trkpt lat="45.36576" lon="5.65772">
        <ele>651.5</ele>
        <time>2018-07-14T08:42:28Z</time>
      </trkpt>
      <trkpt lat="45.36566" lon="5.65767">
        <ele>652.9</ele>
        <time>2018-07-14T08:42:34Z</time>
      </trkpt>
      <trkpt lat="45.36556" lon="5.65764">
        <ele>653.7</ele>
        <time>2018-07-14T08:42:39Z</time>
      </trkpt>
      <trkpt lat="45.36546" lon="5.65759">
        <ele>654.3</ele>
        <time>2018-07-14T08:42:44Z</time>
      </trkpt>
      <trkpt lat="45.36536" lon="5.65755">
        <ele>655.1</ele>
        <time>2018-07-14T08:42:50Z</time>
      </trkpt>
      <trkpt lat="45.36527" lon="5.65752">
        <ele>656.3</ele>
        <time>2018-07-14T08:42:56Z</time>
      </trkpt>
      <trkpt lat="45.36517" lon="5.65748">
        <ele>656.7</ele>
        <time>2018-07-14T08:43:02Z</time>
      </trkpt>
      <trkpt lat="45.36508" lon="5.65745">
        <ele>657.5</ele>
        <time>2018-07-14T08:43:08Z</time>
      </trkpt>
      <trkpt lat="45.36498" lon="5.65743">
        <ele>658</ele>
        <time>2018-07-14T08:43:12Z</time>
      </trkpt>
      <trkpt lat="45.36488" lon="5.65742">
        <ele>658.4</ele>
        <time>2018-07-14T08:43:17Z</time>
      </trkpt>
      <trkpt lat="45.36477" lon="5.6574">
        <ele>658.6</ele>
        <time>2018-07-14T08:43:24Z</time>
      </trkpt>
      <trkpt lat="45.36467" lon="5.65745">
        <ele>658.8</ele>
        <time>2018-07-14T08:43:29Z</time>
      </trkpt>
      <trkpt lat="45.36459" lon="5.65754">
        <ele>659.1</ele>
        <time>2018-07-14T08:43:35Z</time>
      </trkpt>
      <trkpt lat="45.36455" lon="5.65766">
        <ele>659.4</ele>
        <time>2018-07-14T08:43:42Z</time>
      </trkpt>
      <trkpt lat="45.36452" lon="5.65781">
        <ele>659.9</ele>
        <time>2018-07-14T08:43:49Z</time>
      </trkpt>
      <trkpt lat="45.3645" lon="5.65796">
        <ele>660.2</ele>
        <time>2018-07-14T08:43:54Z</time>
      </trkpt>
      <trkpt lat="45.36439" lon="5.65811">
        <ele>660.3</ele>
        <time>2018-07-14T08:43:57Z</time>
      </trkpt>
      <trkpt lat="45.36431" lon="5.65822">
        <ele>660.4</ele>
        <time>2018-07-14T08:43:59Z</time>
      </trkpt>
      <trkpt lat="45.36424" lon="5.65835">
        <ele>660</ele>
        <time>2018-07-14T08:44:02Z</time>
      </trkpt>
      <trkpt lat="45.36416" lon="5.65847">
        <ele>659.8</ele>
        <time>2018-07-14T08:44:05Z</time>
      </trkpt>
      <trkpt lat="45.3641" lon="5.65859">
        <ele>659.7</ele>
        <time>2018-07-14T08:44:08Z</time>
      </trkpt>
      <trkpt lat="45.36406" lon="5.65872">
        <ele>659.6</ele>
        <time>2018-07-14T08:44:12Z</time>
      </trkpt>
      <trkpt lat="45.364" lon="5.65885">
        <ele>659.5</ele>
        <time>2018-07-14T08:44:17Z</time>
      </trkpt>
      <trkpt lat="45.36392" lon="5.65892">
        <ele>659.9</ele>
        <time>2018-07-14T08:44:20Z</time>
      </trkpt>
      <trkpt lat="45.36384" lon="5.65901">
        <ele>660.7</ele>
        <time>2018-07-14T08:44:25Z</time>
      </trkpt>
      <trkpt lat="45.36375" lon="5.65907">
        <ele>661.3</ele>
        <time>2018-07-14T08:44:32Z</time>
      </trkpt>
      <trkpt lat="45.36366" lon="5.65913">
        <ele>663.1</ele>
        <time>2018-07-14T08:44:40Z</time>
      </trkpt>
      <trkpt lat="45.3636" lon="5.65922">
        <ele>666.6</ele>
        <time>2018-07-14T08:45:06Z</time>
      </trkpt>
      <trkpt lat="45.3635" lon="5.65923">
        <ele>667</ele>
        <time>2018-07-14T08:45:21Z</time>
      </trkpt>
      <trkpt lat="45.36341" lon="5.65923">
        <ele>668.1</ele>
        <time>2018-07-14T08:45:41Z</time>
      </trkpt>
      <trkpt lat="45.36332" lon="5.65924">
        <ele>668.7</ele>
        <time>2018-07-14T08:45:49Z</time>
      </trkpt>
      <trkpt lat="45.36322" lon="5.65922">
        <ele>669.2</ele>
        <time>2018-07-14T08:45:55Z</time>
      </trkpt>
      <trkpt lat="45.36313" lon="5.65918">
        <ele>670.5</ele>
        <time>2018-07-14T08:46:03Z</time>
      </trkpt>
      <trkpt lat="45.36303" lon="5.65916">
        <ele>671.2</ele>
        <time>2018-07-14T08:46:09Z</time>
      </trkpt>
      <trkpt lat="45.36293" lon="5.65922">
        <ele>672.4</ele>
        <time>2018-07-14T08:46:16Z</time>
      </trkpt>
      <trkpt lat="45.36286" lon="5.65929">
        <ele>672.9</ele>
        <time>2018-07-14T08:46:21Z</time>
      </trkpt>
      <trkpt lat="45.36277" lon="5.65936">
        <ele>673.3</ele>
        <time>2018-07-14T08:46:26Z</time>
      </trkpt>
      <trkpt lat="45.36266" lon="5.65937">
        <ele>674.1</ele>
        <time>2018-07-14T08:46:32Z</time>
      </trkpt>
      <trkpt lat="45.36257" lon="5.65936">
        <ele>674.7</ele>
        <time>2018-07-14T08:46:39Z</time>
      </trkpt>
      <trkpt lat="45.36247" lon="5.65937">
        <ele>675.4</ele>
        <time>2018-07-14T08:46:44Z</time>
      </trkpt>
      <trkpt lat="45.36237" lon="5.65937">
        <ele>676.1</ele>
        <time>2018-07-14T08:46:49Z</time>
      </trkpt>
      <trkpt lat="45.36228" lon="5.65936">
        <ele>676.5</ele>
        <time>2018-07-14T08:46:53Z</time>
      </trkpt>
      <trkpt lat="45.36217" lon="5.65937">
        <ele>677.4</ele>
        <time>2018-07-14T08:46:59Z</time>
      </trkpt>
      <trkpt lat="45.36207" lon="5.65936">
        <ele>677.7</ele>
        <time>2018-07-14T08:47:03Z</time>
      </trkpt>
      <trkpt lat="45.36198" lon="5.65935">
        <ele>677.8</ele>
        <time>2018-07-14T08:47:07Z</time>
      </trkpt>
      <trkpt lat="45.36188" lon="5.65937">
        <ele>678.2</ele>
        <time>2018-07-14T08:47:11Z</time>
      </trkpt>
      <trkpt lat="45.36179" lon="5.65939">
        <ele>678.3</ele>
        <time>2018-07-14T08:47:15Z</time>
      </trkpt>
      <trkpt lat="45.36167" lon="5.65941">
        <ele>678.1</ele>
        <time>2018-07-14T08:47:19Z</time>
      </trkpt>
      <trkpt lat="45.36156" lon="5.65943">
        <ele>678</ele>
        <time>2018-07-14T08:47:22Z</time>
      </trkpt>
      <trkpt lat="45.36146" lon="5.65945">
        <ele>677.8</ele>
        <time>2018-07-14T08:47:25Z</time>
      </trkpt>
      <trkpt lat="45.36134" lon="5.65945">
        <ele>677.7</ele>
        <time>2018-07-14T08:47:29Z</time>
      </trkpt>
      <trkpt lat="45.36124" lon="5.65946">
        <ele>677.6</ele>
        <time>2018-07-14T08:47:32Z</time>
      </trkpt>
      <trkpt lat="45.36114" lon="5.65948">
        <ele>676.9</ele>
        <time>2018-07-14T08:47:36Z</time>
      </trkpt>
      <trkpt lat="45.36101" lon="5.65949">
        <ele>676.6</ele>
        <time>2018-07-14T08:47:39Z</time>
      </trkpt>
      <trkpt lat="45.36091" lon="5.65949">
        <ele>676.6</ele>
        <time>2018-07-14T08:47:42Z</time>
      </trkpt>
      <trkpt lat="45.36081" lon="5.65948">
        <ele>676.8</ele>
        <time>2018-07-14T08:47:45Z</time>
      </trkpt>
      <trkpt lat="45.3607" lon="5.65947">
        <ele>677</ele>
        <time>2018-07-14T08:47:48Z</time>
      </trkpt>
      <trkpt lat="45.36061" lon="5.65942">
        <ele>677.1</ele>
        <time>2018-07-14T08:47:51Z</time>
      </trkpt>
      <trkpt lat="45.36053" lon="5.65936">
        <ele>677.2</ele>
        <time>2018-07-14T08:47:55Z</time>
      </trkpt>
      <trkpt lat="45.36043" lon="5.65934">
        <ele>677.6</ele>
        <time>2018-07-14T08:48:06Z</time>
      </trkpt>
      <trkpt lat="45.36033" lon="5.65929">
        <ele>678.6</ele>
        <time>2018-07-14T08:48:16Z</time>
      </trkpt>
      <trkpt lat="45.36023" lon="5.65925">
        <ele>678.7</ele>
        <time>2018-07-14T08:48:20Z</time>
      </trkpt>
      <trkpt lat="45.36013" lon="5.65919">
        <ele>678.7</ele>
        <time>2018-07-14T08:48:24Z</time>
      </trkpt>
      <trkpt lat="45.36004" lon="5.65914">
        <ele>678.8</ele>
        <time>2018-07-14T08:48:28Z</time>
      </trkpt>
      <trkpt lat="45.35994" lon="5.6591">
        <ele>679.4</ele>
        <time>2018-07-14T08:48:33Z</time>
      </trkpt>
      <trkpt lat="45.35984" lon="5.65908">
        <ele>679.8</ele>
        <time>2018-07-14T08:48:38Z</time>
      </trkpt>
      <trkpt lat="45.35974" lon="5.65906">
        <ele>680.1</ele>
        <time>2018-07-14T08:48:43Z</time>
      </trkpt>
      <trkpt lat="45.35965" lon="5.65905">
        <ele>680</ele>
        <time>2018-07-14T08:48:48Z</time>
      </trkpt>
      <trkpt lat="45.35954" lon="5.65902">
        <ele>679.5</ele>
        <time>2018-07-14T08:48:53Z</time>
      </trkpt>
      <trkpt lat="45.35945" lon="5.65897">
        <ele>679.3</ele>
        <time>2018-07-14T08:48:58Z</time>
      </trkpt>
      <trkpt lat="45.35938" lon="5.65887">
        <ele>679.5</ele>
        <time>2018-07-14T08:49:03Z</time>
      </trkpt>
      <trkpt lat="45.35944" lon="5.65877">
        <ele>679.8</ele>
        <time>2018-07-14T08:49:11Z</time>
      </trkpt>
      <trkpt lat="45.35953" lon="5.65872">
        <ele>680.6</ele>
        <time>2018-07-14T08:49:17Z</time>
      </trkpt>
      <trkpt lat="45.35963" lon="5.65866">
        <ele>681.5</ele>
        <time>2018-07-14T08:49:23Z</time>
      </trkpt>
      <trkpt lat="45.35971" lon="5.65859">
        <ele>682</ele>
        <time>2018-07-14T08:49:28Z</time>
      </trkpt>
      <trkpt lat="45.3598" lon="5.65856">
        <ele>682.4</ele>
        <time>2018-07-14T08:49:33Z</time>
      </trkpt>
      <trkpt lat="45.35989" lon="5.65849">
        <ele>683.7</ele>
        <time>2018-07-14T08:49:39Z</time>
      </trkpt>
      <trkpt lat="45.35997" lon="5.65841">
        <ele>685.1</ele>
        <time>2018-07-14T08:49:47Z</time>
      </trkpt>
      <trkpt lat="45.36006" lon="5.65832">
        <ele>685.8</ele>
        <time>2018-07-14T08:49:54Z</time>
      </trkpt>
      <trkpt lat="45.36015" lon="5.65829">
        <ele>687.4</ele>
        <time>2018-07-14T08:50:04Z</time>
      </trkpt>
      <trkpt lat="45.36024" lon="5.65824">
        <ele>689.2</ele>
        <time>2018-07-14T08:50:13Z</time>
      </trkpt>
      <trkpt lat="45.36034" lon="5.65823">
        <ele>689.6</ele>
        <time>2018-07-14T08:50:18Z</time>
      </trkpt>
      <trkpt lat="45.36044" lon="5.65827">
        <ele>689.7</ele>
        <time>2018-07-14T08:50:25Z</time>
      </trkpt>
      <trkpt lat="45.36053" lon="5.65829">
        <ele>690.3</ele>
        <time>2018-07-14T08:50:32Z</time>
      </trkpt>
      <trkpt lat="45.36063" lon="5.65833">
        <ele>691</ele>
        <time>2018-07-14T08:50:38Z</time>
      </trkpt>
      <trkpt lat="45.36073" lon="5.65834">
        <ele>691.8</ele>
        <time>2018-07-14T08:50:44Z</time>
      </trkpt>
      <trkpt lat="45.36082" lon="5.65835">
        <ele>692.1</ele>
        <time>2018-07-14T08:50:48Z</time>
      </trkpt>
      <trkpt lat="45.36092" lon="5.65835">
        <ele>692.2</ele>
        <time>2018-07-14T08:50:53Z</time>
      </trkpt>
      <trkpt lat="45.36102" lon="5.65831">
        <ele>692.3</ele>
        <time>2018-07-14T08:50:57Z</time>
      </trkpt>
      <trkpt lat="45.36112" lon="5.65822">
        <ele>692.1</ele>
        <time>2018-07-14T08:51:00Z</time>
      </trkpt>
      <trkpt lat="45.36118" lon="5.65811">
        <ele>692</ele>
        <time>2018-07-14T08:51:02Z</time>
      </trkpt>
      <trkpt lat="45.36121" lon="5.65797">
        <ele>691.8</ele>
        <time>2018-07-14T08:51:05Z</time>
      </trkpt>
      <trkpt lat="45.3612" lon="5.65783">
        <ele>691.5</ele>
        <time>2018-07-14T08:51:09Z</time>
      </trkpt>
      <trkpt lat="45.36114" lon="5.65768">
        <ele>691.6</ele>
        <time>2018-07-14T08:51:13Z</time>
      </trkpt>
      <trkpt lat="45.36108" lon="5.65756">
        <ele>691.7</ele>
        <time>2018-07-14T08:51:16Z</time>
      </trkpt>
      <trkpt lat="45.36103" lon="5.65742">
        <ele>691.8</ele>
        <time>2018-07-14T08:51:19Z</time>
      </trkpt>
      <trkpt lat="45.36102" lon="5.65727">
        <ele>691.7</ele>
        <time>2018-07-14T08:51:22Z</time>
      </trkpt>
      <trkpt lat="45.36104" lon="5.65712">
        <ele>691.7</ele>
        <time>2018-07-14T08:51:25Z</time>
      </trkpt>
      <trkpt lat="45.36109" lon="5.657">
        <ele>691.5</ele>
        <time>2018-07-14T08:51:28Z</time>
      </trkpt>
      <trkpt lat="45.36114" lon="5.65687">
        <ele>691.3</ele>
        <time>2018-07-14T08:51:32Z</time>
      </trkpt>
      <trkpt lat="45.36116" lon="5.65673">
        <ele>691.2</ele>
        <time>2018-07-14T08:51:36Z</time>
      </trkpt>
      <trkpt lat="45.36113" lon="5.6566">
        <ele>691.4</ele>
        <time>2018-07-14T08:51:40Z</time>
      </trkpt>
      <trkpt lat="45.36107" lon="5.65648">
        <ele>692.2</ele>
        <time>2018-07-14T08:51:45Z</time>
      </trkpt>
      <trkpt lat="45.36102" lon="5.65634">
        <ele>693.2</ele>
        <time>2018-07-14T08:51:51Z</time>
      </trkpt>
      <trkpt lat="45.36108" lon="5.65624">
        <ele>694.3</ele>
        <time>2018-07-14T08:51:58Z</time>
      </trkpt>
      <trkpt lat="45.36117" lon="5.65619">
        <ele>694.1</ele>
        <time>2018-07-14T08:52:00Z</time>
      </trkpt>
      <trkpt lat="45.36127" lon="5.65616">
        <ele>693.8</ele>
        <time>2018-07-14T08:52:02Z</time>
      </trkpt>
      <trkpt lat="45.36136" lon="5.65614">
        <ele>693.7</ele>
        <time>2018-07-14T08:52:04Z</time>
      </trkpt>
      <trkpt lat="45.36145" lon="5.65615">
        <ele>693.4</ele>
        <time>2018-07-14T08:52:06Z</time>
      </trkpt>
      <trkpt lat="45.36156" lon="5.65617">
        <ele>693.1</ele>
        <time>2018-07-14T08:52:08Z</time>
      </trkpt>
      <trkpt lat="45.36166" lon="5.65622">
        <ele>693</ele>
        <time>2018-07-14T08:52:10Z</time>
      </trkpt>
      <trkpt lat="45.36176" lon="5.65627">
        <ele>693.1</ele>
        <time>2018-07-14T08:52:13Z</time>
      </trkpt>
      <trkpt lat="45.36185" lon="5.65628">
        <ele>693.1</ele>
        <time>2018-07-14T08:52:15Z</time>
      </trkpt>
      <trkpt lat="45.36196" lon="5.65626">
        <ele>692.8</ele>
        <time>2018-07-14T08:52:18Z</time>
      </trkpt>
      <trkpt lat="45.36206" lon="5.65626">
        <ele>692.6</ele>
        <time>2018-07-14T08:52:21Z</time>
      </trkpt>
      <trkpt lat="45.36216" lon="5.65623">
        <ele>692.1</ele>
        <time>2018-07-14T08:52:24Z</time>
      </trkpt>
      <trkpt lat="45.36228" lon="5.65622">
        <ele>691.9</ele>
        <time>2018-07-14T08:52:26Z</time>
      </trkpt>
      <trkpt lat="45.36238" lon="5.65621">
        <ele>691.7</ele>
        <time>2018-07-14T08:52:28Z</time>
      </trkpt>
      <trkpt lat="45.36248" lon="5.65624">
        <ele>691.5</ele>
        <time>2018-07-14T08:52:30Z</time>
      </trkpt>
      <trkpt lat="45.36257" lon="5.65627">
        <ele>691.6</ele>
        <time>2018-07-14T08:52:32Z</time>
      </trkpt>
      <trkpt lat="45.36267" lon="5.65632">
        <ele>691.9</ele>
        <time>2018-07-14T08:52:35Z</time>
      </trkpt>
      <trkpt lat="45.36277" lon="5.65634">
        <ele>692.6</ele>
        <time>2018-07-14T08:52:38Z</time>
      </trkpt>
      <trkpt lat="45.36286" lon="5.65633">
        <ele>692.9</ele>
        <time>2018-07-14T08:52:41Z</time>
      </trkpt>
      <trkpt lat="45.36298" lon="5.65634">
        <ele>693.1</ele>
        <time>2018-07-14T08:52:45Z</time>
      </trkpt>
      <trkpt lat="45.36308" lon="5.65633">
        <ele>693.4</ele>
        <time>2018-07-14T08:52:49Z</time>
      </trkpt>
      <trkpt lat="45.36319" lon="5.65632">
        <ele>693.6</ele>
        <time>2018-07-14T08:52:53Z</time>
      </trkpt>
      <trkpt lat="45.36328" lon="5.65628">
        <ele>693.8</ele>
        <time>2018-07-14T08:52:56Z</time>
      </trkpt>
      <trkpt lat="45.36337" lon="5.65619">
        <ele>693.9</ele>
        <time>2018-07-14T08:53:00Z</time>
      </trkpt>
      <trkpt lat="45.36346" lon="5.65611">
        <ele>693.9</ele>
        <time>2018-07-14T08:53:03Z</time>
      </trkpt>
      <trkpt lat="45.36354" lon="5.65603">
        <ele>693.9</ele>
        <time>2018-07-14T08:53:06Z</time>
      </trkpt>
      <trkpt lat="45.36362" lon="5.65597">
        <ele>694</ele>
        <time>2018-07-14T08:53:08Z</time>
      </trkpt>
      <trkpt lat="45.36374" lon="5.65598">
        <ele>694.2</ele>
        <time>2018-07-14T08:53:11Z</time>
      </trkpt>
      <trkpt lat="45.36386" lon="5.65602">
        <ele>693.9</ele>
        <time>2018-07-14T08:53:15Z</time>
      </trkpt>
      <trkpt lat="45.36399" lon="5.65606">
        <ele>693.5</ele>
        <time>2018-07-14T08:53:18Z</time>
      </trkpt>
      <trkpt lat="45.3641" lon="5.65609">
        <ele>693.2</ele>
        <time>2018-07-14T08:53:20Z</time>
      </trkpt>
      <trkpt lat="45.36421" lon="5.65614">
        <ele>692.8</ele>
        <time>2018-07-14T08:53:22Z</time>
      </trkpt>
      <trkpt lat="45.36433" lon="5.6562">
        <ele>692.1</ele>
        <time>2018-07-14T08:53:24Z</time>
      </trkpt>
      <trkpt lat="45.36445" lon="5.65625">
        <ele>691.4</ele>
        <time>2018-07-14T08:53:26Z</time>
      </trkpt>
      <trkpt lat="45.36457" lon="5.65622">
        <ele>690.9</ele>
        <time>2018-07-14T08:53:28Z</time>
      </trkpt>
      <trkpt lat="45.36468" lon="5.65612">
        <ele>690.6</ele>
        <time>2018-07-14T08:53:30Z</time>
      </trkpt>
      <trkpt lat="45.36477" lon="5.65601">
        <ele>690.2</ele>
        <time>2018-07-14T08:53:32Z</time>
      </trkpt>
      <trkpt lat="45.36484" lon="5.65589">
        <ele>689.5</ele>
        <time>2018-07-14T08:53:35Z</time>
      </trkpt>
      <trkpt lat="45.36491" lon="5.65578">
        <ele>689.4</ele>
        <time>2018-07-14T08:53:38Z</time>
      </trkpt>
      <trkpt lat="45.36499" lon="5.65568">
        <ele>689.7</ele>
        <time>2018-07-14T08:53:41Z</time>
      </trkpt>
      <trkpt lat="45.36505" lon="5.65556">
        <ele>689.8</ele>
        <time>2018-07-14T08:53:44Z</time>
      </trkpt>
      <trkpt lat="45.3651" lon="5.65545">
        <ele>689.9</ele>
        <time>2018-07-14T08:53:47Z</time>
      </trkpt>
      <trkpt lat="45.36517" lon="5.65535">
        <ele>689.7</ele>
        <time>2018-07-14T08:53:50Z</time>
      </trkpt>
      <trkpt lat="45.36526" lon="5.65528">
        <ele>689.5</ele>
        <time>2018-07-14T08:53:54Z</time>
      </trkpt>
      <trkpt lat="45.36536" lon="5.65523">
        <ele>689.2</ele>
        <time>2018-07-14T08:53:56Z</time>
      </trkpt>
      <trkpt lat="45.36548" lon="5.65516">
        <ele>688.4</ele>
        <time>2018-07-14T08:53:59Z</time>
      </trkpt>
      <trkpt lat="45.36556" lon="5.65508">
        <ele>688.1</ele>
        <time>2018-07-14T08:54:01Z</time>
      </trkpt>
      <trkpt lat="45.36563" lon="5.65492">
        <ele>688.4</ele>
        <time>2018-07-14T08:54:04Z</time>
      </trkpt>
      <trkpt lat="45.36568" lon="5.65478">
        <ele>688.6</ele>
        <time>2018-07-14T08:54:06Z</time>
      </trkpt>
      <trkpt lat="45.3657" lon="5.65464">
        <ele>688.5</ele>
        <time>2018-07-14T08:54:08Z</time>
      </trkpt>
      <trkpt lat="45.36568" lon="5.65449">
        <ele>687.4</ele>
        <time>2018-07-14T08:54:11Z</time>
      </trkpt>
      <trkpt lat="45.3657" lon="5.65434">
        <ele>683.3</ele>
        <time>2018-07-14T08:54:26Z</time>
      </trkpt>
      <trkpt lat="45.3657" lon="5.65419">
        <ele>682.9</ele>
        <time>2018-07-14T08:54:29Z</time>
      </trkpt>
      <trkpt lat="45.36572" lon="5.65402">
        <ele>682.5</ele>
        <time>2018-07-14T08:54:32Z</time>
      </trkpt>
      <trkpt lat="45.3657" lon="5.65385">
        <ele>681.9</ele>
        <time>2018-07-14T08:54:35Z</time>
      </trkpt>
      <trkpt lat="45.36565" lon="5.65372">
        <ele>681.4</ele>
        <time>2018-07-14T08:54:38Z</time>
      </trkpt>
      <trkpt lat="45.3656" lon="5.65357">
        <ele>682.2</ele>
        <time>2018-07-14T08:54:44Z</time>
      </trkpt>
      <trkpt lat="45.36552" lon="5.65344">
        <ele>683.2</ele>
        <time>2018-07-14T08:54:47Z</time>
      </trkpt>
      <trkpt lat="45.36544" lon="5.65335">
        <ele>683.6</ele>
        <time>2018-07-14T08:54:49Z</time>
      </trkpt>
      <trkpt lat="45.36537" lon="5.65327">
        <ele>683.9</ele>
        <time>2018-07-14T08:54:51Z</time>
      </trkpt>
      <trkpt lat="45.36525" lon="5.65321">
        <ele>684.3</ele>
        <time>2018-07-14T08:54:54Z</time>
      </trkpt>
      <trkpt lat="45.36514" lon="5.65317">
        <ele>684.8</ele>
        <time>2018-07-14T08:54:57Z</time>
      </trkpt>
      <trkpt lat="45.36503" lon="5.65318">
        <ele>685.1</ele>
        <time>2018-07-14T08:55:00Z</time>
      </trkpt>
      <trkpt lat="45.36494" lon="5.65316">
        <ele>685.1</ele>
        <time>2018-07-14T08:55:05Z</time>
      </trkpt>
      <trkpt lat="45.36483" lon="5.65314">
        <ele>685.1</ele>
        <time>2018-07-14T08:55:10Z</time>
      </trkpt>
      <trkpt lat="45.36472" lon="5.65314">
        <ele>685.4</ele>
        <time>2018-07-14T08:55:15Z</time>
      </trkpt>
      <trkpt lat="45.36464" lon="5.65316">
        <ele>686.4</ele>
        <time>2018-07-14T08:55:23Z</time>
      </trkpt>
      <trkpt lat="45.36453" lon="5.65315">
        <ele>686.9</ele>
        <time>2018-07-14T08:55:30Z</time>
      </trkpt>
      <trkpt lat="45.36444" lon="5.65312">
        <ele>687.1</ele>
        <time>2018-07-14T08:55:34Z</time>
      </trkpt>
      <trkpt lat="45.36433" lon="5.65311">
        <ele>687.3</ele>
        <time>2018-07-14T08:55:37Z</time>
      </trkpt>
      <trkpt lat="45.36423" lon="5.65309">
        <ele>687.7</ele>
        <time>2018-07-14T08:55:41Z</time>
      </trkpt>
      <trkpt lat="45.36414" lon="5.65305">
        <ele>687.8</ele>
        <time>2018-07-14T08:55:44Z</time>
      </trkpt>
      <trkpt lat="45.36406" lon="5.65301">
        <ele>687.9</ele>
        <time>2018-07-14T08:55:47Z</time>
      </trkpt>
      <trkpt lat="45.36398" lon="5.6529">
        <ele>688</ele>
        <time>2018-07-14T08:55:51Z</time>
      </trkpt>
      <trkpt lat="45.36394" lon="5.65277">
        <ele>688</ele>
        <time>2018-07-14T08:55:56Z</time>
      </trkpt>
      <trkpt lat="45.36385" lon="5.65269">
        <ele>688.4</ele>
        <time>2018-07-14T08:56:01Z</time>
      </trkpt>
      <trkpt lat="45.36375" lon="5.65263">
        <ele>688.8</ele>
        <time>2018-07-14T08:56:05Z</time>
      </trkpt>
      <trkpt lat="45.36366" lon="5.65256">
        <ele>688.9</ele>
        <time>2018-07-14T08:56:08Z</time>
      </trkpt>
      <trkpt lat="45.36356" lon="5.65255">
        <ele>689</ele>
        <time>2018-07-14T08:56:11Z</time>
      </trkpt>
      <trkpt lat="45.36346" lon="5.65252">
        <ele>688.9</ele>
        <time>2018-07-14T08:56:14Z</time>
      </trkpt>
      <trkpt lat="45.36336" lon="5.65248">
        <ele>688.8</ele>
        <time>2018-07-14T08:56:17Z</time>
      </trkpt>
      <trkpt lat="45.36326" lon="5.65246">
        <ele>688.8</ele>
        <time>2018-07-14T08:56:21Z</time>
      </trkpt>
      <trkpt lat="45.36316" lon="5.65242">
        <ele>689.3</ele>
        <time>2018-07-14T08:56:25Z</time>
      </trkpt>
      <trkpt lat="45.36304" lon="5.65244">
        <ele>689.6</ele>
        <time>2018-07-14T08:56:28Z</time>
      </trkpt>
      <trkpt lat="45.36295" lon="5.65252">
        <ele>689.5</ele>
        <time>2018-07-14T08:56:32Z</time>
      </trkpt>
      <trkpt lat="45.36287" lon="5.65262">
        <ele>689.5</ele>
        <time>2018-07-14T08:56:36Z</time>
      </trkpt>
      <trkpt lat="45.36277" lon="5.65266">
        <ele>689.4</ele>
        <time>2018-07-14T08:56:39Z</time>
      </trkpt>
      <trkpt lat="45.36268" lon="5.65266">
        <ele>689.4</ele>
        <time>2018-07-14T08:56:42Z</time>
      </trkpt>
      <trkpt lat="45.36258" lon="5.65268">
        <ele>689.3</ele>
        <time>2018-07-14T08:56:45Z</time>
      </trkpt>
      <trkpt lat="45.36249" lon="5.65263">
        <ele>689.3</ele>
        <time>2018-07-14T08:56:49Z</time>
      </trkpt>
      <trkpt lat="45.36241" lon="5.65253">
        <ele>689.4</ele>
        <time>2018-07-14T08:56:53Z</time>
      </trkpt>
      <trkpt lat="45.36234" lon="5.65242">
        <ele>689.5</ele>
        <time>2018-07-14T08:56:57Z</time>
      </trkpt>
      <trkpt lat="45.36227" lon="5.65226">
        <ele>689.6</ele>
        <time>2018-07-14T08:57:00Z</time>
      </trkpt>
      <trkpt lat="45.36221" lon="5.65215">
        <ele>689.6</ele>
        <time>2018-07-14T08:57:02Z</time>
      </trkpt>
      <trkpt lat="45.36216" lon="5.65202">
        <ele>689.5</ele>
        <time>2018-07-14T08:57:04Z</time>
      </trkpt>
      <trkpt lat="45.36205" lon="5.65186">
        <ele>689.4</ele>
        <time>2018-07-14T08:57:06Z</time>
      </trkpt>
      <trkpt lat="45.36193" lon="5.65174">
        <ele>689.4</ele>
        <time>2018-07-14T08:57:08Z</time>
      </trkpt>
      <trkpt lat="45.36183" lon="5.65168">
        <ele>689.2</ele>
        <time>2018-07-14T08:57:10Z</time>
      </trkpt>
      <trkpt lat="45.36172" lon="5.6516">
        <ele>688.8</ele>
        <time>2018-07-14T08:57:13Z</time>
      </trkpt>
      <trkpt lat="45.36165" lon="5.6515">
        <ele>688.4</ele>
        <time>2018-07-14T08:57:16Z</time>
      </trkpt>
      <trkpt lat="45.36157" lon="5.65139">
        <ele>688.1</ele>
        <time>2018-07-14T08:57:20Z</time>
      </trkpt>
      <trkpt lat="45.36149" lon="5.65131">
        <ele>688</ele>
        <time>2018-07-14T08:57:23Z</time>
      </trkpt>
      <trkpt lat="45.36144" lon="5.65121">
        <ele>687.9</ele>
        <time>2018-07-14T08:57:26Z</time>
      </trkpt>
      <trkpt lat="45.36137" lon="5.6511">
        <ele>687.9</ele>
        <time>2018-07-14T08:57:29Z</time>
      </trkpt>
      <trkpt lat="45.3613" lon="5.651">
        <ele>688.1</ele>
        <time>2018-07-14T08:57:32Z</time>
      </trkpt>
      <trkpt lat="45.36122" lon="5.65093">
        <ele>688.4</ele>
        <time>2018-07-14T08:57:35Z</time>
      </trkpt>
      <trkpt lat="45.36113" lon="5.65085">
        <ele>688.6</ele>
        <time>2018-07-14T08:57:38Z</time>
      </trkpt>
      <trkpt lat="45.36105" lon="5.65077">
        <ele>688.8</ele>
        <time>2018-07-14T08:57:41Z</time>
      </trkpt>
      <trkpt lat="45.36096" lon="5.65065">
        <ele>689.1</ele>
        <time>2018-07-14T08:57:45Z</time>
      </trkpt>
      <trkpt lat="45.36087" lon="5.65055">
        <ele>690.5</ele>
        <time>2018-07-14T08:57:49Z</time>
      </trkpt>
      <trkpt lat="45.36078" lon="5.65046">
        <ele>691.4</ele>
        <time>2018-07-14T08:57:53Z</time>
      </trkpt>
      <trkpt lat="45.36069" lon="5.65038">
        <ele>691.9</ele>
        <time>2018-07-14T08:57:57Z</time>
      </trkpt>
      <trkpt lat="45.36061" lon="5.65034">
        <ele>692.1</ele>
        <time>2018-07-14T08:58:00Z</time>
      </trkpt>
      <trkpt lat="45.3605" lon="5.6503">
        <ele>692.5</ele>
        <time>2018-07-14T08:58:03Z</time>
      </trkpt>
      <trkpt lat="45.36039" lon="5.65025">
        <ele>692.9</ele>
        <time>2018-07-14T08:58:06Z</time>
      </trkpt>
      <trkpt lat="45.36031" lon="5.6502">
        <ele>693.1</ele>
        <time>2018-07-14T08:58:08Z</time>
      </trkpt>
      <trkpt lat="45.36024" lon="5.65011">
        <ele>693.2</ele>
        <time>2018-07-14T08:58:10Z</time>
      </trkpt>
      <trkpt lat="45.3602" lon="5.64998">
        <ele>693.1</ele>
        <time>2018-07-14T08:58:12Z</time>
      </trkpt>
      <trkpt lat="45.36017" lon="5.64984">
        <ele>693</ele>
        <time>2018-07-14T08:58:14Z</time>
      </trkpt>
      <trkpt lat="45.36017" lon="5.64969">
        <ele>693</ele>
        <time>2018-07-14T08:58:16Z</time>
      </trkpt>
      <trkpt lat="45.36017" lon="5.64952">
        <ele>692.8</ele>
        <time>2018-07-14T08:58:18Z</time>
      </trkpt>
      <trkpt lat="45.36017" lon="5.64934">
        <ele>692.3</ele>
        <time>2018-07-14T08:58:20Z</time>
      </trkpt>
      <trkpt lat="45.36015" lon="5.64918">
        <ele>691.9</ele>
        <time>2018-07-14T08:58:22Z</time>
      </trkpt>
      <trkpt lat="45.36012" lon="5.64904">
        <ele>691.2</ele>
        <time>2018-07-14T08:58:24Z</time>
      </trkpt>
      <trkpt lat="45.36009" lon="5.6489">
        <ele>690.4</ele>
        <time>2018-07-14T08:58:26Z</time>
      </trkpt>
      <trkpt lat="45.36007" lon="5.64874">
        <ele>689.9</ele>
        <time>2018-07-14T08:58:28Z</time>
      </trkpt>
      <trkpt lat="45.36006" lon="5.64859">
        <ele>689.6</ele>
        <time>2018-07-14T08:58:30Z</time>
      </trkpt>
      <trkpt lat="45.36002" lon="5.64844">
        <ele>689.2</ele>
        <time>2018-07-14T08:58:33Z</time>
      </trkpt>
      <trkpt lat="45.36001" lon="5.64824">
        <ele>689</ele>
        <time>2018-07-14T08:58:36Z</time>
      </trkpt>
      <trkpt lat="45.36" lon="5.64808">
        <ele>688.9</ele>
        <time>2018-07-14T08:58:38Z</time>
      </trkpt>
      <trkpt lat="45.36" lon="5.6479">
        <ele>688.2</ele>
        <time>2018-07-14T08:58:41Z</time>
      </trkpt>
      <trkpt lat="45.35992" lon="5.64777">
        <ele>687.5</ele>
        <time>2018-07-14T08:58:44Z</time>
      </trkpt>
      <trkpt lat="45.35986" lon="5.64764">
        <ele>686.5</ele>
        <time>2018-07-14T08:58:47Z</time>
      </trkpt>
      <trkpt lat="45.35982" lon="5.64752">
        <ele>685</ele>
        <time>2018-07-14T08:58:49Z</time>
      </trkpt>
      <trkpt lat="45.35977" lon="5.64738">
        <ele>683.2</ele>
        <time>2018-07-14T08:58:51Z</time>
      </trkpt>
      <trkpt lat="45.35971" lon="5.64722">
        <ele>682</ele>
        <time>2018-07-14T08:58:53Z</time>
      </trkpt>
      <trkpt lat="45.35961" lon="5.64706">
        <ele>681.1</ele>
        <time>2018-07-14T08:58:55Z</time>
      </trkpt>
      <trkpt lat="45.35954" lon="5.64697">
        <ele>680.6</ele>
        <time>2018-07-14T08:58:57Z</time>
      </trkpt>
      <trkpt lat="45.35945" lon="5.64681">
        <ele>681.3</ele>
        <time>2018-07-14T08:59:01Z</time>
      </trkpt>
      <trkpt lat="45.35934" lon="5.64668">
        <ele>681.4</ele>
        <time>2018-07-14T08:59:03Z</time>
      </trkpt>
      <trkpt lat="45.35928" lon="5.64658">
        <ele>681.3</ele>
        <time>2018-07-14T08:59:05Z</time>
      </trkpt>
      <trkpt lat="45.3592" lon="5.64652">
        <ele>681.2</ele>
        <time>2018-07-14T08:59:07Z</time>
      </trkpt>
      <trkpt lat="45.35912" lon="5.64645">
        <ele>681.1</ele>
        <time>2018-07-14T08:59:14Z</time>
      </trkpt>
      <trkpt lat="45.35911" lon="5.6463">
        <ele>681</ele>
        <time>2018-07-14T08:59:20Z</time>
      </trkpt>
      <trkpt lat="45.35911" lon="5.64617">
        <ele>680.4</ele>
        <time>2018-07-14T08:59:22Z</time>
      </trkpt>
      <trkpt lat="45.35913" lon="5.64603">
        <ele>679.7</ele>
        <time>2018-07-14T08:59:24Z</time>
      </trkpt>
      <trkpt lat="45.35914" lon="5.64587">
        <ele>679</ele>
        <time>2018-07-14T08:59:27Z</time>
      </trkpt>
      <trkpt lat="45.35916" lon="5.64572">
        <ele>678.6</ele>
        <time>2018-07-14T08:59:30Z</time>
      </trkpt>
      <trkpt lat="45.35915" lon="5.64558">
        <ele>678.5</ele>
        <time>2018-07-14T08:59:33Z</time>
      </trkpt>
      <trkpt lat="45.35918" lon="5.64545">
        <ele>678.5</ele>
        <time>2018-07-14T08:59:35Z</time>
      </trkpt>
      <trkpt lat="45.35922" lon="5.64532">
        <ele>678.4</ele>
        <time>2018-07-14T08:59:37Z</time>
      </trkpt>
      <trkpt lat="45.35929" lon="5.64517">
        <ele>678</ele>
        <time>2018-07-14T08:59:39Z</time>
      </trkpt>
      <trkpt lat="45.35934" lon="5.64498">
        <ele>677.4</ele>
        <time>2018-07-14T08:59:41Z</time>
      </trkpt>
      <trkpt lat="45.3593" lon="5.64481">
        <ele>677</ele>
        <time>2018-07-14T08:59:43Z</time>
      </trkpt>
      <trkpt lat="45.35921" lon="5.64467">
        <ele>676.5</ele>
        <time>2018-07-14T08:59:45Z</time>
      </trkpt>
      <trkpt lat="45.35911" lon="5.64458">
        <ele>676</ele>
        <time>2018-07-14T08:59:47Z</time>
      </trkpt>
      <trkpt lat="45.359" lon="5.64449">
        <ele>675.6</ele>
        <time>2018-07-14T08:59:49Z</time>
      </trkpt>
      <trkpt lat="45.3589" lon="5.64441">
        <ele>675.2</ele>
        <time>2018-07-14T08:59:51Z</time>
      </trkpt>
      <trkpt lat="45.35881" lon="5.64436">
        <ele>674.8</ele>
        <time>2018-07-14T08:59:53Z</time>
      </trkpt>
      <trkpt lat="45.35871" lon="5.64429">
        <ele>674.8</ele>
        <time>2018-07-14T08:59:56Z</time>
      </trkpt>
      <trkpt lat="45.3586" lon="5.64418">
        <ele>675.1</ele>
        <time>2018-07-14T08:59:59Z</time>
      </trkpt>
      <trkpt lat="45.35853" lon="5.64408">
        <ele>675.7</ele>
        <time>2018-07-14T09:00:02Z</time>
      </trkpt>
      <trkpt lat="45.35845" lon="5.64398">
        <ele>676.4</ele>
        <time>2018-07-14T09:00:06Z</time>
      </trkpt>
      <trkpt lat="45.35836" lon="5.6439">
        <ele>676.8</ele>
        <time>2018-07-14T09:00:09Z</time>
      </trkpt>
      <trkpt lat="45.35828" lon="5.64383">
        <ele>677</ele>
        <time>2018-07-14T09:00:13Z</time>
      </trkpt>
      <trkpt lat="45.3582" lon="5.64374">
        <ele>677</ele>
        <time>2018-07-14T09:00:16Z</time>
      </trkpt>
      <trkpt lat="45.35811" lon="5.64368">
        <ele>676.8</ele>
        <time>2018-07-14T09:00:20Z</time>
      </trkpt>
      <trkpt lat="45.35804" lon="5.64359">
        <ele>676.8</ele>
        <time>2018-07-14T09:00:32Z</time>
      </trkpt>
      <trkpt lat="45.35795" lon="5.64352">
        <ele>676.9</ele>
        <time>2018-07-14T09:00:36Z</time>
      </trkpt>
      <trkpt lat="45.35786" lon="5.64348">
        <ele>676.7</ele>
        <time>2018-07-14T09:00:41Z</time>
      </trkpt>
      <trkpt lat="45.35776" lon="5.64345">
        <ele>676.9</ele>
        <time>2018-07-14T09:00:48Z</time>
      </trkpt>
      <trkpt lat="45.35767" lon="5.64344">
        <ele>677.9</ele>
        <time>2018-07-14T09:00:55Z</time>
      </trkpt>
      <trkpt lat="45.35758" lon="5.6434">
        <ele>679.3</ele>
        <time>2018-07-14T09:01:10Z</time>
      </trkpt>
      <trkpt lat="45.35749" lon="5.64335">
        <ele>679.4</ele>
        <time>2018-07-14T09:01:23Z</time>
      </trkpt>
      <trkpt lat="45.35741" lon="5.64341">
        <ele>678.5</ele>
        <time>2018-07-14T09:01:50Z</time>
      </trkpt>
      <trkpt lat="45.35739" lon="5.64354">
        <ele>678.6</ele>
        <time>2018-07-14T09:02:04Z</time>
      </trkpt>
      <trkpt lat="45.35733" lon="5.64365">
        <ele>679.3</ele>
        <time>2018-07-14T09:02:13Z</time>
      </trkpt>
      <trkpt lat="45.35736" lon="5.64378">
        <ele>679</ele>
        <time>2018-07-14T09:02:39Z</time>
      </trkpt>
      <trkpt lat="45.35726" lon="5.64381">
        <ele>679.5</ele>
        <time>2018-07-14T09:03:37Z</time>
      </trkpt>
      <trkpt lat="45.35724" lon="5.64367">
        <ele>679.6</ele>
        <time>2018-07-14T09:04:23Z</time>
      </trkpt>
      <trkpt lat="45.3572" lon="5.64379">
        <ele>679.4</ele>
        <time>2018-07-14T09:05:50Z</time>
      </trkpt>
      <trkpt lat="45.35715" lon="5.64367">
        <ele>682.9</ele>
        <time>2018-07-14T09:06:31Z</time>
      </trkpt>
      <trkpt lat="45.35707" lon="5.64361">
        <ele>685.4</ele>
        <time>2018-07-14T09:06:39Z</time>
      </trkpt>
      <trkpt lat="45.35698" lon="5.64354">
        <ele>686.4</ele>
        <time>2018-07-14T09:06:46Z</time>
      </trkpt>
      <trkpt lat="45.35693" lon="5.64343">
        <ele>686.7</ele>
        <time>2018-07-14T09:06:52Z</time>
      </trkpt>
      <trkpt lat="45.35686" lon="5.64334">
        <ele>686.9</ele>
        <time>2018-07-14T09:06:56Z</time>
      </trkpt>
      <trkpt lat="45.35678" lon="5.64323">
        <ele>686.7</ele>
        <time>2018-07-14T09:07:01Z</time>
      </trkpt>
      <trkpt lat="45.3567" lon="5.64316">
        <ele>686.7</ele>
        <time>2018-07-14T09:07:04Z</time>
      </trkpt>
      <trkpt lat="45.35659" lon="5.64307">
        <ele>686.7</ele>
        <time>2018-07-14T09:07:07Z</time>
      </trkpt>
      <trkpt lat="45.3565" lon="5.643">
        <ele>686.5</ele>
        <time>2018-07-14T09:07:13Z</time>
      </trkpt>
      <trkpt lat="45.35638" lon="5.64299">
        <ele>686.5</ele>
        <time>2018-07-14T09:07:16Z</time>
      </trkpt>
      <trkpt lat="45.35627" lon="5.64298">
        <ele>686.2</ele>
        <time>2018-07-14T09:07:18Z</time>
      </trkpt>
      <trkpt lat="45.35616" lon="5.64292">
        <ele>685.5</ele>
        <time>2018-07-14T09:07:20Z</time>
      </trkpt>
      <trkpt lat="45.35607" lon="5.64287">
        <ele>684.8</ele>
        <time>2018-07-14T09:07:22Z</time>
      </trkpt>
      <trkpt lat="45.35597" lon="5.64283">
        <ele>684.2</ele>
        <time>2018-07-14T09:07:24Z</time>
      </trkpt>
      <trkpt lat="45.35586" lon="5.64277">
        <ele>683.4</ele>
        <time>2018-07-14T09:07:27Z</time>
      </trkpt>
      <trkpt lat="45.35577" lon="5.6427">
        <ele>682.7</ele>
        <time>2018-07-14T09:07:31Z</time>
      </trkpt>
      <trkpt lat="45.35567" lon="5.6426">
        <ele>682</ele>
        <time>2018-07-14T09:07:35Z</time>
      </trkpt>
      <trkpt lat="45.35562" lon="5.64249">
        <ele>681.3</ele>
        <time>2018-07-14T09:07:39Z</time>
      </trkpt>
      <trkpt lat="45.35554" lon="5.64238">
        <ele>681.2</ele>
        <time>2018-07-14T09:07:43Z</time>
      </trkpt>
      <trkpt lat="45.35546" lon="5.64228">
        <ele>681.3</ele>
        <time>2018-07-14T09:07:49Z</time>
      </trkpt>
      <trkpt lat="45.35535" lon="5.64218">
        <ele>681.3</ele>
        <time>2018-07-14T09:07:52Z</time>
      </trkpt>
      <trkpt lat="45.35527" lon="5.6421">
        <ele>681.1</ele>
        <time>2018-07-14T09:07:55Z</time>
      </trkpt>
      <trkpt lat="45.35517" lon="5.64203">
        <ele>681.1</ele>
        <time>2018-07-14T09:07:59Z</time>
      </trkpt>
      <trkpt lat="45.35507" lon="5.64205">
        <ele>683.6</ele>
        <time>2018-07-14T09:08:03Z</time>
      </trkpt>
      <trkpt lat="45.35497" lon="5.64206">
        <ele>685</ele>
        <time>2018-07-14T09:08:06Z</time>
      </trkpt>
      <trkpt lat="45.35487" lon="5.64211">
        <ele>684.1</ele>
        <time>2018-07-14T09:08:11Z</time>
      </trkpt>
      <trkpt lat="45.35475" lon="5.64216">
        <ele>683.4</ele>
        <time>2018-07-14T09:08:14Z</time>
      </trkpt>
      <trkpt lat="45.35463" lon="5.64224">
        <ele>682.5</ele>
        <time>2018-07-14T09:08:17Z</time>
      </trkpt>
      <trkpt lat="45.35453" lon="5.64227">
        <ele>682.1</ele>
        <time>2018-07-14T09:08:19Z</time>
      </trkpt>
      <trkpt lat="45.35444" lon="5.64234">
        <ele>681.7</ele>
        <time>2018-07-14T09:08:22Z</time>
      </trkpt>
      <trkpt lat="45.35437" lon="5.64243">
        <ele>681.4</ele>
        <time>2018-07-14T09:08:25Z</time>
      </trkpt>
      <trkpt lat="45.35431" lon="5.64253">
        <ele>681.3</ele>
        <time>2018-07-14T09:08:28Z</time>
      </trkpt>
      <trkpt lat="45.35424" lon="5.64262">
        <ele>681.2</ele>
        <time>2018-07-14T09:08:30Z</time>
      </trkpt>
      <trkpt lat="45.35416" lon="5.64271">
        <ele>680.9</ele>
        <time>2018-07-14T09:08:32Z</time>
      </trkpt>
      <trkpt lat="45.35406" lon="5.64279">
        <ele>680.7</ele>
        <time>2018-07-14T09:08:34Z</time>
      </trkpt>
      <trkpt lat="45.35395" lon="5.64286">
        <ele>680.6</ele>
        <time>2018-07-14T09:08:36Z</time>
      </trkpt>
      <trkpt lat="45.35385" lon="5.64295">
        <ele>680.3</ele>
        <time>2018-07-14T09:08:38Z</time>
      </trkpt>
      <trkpt lat="45.35376" lon="5.64302">
        <ele>679.6</ele>
        <time>2018-07-14T09:08:40Z</time>
      </trkpt>
      <trkpt lat="45.35369" lon="5.64311">
        <ele>678.9</ele>
        <time>2018-07-14T09:08:42Z</time>
      </trkpt>
      <trkpt lat="45.35359" lon="5.64321">
        <ele>678.4</ele>
        <time>2018-07-14T09:08:45Z</time>
      </trkpt>
      <trkpt lat="45.35351" lon="5.64329">
        <ele>678.1</ele>
        <time>2018-07-14T09:08:48Z</time>
      </trkpt>
      <trkpt lat="45.35341" lon="5.64338">
        <ele>678.1</ele>
        <time>2018-07-14T09:08:52Z</time>
      </trkpt>
      <trkpt lat="45.35331" lon="5.64345">
        <ele>677.8</ele>
        <time>2018-07-14T09:08:56Z</time>
      </trkpt>
      <trkpt lat="45.35325" lon="5.64354">
        <ele>677.4</ele>
        <time>2018-07-14T09:08:59Z</time>
      </trkpt>
      <trkpt lat="45.35316" lon="5.64361">
        <ele>677</ele>
        <time>2018-07-14T09:09:04Z</time>
      </trkpt>
      <trkpt lat="45.35305" lon="5.64358">
        <ele>676.5</ele>
        <time>2018-07-14T09:09:09Z</time>
      </trkpt>
      <trkpt lat="45.35293" lon="5.64357">
        <ele>676.1</ele>
        <time>2018-07-14T09:09:13Z</time>
      </trkpt>
      <trkpt lat="45.35282" lon="5.64356">
        <ele>675.8</ele>
        <time>2018-07-14T09:09:16Z</time>
      </trkpt>
      <trkpt lat="45.35269" lon="5.64355">
        <ele>675.1</ele>
        <time>2018-07-14T09:09:19Z</time>
      </trkpt>
      <trkpt lat="45.3526" lon="5.64353">
        <ele>674.6</ele>
        <time>2018-07-14T09:09:21Z</time>
      </trkpt>
      <trkpt lat="45.3525" lon="5.64352">
        <ele>674.1</ele>
        <time>2018-07-14T09:09:23Z</time>
      </trkpt>
      <trkpt lat="45.35239" lon="5.64351">
        <ele>673.8</ele>
        <time>2018-07-14T09:09:25Z</time>
      </trkpt>
      <trkpt lat="45.35227" lon="5.6435">
        <ele>673.5</ele>
        <time>2018-07-14T09:09:27Z</time>
      </trkpt>
      <trkpt lat="45.35215" lon="5.64349">
        <ele>673.2</ele>
        <time>2018-07-14T09:09:29Z</time>
      </trkpt>
      <trkpt lat="45.35203" lon="5.64348">
        <ele>672.9</ele>
        <time>2018-07-14T09:09:31Z</time>
      </trkpt>
      <trkpt lat="45.35191" lon="5.64348">
        <ele>672.5</ele>
        <time>2018-07-14T09:09:33Z</time>
      </trkpt>
      <trkpt lat="45.35178" lon="5.64346">
        <ele>672.1</ele>
        <time>2018-07-14T09:09:35Z</time>
      </trkpt>
      <trkpt lat="45.35165" lon="5.64344">
        <ele>671.8</ele>
        <time>2018-07-14T09:09:37Z</time>
      </trkpt>
      <trkpt lat="45.35152" lon="5.64339">
        <ele>671.6</ele>
        <time>2018-07-14T09:09:39Z</time>
      </trkpt>
      <trkpt lat="45.35141" lon="5.64324">
        <ele>671.2</ele>
        <time>2018-07-14T09:09:41Z</time>
      </trkpt>
      <trkpt lat="45.35134" lon="5.64304">
        <ele>670.5</ele>
        <time>2018-07-14T09:09:43Z</time>
      </trkpt>
      <trkpt lat="45.35125" lon="5.64285">
        <ele>669.7</ele>
        <time>2018-07-14T09:09:45Z</time>
      </trkpt>
      <trkpt lat="45.35111" lon="5.64271">
        <ele>668.8</ele>
        <time>2018-07-14T09:09:47Z</time>
      </trkpt>
      <trkpt lat="45.35095" lon="5.64263">
        <ele>668</ele>
        <time>2018-07-14T09:09:49Z</time>
      </trkpt>
      <trkpt lat="45.35079" lon="5.64257">
        <ele>667.3</ele>
        <time>2018-07-14T09:09:51Z</time>
      </trkpt>
      <trkpt lat="45.35061" lon="5.6425">
        <ele>666.7</ele>
        <time>2018-07-14T09:09:53Z</time>
      </trkpt>
      <trkpt lat="45.35044" lon="5.64244">
        <ele>666</ele>
        <time>2018-07-14T09:09:55Z</time>
      </trkpt>
      <trkpt lat="45.35027" lon="5.64238">
        <ele>665.2</ele>
        <time>2018-07-14T09:09:57Z</time>
      </trkpt>
      <trkpt lat="45.35013" lon="5.64234">
        <ele>664.5</ele>
        <time>2018-07-14T09:09:59Z</time>
      </trkpt>
      <trkpt lat="45.35003" lon="5.64232">
        <ele>663.9</ele>
        <time>2018-07-14T09:10:01Z</time>
      </trkpt>
      <trkpt lat="45.34992" lon="5.64236">
        <ele>663.1</ele>
        <time>2018-07-14T09:10:04Z</time>
      </trkpt>
      <trkpt lat="45.34983" lon="5.64238">
        <ele>661</ele>
        <time>2018-07-14T09:10:51Z</time>
      </trkpt>
      <trkpt lat="45.34982" lon="5.64252">
        <ele>660.6</ele>
        <time>2018-07-14T09:10:56Z</time>
      </trkpt>
      <trkpt lat="45.34983" lon="5.64267">
        <ele>660.5</ele>
        <time>2018-07-14T09:10:59Z</time>
      </trkpt>
      <trkpt lat="45.34987" lon="5.64284">
        <ele>660.4</ele>
        <time>2018-07-14T09:11:02Z</time>
      </trkpt>
      <trkpt lat="45.34991" lon="5.64296">
        <ele>660.2</ele>
        <time>2018-07-14T09:11:04Z</time>
      </trkpt>
      <trkpt lat="45.34996" lon="5.6431">
        <ele>660</ele>
        <time>2018-07-14T09:11:06Z</time>
      </trkpt>
      <trkpt lat="45.35001" lon="5.64326">
        <ele>659.6</ele>
        <time>2018-07-14T09:11:08Z</time>
      </trkpt>
      <trkpt lat="45.35006" lon="5.64343">
        <ele>659.1</ele>
        <time>2018-07-14T09:11:10Z</time>
      </trkpt>
      <trkpt lat="45.3501" lon="5.6436">
        <ele>658.6</ele>
        <time>2018-07-14T09:11:12Z</time>
      </trkpt>
      <trkpt lat="45.35013" lon="5.64379">
        <ele>658.1</ele>
        <time>2018-07-14T09:11:14Z</time>
      </trkpt>
      <trkpt lat="45.35016" lon="5.64399">
        <ele>657.1</ele>
        <time>2018-07-14T09:11:16Z</time>
      </trkpt>
      <trkpt lat="45.35017" lon="5.64421">
        <ele>656.4</ele>
        <time>2018-07-14T09:11:18Z</time>
      </trkpt>
      <trkpt lat="45.35018" lon="5.64444">
        <ele>655.7</ele>
        <time>2018-07-14T09:11:20Z</time>
      </trkpt>
      <trkpt lat="45.35018" lon="5.64468">
        <ele>655.2</ele>
        <time>2018-07-14T09:11:22Z</time>
      </trkpt>
      <trkpt lat="45.35018" lon="5.64491">
        <ele>653.8</ele>
        <time>2018-07-14T09:11:24Z</time>
      </trkpt>
      <trkpt lat="45.35017" lon="5.64515">
        <ele>652.7</ele>
        <time>2018-07-14T09:11:26Z</time>
      </trkpt>
      <trkpt lat="45.35016" lon="5.64538">
        <ele>652</ele>
        <time>2018-07-14T09:11:28Z</time>
      </trkpt>
      <trkpt lat="45.35011" lon="5.64557">
        <ele>651.5</ele>
        <time>2018-07-14T09:11:30Z</time>
      </trkpt>
      <trkpt lat="45.35" lon="5.6457">
        <ele>651.2</ele>
        <time>2018-07-14T09:11:32Z</time>
      </trkpt>
      <trkpt lat="45.34989" lon="5.64579">
        <ele>650.6</ele>
        <time>2018-07-14T09:11:34Z</time>
      </trkpt>
      <trkpt lat="45.34981" lon="5.64586">
        <ele>650.2</ele>
        <time>2018-07-14T09:11:36Z</time>
      </trkpt>
      <trkpt lat="45.3497" lon="5.64586">
        <ele>649.8</ele>
        <time>2018-07-14T09:11:39Z</time>
      </trkpt>
      <trkpt lat="45.34965" lon="5.64573">
        <ele>649.7</ele>
        <time>2018-07-14T09:11:42Z</time>
      </trkpt>
      <trkpt lat="45.34959" lon="5.64556">
        <ele>649.5</ele>
        <time>2018-07-14T09:11:45Z</time>
      </trkpt>
      <trkpt lat="45.34955" lon="5.64544">
        <ele>649.4</ele>
        <time>2018-07-14T09:11:47Z</time>
      </trkpt>
      <trkpt lat="45.34951" lon="5.64532">
        <ele>649.3</ele>
        <time>2018-07-14T09:11:49Z</time>
      </trkpt>
      <trkpt lat="45.34946" lon="5.64519">
        <ele>649.1</ele>
        <time>2018-07-14T09:11:51Z</time>
      </trkpt>
      <trkpt lat="45.3494" lon="5.64505">
        <ele>649.1</ele>
        <time>2018-07-14T09:11:53Z</time>
      </trkpt>
      <trkpt lat="45.34933" lon="5.64491">
        <ele>648.8</ele>
        <time>2018-07-14T09:11:55Z</time>
      </trkpt>
      <trkpt lat="45.34925" lon="5.64478">
        <ele>648.3</ele>
        <time>2018-07-14T09:11:57Z</time>
      </trkpt>
      <trkpt lat="45.34915" lon="5.64466">
        <ele>647.9</ele>
        <time>2018-07-14T09:11:59Z</time>
      </trkpt>
      <trkpt lat="45.34906" lon="5.64453">
        <ele>647.7</ele>
        <time>2018-07-14T09:12:01Z</time>
      </trkpt>
      <trkpt lat="45.34896" lon="5.6444">
        <ele>647.6</ele>
        <time>2018-07-14T09:12:03Z</time>
      </trkpt>
      <trkpt lat="45.34886" lon="5.64428">
        <ele>647.4</ele>
        <time>2018-07-14T09:12:05Z</time>
      </trkpt>
      <trkpt lat="45.34876" lon="5.64415">
        <ele>647.1</ele>
        <time>2018-07-14T09:12:07Z</time>
      </trkpt>
      <trkpt lat="45.34864" lon="5.64404">
        <ele>646.6</ele>
        <time>2018-07-14T09:12:09Z</time>
      </trkpt>
      <trkpt lat="45.34853" lon="5.64393">
        <ele>646.3</ele>
        <time>2018-07-14T09:12:11Z</time>
      </trkpt>
      <trkpt lat="45.34841" lon="5.64382">
        <ele>646.1</ele>
        <time>2018-07-14T09:12:13Z</time>
      </trkpt>
      <trkpt lat="45.34829" lon="5.64372">
        <ele>645.6</ele>
        <time>2018-07-14T09:12:15Z</time>
      </trkpt>
      <trkpt lat="45.34816" lon="5.64364">
        <ele>645.1</ele>
        <time>2018-07-14T09:12:17Z</time>
      </trkpt>
      <trkpt lat="45.34802" lon="5.64354">
        <ele>644.8</ele>
        <time>2018-07-14T09:12:19Z</time>
      </trkpt>
      <trkpt lat="45.34787" lon="5.64345">
        <ele>644.5</ele>
        <time>2018-07-14T09:12:21Z</time>
      </trkpt>
      <trkpt lat="45.34774" lon="5.64335">
        <ele>644.3</ele>
        <time>2018-07-14T09:12:23Z</time>
      </trkpt>
      <trkpt lat="45.34761" lon="5.64323">
        <ele>644</ele>
        <time>2018-07-14T09:12:25Z</time>
      </trkpt>
      <trkpt lat="45.34747" lon="5.64313">
        <ele>643.5</ele>
        <time>2018-07-14T09:12:27Z</time>
      </trkpt>
      <trkpt lat="45.34734" lon="5.64305">
        <ele>643.1</ele>
        <time>2018-07-14T09:12:29Z</time>
      </trkpt>
      <trkpt lat="45.3472" lon="5.64297">
        <ele>642.8</ele>
        <time>2018-07-14T09:12:31Z</time>
      </trkpt>
      <trkpt lat="45.34706" lon="5.64289">
        <ele>642.6</ele>
        <time>2018-07-14T09:12:33Z</time>
      </trkpt>
      <trkpt lat="45.34691" lon="5.64284">
        <ele>642</ele>
        <time>2018-07-14T09:12:35Z</time>
      </trkpt>
      <trkpt lat="45.34675" lon="5.6428">
        <ele>641.2</ele>
        <time>2018-07-14T09:12:37Z</time>
      </trkpt>
      <trkpt lat="45.34659" lon="5.64274">
        <ele>640.6</ele>
        <time>2018-07-14T09:12:39Z</time>
      </trkpt>
      <trkpt lat="45.34641" lon="5.64267">
        <ele>640</ele>
        <time>2018-07-14T09:12:41Z</time>
      </trkpt>
      <trkpt lat="45.34632" lon="5.64262">
        <ele>639.7</ele>
        <time>2018-07-14T09:12:42Z</time>
      </trkpt>
      <trkpt lat="45.34623" lon="5.64257">
        <ele>639.2</ele>
        <time>2018-07-14T09:12:43Z</time>
      </trkpt>
      <trkpt lat="45.34614" lon="5.64252">
        <ele>638.9</ele>
        <time>2018-07-14T09:12:44Z</time>
      </trkpt>
      <trkpt lat="45.34604" lon="5.64247">
        <ele>638.5</ele>
        <time>2018-07-14T09:12:45Z</time>
      </trkpt>
      <trkpt lat="45.34594" lon="5.64243">
        <ele>638.1</ele>
        <time>2018-07-14T09:12:46Z</time>
      </trkpt>
      <trkpt lat="45.34584" lon="5.6424">
        <ele>637.5</ele>
        <time>2018-07-14T09:12:47Z</time>
      </trkpt>
      <trkpt lat="45.34574" lon="5.64236">
        <ele>637</ele>
        <time>2018-07-14T09:12:48Z</time>
      </trkpt>
      <trkpt lat="45.34564" lon="5.64233">
        <ele>636.5</ele>
        <time>2018-07-14T09:12:49Z</time>
      </trkpt>
      <trkpt lat="45.34555" lon="5.64231">
        <ele>636.2</ele>
        <time>2018-07-14T09:12:50Z</time>
      </trkpt>
      <trkpt lat="45.34545" lon="5.64229">
        <ele>635.5</ele>
        <time>2018-07-14T09:12:51Z</time>
      </trkpt>
      <trkpt lat="45.34536" lon="5.64226">
        <ele>634.9</ele>
        <time>2018-07-14T09:12:52Z</time>
      </trkpt>
      <trkpt lat="45.34527" lon="5.64222">
        <ele>634.2</ele>
        <time>2018-07-14T09:12:53Z</time>
      </trkpt>
      <trkpt lat="45.34518" lon="5.64215">
        <ele>633.7</ele>
        <time>2018-07-14T09:12:54Z</time>
      </trkpt>
      <trkpt lat="45.3451" lon="5.64207">
        <ele>633.3</ele>
        <time>2018-07-14T09:12:55Z</time>
      </trkpt>
      <trkpt lat="45.34501" lon="5.64198">
        <ele>632.9</ele>
        <time>2018-07-14T09:12:56Z</time>
      </trkpt>
      <trkpt lat="45.34492" lon="5.64191">
        <ele>632.3</ele>
        <time>2018-07-14T09:12:57Z</time>
      </trkpt>
      <trkpt lat="45.34483" lon="5.64183">
        <ele>631.8</ele>
        <time>2018-07-14T09:12:58Z</time>
      </trkpt>
      <trkpt lat="45.34472" lon="5.64177">
        <ele>630.8</ele>
        <time>2018-07-14T09:12:59Z</time>
      </trkpt>
      <trkpt lat="45.34461" lon="5.64172">
        <ele>630.1</ele>
        <time>2018-07-14T09:13:00Z</time>
      </trkpt>
      <trkpt lat="45.3445" lon="5.64166">
        <ele>629.1</ele>
        <time>2018-07-14T09:13:01Z</time>
      </trkpt>
      <trkpt lat="45.3444" lon="5.64161">
        <ele>628.4</ele>
        <time>2018-07-14T09:13:02Z</time>
      </trkpt>
      <trkpt lat="45.34429" lon="5.64157">
        <ele>627.4</ele>
        <time>2018-07-14T09:13:03Z</time>
      </trkpt>
      <trkpt lat="45.3442" lon="5.64152">
        <ele>626.6</ele>
        <time>2018-07-14T09:13:04Z</time>
      </trkpt>
      <trkpt lat="45.3441" lon="5.64146">
        <ele>625.3</ele>
        <time>2018-07-14T09:13:05Z</time>
      </trkpt>
      <trkpt lat="45.34399" lon="5.64138">
        <ele>624.3</ele>
        <time>2018-07-14T09:13:06Z</time>
      </trkpt>
      <trkpt lat="45.34391" lon="5.6413">
        <ele>623.5</ele>
        <time>2018-07-14T09:13:07Z</time>
      </trkpt>
      <trkpt lat="45.34382" lon="5.64122">
        <ele>622.8</ele>
        <time>2018-07-14T09:13:08Z</time>
      </trkpt>
      <trkpt lat="45.34378" lon="5.64107">
        <ele>621.6</ele>
        <time>2018-07-14T09:13:09Z</time>
      </trkpt>
      <trkpt lat="45.34374" lon="5.64091">
        <ele>620.7</ele>
        <time>2018-07-14T09:13:10Z</time>
      </trkpt>
      <trkpt lat="45.34371" lon="5.64075">
        <ele>619.8</ele>
        <time>2018-07-14T09:13:11Z</time>
      </trkpt>
      <trkpt lat="45.34366" lon="5.6406">
        <ele>619.1</ele>
        <time>2018-07-14T09:13:12Z</time>
      </trkpt>
      <trkpt lat="45.34361" lon="5.64045">
        <ele>618.3</ele>
        <time>2018-07-14T09:13:13Z</time>
      </trkpt>
      <trkpt lat="45.34354" lon="5.64032">
        <ele>617.7</ele>
        <time>2018-07-14T09:13:14Z</time>
      </trkpt>
      <trkpt lat="45.34347" lon="5.64019">
        <ele>616.7</ele>
        <time>2018-07-14T09:13:15Z</time>
      </trkpt>
      <trkpt lat="45.34341" lon="5.64006">
        <ele>615.9</ele>
        <time>2018-07-14T09:13:16Z</time>
      </trkpt>
      <trkpt lat="45.34334" lon="5.63993">
        <ele>615.2</ele>
        <time>2018-07-14T09:13:17Z</time>
      </trkpt>
      <trkpt lat="45.34328" lon="5.63979">
        <ele>614.7</ele>
        <time>2018-07-14T09:13:18Z</time>
      </trkpt>
      <trkpt lat="45.34322" lon="5.63964">
        <ele>613.7</ele>
        <time>2018-07-14T09:13:19Z</time>
      </trkpt>
      <trkpt lat="45.3431" lon="5.63923">
        <ele>611</ele>
        <time>2018-07-14T09:13:21Z</time>
      </trkpt>
      <trkpt lat="45.34298" lon="5.63882">
        <ele>609.8</ele>
        <time>2018-07-14T09:13:24Z</time>
      </trkpt>
      <trkpt lat="45.34294" lon="5.63866">
        <ele>608.9</ele>
        <time>2018-07-14T09:13:25Z</time>
      </trkpt>
      <trkpt lat="45.34295" lon="5.63828">
        <ele>606</ele>
        <time>2018-07-14T09:13:27Z</time>
      </trkpt>
      <trkpt lat="45.34298" lon="5.63799">
        <ele>605</ele>
        <time>2018-07-14T09:13:30Z</time>
      </trkpt>
      <trkpt lat="45.34301" lon="5.63782">
        <ele>603.3</ele>
        <time>2018-07-14T09:13:32Z</time>
      </trkpt>
      <trkpt lat="45.34308" lon="5.63768">
        <ele>601.4</ele>
        <time>2018-07-14T09:13:34Z</time>
      </trkpt>
      <trkpt lat="45.34315" lon="5.63754">
        <ele>599.3</ele>
        <time>2018-07-14T09:13:37Z</time>
      </trkpt>
      <trkpt lat="45.34324" lon="5.63742">
        <ele>598</ele>
        <time>2018-07-14T09:13:40Z</time>
      </trkpt>
      <trkpt lat="45.34334" lon="5.63733">
        <ele>597.3</ele>
        <time>2018-07-14T09:13:42Z</time>
      </trkpt>
      <trkpt lat="45.34344" lon="5.63724">
        <ele>596.5</ele>
        <time>2018-07-14T09:13:44Z</time>
      </trkpt>
      <trkpt lat="45.34356" lon="5.6372">
        <ele>595.4</ele>
        <time>2018-07-14T09:13:46Z</time>
      </trkpt>
      <trkpt lat="45.34371" lon="5.63721">
        <ele>594.4</ele>
        <time>2018-07-14T09:13:48Z</time>
      </trkpt>
      <trkpt lat="45.34387" lon="5.63722">
        <ele>593.3</ele>
        <time>2018-07-14T09:13:50Z</time>
      </trkpt>
      <trkpt lat="45.34405" lon="5.63721">
        <ele>592.1</ele>
        <time>2018-07-14T09:13:52Z</time>
      </trkpt>
      <trkpt lat="45.34414" lon="5.63722">
        <ele>591.6</ele>
        <time>2018-07-14T09:13:53Z</time>
      </trkpt>
      <trkpt lat="45.34423" lon="5.63722">
        <ele>590.8</ele>
        <time>2018-07-14T09:13:54Z</time>
      </trkpt>
      <trkpt lat="45.34433" lon="5.63721">
        <ele>590.1</ele>
        <time>2018-07-14T09:13:55Z</time>
      </trkpt>
      <trkpt lat="45.34442" lon="5.63721">
        <ele>589.5</ele>
        <time>2018-07-14T09:13:56Z</time>
      </trkpt>
      <trkpt lat="45.34451" lon="5.63722">
        <ele>589</ele>
        <time>2018-07-14T09:13:57Z</time>
      </trkpt>
      <trkpt lat="45.34475" lon="5.63723">
        <ele>587</ele>
        <time>2018-07-14T09:13:59Z</time>
      </trkpt>
      <trkpt lat="45.34499" lon="5.63722">
        <ele>586.2</ele>
        <time>2018-07-14T09:14:02Z</time>
      </trkpt>
      <trkpt lat="45.34508" lon="5.63716">
        <ele>585.8</ele>
        <time>2018-07-14T09:14:03Z</time>
      </trkpt>
      <trkpt lat="45.34517" lon="5.63709">
        <ele>584.7</ele>
        <time>2018-07-14T09:14:04Z</time>
      </trkpt>
      <trkpt lat="45.34538" lon="5.6368">
        <ele>582</ele>
        <time>2018-07-14T09:14:06Z</time>
      </trkpt>
      <trkpt lat="45.34553" lon="5.63651">
        <ele>580.9</ele>
        <time>2018-07-14T09:14:09Z</time>
      </trkpt>
      <trkpt lat="45.34558" lon="5.63639">
        <ele>580.4</ele>
        <time>2018-07-14T09:14:10Z</time>
      </trkpt>
      <trkpt lat="45.34564" lon="5.63627">
        <ele>580.1</ele>
        <time>2018-07-14T09:14:11Z</time>
      </trkpt>
      <trkpt lat="45.3457" lon="5.63617">
        <ele>579.5</ele>
        <time>2018-07-14T09:14:12Z</time>
      </trkpt>
      <trkpt lat="45.34575" lon="5.63607">
        <ele>579.1</ele>
        <time>2018-07-14T09:14:13Z</time>
      </trkpt>
      <trkpt lat="45.34584" lon="5.63588">
        <ele>578.5</ele>
        <time>2018-07-14T09:14:15Z</time>
      </trkpt>
      <trkpt lat="45.34591" lon="5.6357">
        <ele>577.5</ele>
        <time>2018-07-14T09:14:17Z</time>
      </trkpt>
      <trkpt lat="45.34596" lon="5.63551">
        <ele>576.7</ele>
        <time>2018-07-14T09:14:19Z</time>
      </trkpt>
      <trkpt lat="45.34599" lon="5.6353">
        <ele>575.9</ele>
        <time>2018-07-14T09:14:21Z</time>
      </trkpt>
      <trkpt lat="45.34598" lon="5.63508">
        <ele>575</ele>
        <time>2018-07-14T09:14:23Z</time>
      </trkpt>
      <trkpt lat="45.34595" lon="5.63486">
        <ele>574.3</ele>
        <time>2018-07-14T09:14:25Z</time>
      </trkpt>
      <trkpt lat="45.34594" lon="5.63468">
        <ele>573.7</ele>
        <time>2018-07-14T09:14:27Z</time>
      </trkpt>
      <trkpt lat="45.34593" lon="5.63453">
        <ele>573.1</ele>
        <time>2018-07-14T09:14:29Z</time>
      </trkpt>
      <trkpt lat="45.34594" lon="5.6344">
        <ele>572.2</ele>
        <time>2018-07-14T09:14:32Z</time>
      </trkpt>
      <trkpt lat="45.34602" lon="5.63435">
        <ele>570.1</ele>
        <time>2018-07-14T09:15:15Z</time>
      </trkpt>
    </trkseg>
  </trk>
</gpx>